<?xml version="1.0" encoding="UTF-8" standalone="no" ?>
<gpx xmlns="http://www.topografix.com/GPX/1/1" xmlns:xsi="http://www.w3.org/2001/XMLSchema-instance" xsi:schemaLocation="http://www.topografix.com/GPX/1/1 http://www.topografix.com/GPX/1/1/gpx.xsd" version="1.1" creator="VisuGPX - https://www.visugpx.com">
  <metadata>
    <name>Joyeux Randonneurs à St Vincent de Connezac</name>
    <desc><![CDATA[Randonnée accessible à tous. Il existe pratiquement toujours des possibilités  pour raccourcir le circuit à environ  6km.  ]]></desc>
  </metadata>
  <trk>
    <name><![CDATA[Tracé 29 mars 2016 14:03:36]]></name>
    <trkseg>
      <trkpt lat="45.16452" lon="0.39653">
        <ele>120</ele>
        <time>2016-03-29T12:03:36Z</time>
      </trkpt>
      <trkpt lat="45.16456" lon="0.39652">
        <ele>119</ele>
        <time>2016-03-29T12:03:59Z</time>
      </trkpt>
      <trkpt lat="45.16463" lon="0.39649">
        <ele>116</ele>
        <time>2016-03-29T12:04:03Z</time>
      </trkpt>
      <trkpt lat="45.16467" lon="0.39647">
        <ele>115</ele>
        <time>2016-03-29T12:04:08Z</time>
      </trkpt>
      <trkpt lat="45.16471" lon="0.3965">
        <ele>115</ele>
        <time>2016-03-29T12:04:13Z</time>
      </trkpt>
      <trkpt lat="45.16476" lon="0.3965">
        <ele>113</ele>
        <time>2016-03-29T12:04:17Z</time>
      </trkpt>
      <trkpt lat="45.1648" lon="0.39649">
        <ele>113</ele>
        <time>2016-03-29T12:04:22Z</time>
      </trkpt>
      <trkpt lat="45.16482" lon="0.39653">
        <ele>114</ele>
        <time>2016-03-29T12:04:36Z</time>
      </trkpt>
      <trkpt lat="45.16486" lon="0.3966">
        <ele>112</ele>
        <time>2016-03-29T12:04:41Z</time>
      </trkpt>
      <trkpt lat="45.1649" lon="0.39658">
        <ele>115</ele>
        <time>2016-03-29T12:04:49Z</time>
      </trkpt>
      <trkpt lat="45.16494" lon="0.39656">
        <ele>118</ele>
        <time>2016-03-29T12:04:55Z</time>
      </trkpt>
      <trkpt lat="45.16498" lon="0.39652">
        <ele>120</ele>
        <time>2016-03-29T12:04:59Z</time>
      </trkpt>
      <trkpt lat="45.16501" lon="0.3965">
        <ele>121</ele>
        <time>2016-03-29T12:05:04Z</time>
      </trkpt>
      <trkpt lat="45.16505" lon="0.39652">
        <ele>120</ele>
        <time>2016-03-29T12:05:11Z</time>
      </trkpt>
      <trkpt lat="45.16507" lon="0.39657">
        <ele>119</ele>
        <time>2016-03-29T12:05:15Z</time>
      </trkpt>
      <trkpt lat="45.16505" lon="0.39665">
        <ele>118</ele>
        <time>2016-03-29T12:05:19Z</time>
      </trkpt>
      <trkpt lat="45.16504" lon="0.39671">
        <ele>114</ele>
        <time>2016-03-29T12:05:23Z</time>
      </trkpt>
      <trkpt lat="45.16503" lon="0.39677">
        <ele>116</ele>
        <time>2016-03-29T12:05:27Z</time>
      </trkpt>
      <trkpt lat="45.165" lon="0.39684">
        <ele>116</ele>
        <time>2016-03-29T12:05:31Z</time>
      </trkpt>
      <trkpt lat="45.16498" lon="0.39692">
        <ele>115</ele>
        <time>2016-03-29T12:05:35Z</time>
      </trkpt>
      <trkpt lat="45.16495" lon="0.39698">
        <ele>115</ele>
        <time>2016-03-29T12:05:39Z</time>
      </trkpt>
      <trkpt lat="45.16495" lon="0.39706">
        <ele>117</ele>
        <time>2016-03-29T12:05:43Z</time>
      </trkpt>
      <trkpt lat="45.16499" lon="0.39714">
        <ele>119</ele>
        <time>2016-03-29T12:05:47Z</time>
      </trkpt>
      <trkpt lat="45.1651" lon="0.39722">
        <ele>123</ele>
        <time>2016-03-29T12:05:51Z</time>
      </trkpt>
      <trkpt lat="45.16512" lon="0.39733">
        <ele>124</ele>
        <time>2016-03-29T12:05:56Z</time>
      </trkpt>
      <trkpt lat="45.16498" lon="0.39736">
        <ele>124</ele>
        <time>2016-03-29T12:06:00Z</time>
      </trkpt>
      <trkpt lat="45.1649" lon="0.39743">
        <ele>122</ele>
        <time>2016-03-29T12:06:04Z</time>
      </trkpt>
      <trkpt lat="45.16481" lon="0.39746">
        <ele>121</ele>
        <time>2016-03-29T12:06:08Z</time>
      </trkpt>
      <trkpt lat="45.16476" lon="0.39749">
        <ele>120</ele>
        <time>2016-03-29T12:06:12Z</time>
      </trkpt>
      <trkpt lat="45.16474" lon="0.39757">
        <ele>114</ele>
        <time>2016-03-29T12:06:17Z</time>
      </trkpt>
      <trkpt lat="45.1648" lon="0.39763">
        <ele>112</ele>
        <time>2016-03-29T12:06:22Z</time>
      </trkpt>
      <trkpt lat="45.16483" lon="0.39772">
        <ele>111</ele>
        <time>2016-03-29T12:06:26Z</time>
      </trkpt>
      <trkpt lat="45.16486" lon="0.39783">
        <ele>111</ele>
        <time>2016-03-29T12:06:31Z</time>
      </trkpt>
      <trkpt lat="45.16487" lon="0.3979">
        <ele>110</ele>
        <time>2016-03-29T12:06:35Z</time>
      </trkpt>
      <trkpt lat="45.16489" lon="0.39799">
        <ele>111</ele>
        <time>2016-03-29T12:06:40Z</time>
      </trkpt>
      <trkpt lat="45.16489" lon="0.39809">
        <ele>111</ele>
        <time>2016-03-29T12:06:45Z</time>
      </trkpt>
      <trkpt lat="45.16486" lon="0.39813">
        <ele>111</ele>
        <time>2016-03-29T12:06:49Z</time>
      </trkpt>
      <trkpt lat="45.16489" lon="0.39818">
        <ele>110</ele>
        <time>2016-03-29T12:06:53Z</time>
      </trkpt>
      <trkpt lat="45.16494" lon="0.39828">
        <ele>112</ele>
        <time>2016-03-29T12:06:57Z</time>
      </trkpt>
      <trkpt lat="45.16497" lon="0.39833">
        <ele>115</ele>
        <time>2016-03-29T12:07:03Z</time>
      </trkpt>
      <trkpt lat="45.16498" lon="0.39838">
        <ele>114</ele>
        <time>2016-03-29T12:07:08Z</time>
      </trkpt>
      <trkpt lat="45.16503" lon="0.39842">
        <ele>116</ele>
        <time>2016-03-29T12:07:12Z</time>
      </trkpt>
      <trkpt lat="45.16502" lon="0.39853">
        <ele>113</ele>
        <time>2016-03-29T12:07:17Z</time>
      </trkpt>
      <trkpt lat="45.16503" lon="0.39857">
        <ele>112</ele>
        <time>2016-03-29T12:07:21Z</time>
      </trkpt>
      <trkpt lat="45.16511" lon="0.39862">
        <ele>113</ele>
        <time>2016-03-29T12:07:26Z</time>
      </trkpt>
      <trkpt lat="45.16513" lon="0.39867">
        <ele>115</ele>
        <time>2016-03-29T12:07:30Z</time>
      </trkpt>
      <trkpt lat="45.16521" lon="0.39869">
        <ele>117</ele>
        <time>2016-03-29T12:07:35Z</time>
      </trkpt>
      <trkpt lat="45.1653" lon="0.39868">
        <ele>119</ele>
        <time>2016-03-29T12:07:39Z</time>
      </trkpt>
      <trkpt lat="45.16537" lon="0.39864">
        <ele>118</ele>
        <time>2016-03-29T12:07:43Z</time>
      </trkpt>
      <trkpt lat="45.16542" lon="0.39859">
        <ele>118</ele>
        <time>2016-03-29T12:07:47Z</time>
      </trkpt>
      <trkpt lat="45.16546" lon="0.39861">
        <ele>118</ele>
        <time>2016-03-29T12:07:51Z</time>
      </trkpt>
      <trkpt lat="45.16553" lon="0.39852">
        <ele>115</ele>
        <time>2016-03-29T12:07:55Z</time>
      </trkpt>
      <trkpt lat="45.16557" lon="0.39853">
        <ele>117</ele>
        <time>2016-03-29T12:08:02Z</time>
      </trkpt>
      <trkpt lat="45.16561" lon="0.39852">
        <ele>119</ele>
        <time>2016-03-29T12:08:08Z</time>
      </trkpt>
      <trkpt lat="45.16568" lon="0.39842">
        <ele>120</ele>
        <time>2016-03-29T12:08:13Z</time>
      </trkpt>
      <trkpt lat="45.16571" lon="0.39839">
        <ele>121</ele>
        <time>2016-03-29T12:08:17Z</time>
      </trkpt>
      <trkpt lat="45.16574" lon="0.39835">
        <ele>122</ele>
        <time>2016-03-29T12:08:21Z</time>
      </trkpt>
      <trkpt lat="45.16578" lon="0.39834">
        <ele>124</ele>
        <time>2016-03-29T12:08:26Z</time>
      </trkpt>
      <trkpt lat="45.16582" lon="0.39831">
        <ele>124</ele>
        <time>2016-03-29T12:08:30Z</time>
      </trkpt>
      <trkpt lat="45.16586" lon="0.3983">
        <ele>127</ele>
        <time>2016-03-29T12:08:36Z</time>
      </trkpt>
      <trkpt lat="45.16591" lon="0.39824">
        <ele>128</ele>
        <time>2016-03-29T12:08:40Z</time>
      </trkpt>
      <trkpt lat="45.16596" lon="0.39818">
        <ele>126</ele>
        <time>2016-03-29T12:08:44Z</time>
      </trkpt>
      <trkpt lat="45.16601" lon="0.39815">
        <ele>125</ele>
        <time>2016-03-29T12:08:48Z</time>
      </trkpt>
      <trkpt lat="45.16604" lon="0.39815">
        <ele>125</ele>
        <time>2016-03-29T12:08:53Z</time>
      </trkpt>
      <trkpt lat="45.1661" lon="0.39812">
        <ele>123</ele>
        <time>2016-03-29T12:08:57Z</time>
      </trkpt>
      <trkpt lat="45.16614" lon="0.39812">
        <ele>120</ele>
        <time>2016-03-29T12:09:02Z</time>
      </trkpt>
      <trkpt lat="45.16617" lon="0.39808">
        <ele>120</ele>
        <time>2016-03-29T12:09:06Z</time>
      </trkpt>
      <trkpt lat="45.16621" lon="0.39809">
        <ele>118</ele>
        <time>2016-03-29T12:09:14Z</time>
      </trkpt>
      <trkpt lat="45.16624" lon="0.39814">
        <ele>116</ele>
        <time>2016-03-29T12:09:20Z</time>
      </trkpt>
      <trkpt lat="45.16626" lon="0.39821">
        <ele>115</ele>
        <time>2016-03-29T12:09:24Z</time>
      </trkpt>
      <trkpt lat="45.16628" lon="0.39828">
        <ele>116</ele>
        <time>2016-03-29T12:09:29Z</time>
      </trkpt>
      <trkpt lat="45.16629" lon="0.39832">
        <ele>118</ele>
        <time>2016-03-29T12:09:35Z</time>
      </trkpt>
      <trkpt lat="45.16631" lon="0.39838">
        <ele>121</ele>
        <time>2016-03-29T12:09:39Z</time>
      </trkpt>
      <trkpt lat="45.16631" lon="0.39842">
        <ele>124</ele>
        <time>2016-03-29T12:09:44Z</time>
      </trkpt>
      <trkpt lat="45.16635" lon="0.3985">
        <ele>126</ele>
        <time>2016-03-29T12:09:48Z</time>
      </trkpt>
      <trkpt lat="45.16634" lon="0.39859">
        <ele>127</ele>
        <time>2016-03-29T12:09:52Z</time>
      </trkpt>
      <trkpt lat="45.16643" lon="0.39864">
        <ele>126</ele>
        <time>2016-03-29T12:09:56Z</time>
      </trkpt>
      <trkpt lat="45.16642" lon="0.3987">
        <ele>127</ele>
        <time>2016-03-29T12:10:00Z</time>
      </trkpt>
      <trkpt lat="45.1664" lon="0.39879">
        <ele>130</ele>
        <time>2016-03-29T12:10:05Z</time>
      </trkpt>
      <trkpt lat="45.16645" lon="0.39887">
        <ele>128</ele>
        <time>2016-03-29T12:10:09Z</time>
      </trkpt>
      <trkpt lat="45.16651" lon="0.39897">
        <ele>128</ele>
        <time>2016-03-29T12:10:14Z</time>
      </trkpt>
      <trkpt lat="45.16656" lon="0.39899">
        <ele>129</ele>
        <time>2016-03-29T12:10:18Z</time>
      </trkpt>
      <trkpt lat="45.1666" lon="0.399">
        <ele>127</ele>
        <time>2016-03-29T12:10:22Z</time>
      </trkpt>
      <trkpt lat="45.16665" lon="0.39903">
        <ele>127</ele>
        <time>2016-03-29T12:10:27Z</time>
      </trkpt>
      <trkpt lat="45.16669" lon="0.39903">
        <ele>129</ele>
        <time>2016-03-29T12:10:32Z</time>
      </trkpt>
      <trkpt lat="45.16663" lon="0.39902">
        <ele>126</ele>
        <time>2016-03-29T12:10:37Z</time>
      </trkpt>
      <trkpt lat="45.16666" lon="0.39897">
        <ele>125</ele>
        <time>2016-03-29T12:10:45Z</time>
      </trkpt>
      <trkpt lat="45.16671" lon="0.39896">
        <ele>127</ele>
        <time>2016-03-29T12:10:49Z</time>
      </trkpt>
      <trkpt lat="45.16677" lon="0.39896">
        <ele>126</ele>
        <time>2016-03-29T12:10:53Z</time>
      </trkpt>
      <trkpt lat="45.16681" lon="0.39889">
        <ele>129</ele>
        <time>2016-03-29T12:10:57Z</time>
      </trkpt>
      <trkpt lat="45.16684" lon="0.39888">
        <ele>131</ele>
        <time>2016-03-29T12:11:06Z</time>
      </trkpt>
      <trkpt lat="45.16688" lon="0.39888">
        <ele>132</ele>
        <time>2016-03-29T12:11:10Z</time>
      </trkpt>
      <trkpt lat="45.16693" lon="0.39886">
        <ele>132</ele>
        <time>2016-03-29T12:11:15Z</time>
      </trkpt>
      <trkpt lat="45.16697" lon="0.39885">
        <ele>135</ele>
        <time>2016-03-29T12:11:21Z</time>
      </trkpt>
      <trkpt lat="45.16703" lon="0.39885">
        <ele>137</ele>
        <time>2016-03-29T12:11:26Z</time>
      </trkpt>
      <trkpt lat="45.16706" lon="0.39881">
        <ele>135</ele>
        <time>2016-03-29T12:11:30Z</time>
      </trkpt>
      <trkpt lat="45.16711" lon="0.3988">
        <ele>136</ele>
        <time>2016-03-29T12:11:35Z</time>
      </trkpt>
      <trkpt lat="45.16717" lon="0.39875">
        <ele>135</ele>
        <time>2016-03-29T12:11:40Z</time>
      </trkpt>
      <trkpt lat="45.16721" lon="0.39871">
        <ele>135</ele>
        <time>2016-03-29T12:11:44Z</time>
      </trkpt>
      <trkpt lat="45.16725" lon="0.39867">
        <ele>135</ele>
        <time>2016-03-29T12:11:48Z</time>
      </trkpt>
      <trkpt lat="45.1673" lon="0.39863">
        <ele>135</ele>
        <time>2016-03-29T12:11:53Z</time>
      </trkpt>
      <trkpt lat="45.16736" lon="0.39859">
        <ele>133</ele>
        <time>2016-03-29T12:11:58Z</time>
      </trkpt>
      <trkpt lat="45.16741" lon="0.3986">
        <ele>134</ele>
        <time>2016-03-29T12:12:02Z</time>
      </trkpt>
      <trkpt lat="45.16745" lon="0.39859">
        <ele>133</ele>
        <time>2016-03-29T12:12:06Z</time>
      </trkpt>
      <trkpt lat="45.16749" lon="0.39859">
        <ele>136</ele>
        <time>2016-03-29T12:12:12Z</time>
      </trkpt>
      <trkpt lat="45.16754" lon="0.39856">
        <ele>136</ele>
        <time>2016-03-29T12:12:17Z</time>
      </trkpt>
      <trkpt lat="45.16756" lon="0.39858">
        <ele>138</ele>
        <time>2016-03-29T12:12:21Z</time>
      </trkpt>
      <trkpt lat="45.16763" lon="0.39854">
        <ele>136</ele>
        <time>2016-03-29T12:12:25Z</time>
      </trkpt>
      <trkpt lat="45.16765" lon="0.39852">
        <ele>137</ele>
        <time>2016-03-29T12:12:30Z</time>
      </trkpt>
      <trkpt lat="45.16767" lon="0.39845">
        <ele>135</ele>
        <time>2016-03-29T12:12:35Z</time>
      </trkpt>
      <trkpt lat="45.16771" lon="0.39845">
        <ele>127</ele>
        <time>2016-03-29T12:13:02Z</time>
      </trkpt>
      <trkpt lat="45.16776" lon="0.39844">
        <ele>119</ele>
        <time>2016-03-29T12:13:34Z</time>
      </trkpt>
      <trkpt lat="45.16778" lon="0.39849">
        <ele>127</ele>
        <time>2016-03-29T12:13:39Z</time>
      </trkpt>
      <trkpt lat="45.16782" lon="0.39851">
        <ele>132</ele>
        <time>2016-03-29T12:13:43Z</time>
      </trkpt>
      <trkpt lat="45.16787" lon="0.39853">
        <ele>135</ele>
        <time>2016-03-29T12:13:47Z</time>
      </trkpt>
      <trkpt lat="45.16787" lon="0.39862">
        <ele>140</ele>
        <time>2016-03-29T12:13:52Z</time>
      </trkpt>
      <trkpt lat="45.16788" lon="0.39869">
        <ele>145</ele>
        <time>2016-03-29T12:13:56Z</time>
      </trkpt>
      <trkpt lat="45.16794" lon="0.39872">
        <ele>146</ele>
        <time>2016-03-29T12:14:00Z</time>
      </trkpt>
      <trkpt lat="45.168" lon="0.39875">
        <ele>146</ele>
        <time>2016-03-29T12:14:05Z</time>
      </trkpt>
      <trkpt lat="45.16804" lon="0.39877">
        <ele>148</ele>
        <time>2016-03-29T12:14:10Z</time>
      </trkpt>
      <trkpt lat="45.16812" lon="0.39876">
        <ele>149</ele>
        <time>2016-03-29T12:14:15Z</time>
      </trkpt>
      <trkpt lat="45.16816" lon="0.39873">
        <ele>149</ele>
        <time>2016-03-29T12:14:20Z</time>
      </trkpt>
      <trkpt lat="45.16824" lon="0.39875">
        <ele>146</ele>
        <time>2016-03-29T12:14:24Z</time>
      </trkpt>
      <trkpt lat="45.16835" lon="0.39874">
        <ele>145</ele>
        <time>2016-03-29T12:14:29Z</time>
      </trkpt>
      <trkpt lat="45.16839" lon="0.39878">
        <ele>145</ele>
        <time>2016-03-29T12:14:33Z</time>
      </trkpt>
      <trkpt lat="45.16845" lon="0.39881">
        <ele>150</ele>
        <time>2016-03-29T12:14:38Z</time>
      </trkpt>
      <trkpt lat="45.16848" lon="0.39885">
        <ele>154</ele>
        <time>2016-03-29T12:14:44Z</time>
      </trkpt>
      <trkpt lat="45.16854" lon="0.39887">
        <ele>156</ele>
        <time>2016-03-29T12:14:49Z</time>
      </trkpt>
      <trkpt lat="45.16859" lon="0.39889">
        <ele>155</ele>
        <time>2016-03-29T12:14:53Z</time>
      </trkpt>
      <trkpt lat="45.16863" lon="0.39893">
        <ele>159</ele>
        <time>2016-03-29T12:14:58Z</time>
      </trkpt>
      <trkpt lat="45.16866" lon="0.39895">
        <ele>160</ele>
        <time>2016-03-29T12:15:02Z</time>
      </trkpt>
      <trkpt lat="45.16874" lon="0.39895">
        <ele>161</ele>
        <time>2016-03-29T12:15:07Z</time>
      </trkpt>
      <trkpt lat="45.16878" lon="0.39897">
        <ele>161</ele>
        <time>2016-03-29T12:15:11Z</time>
      </trkpt>
      <trkpt lat="45.16885" lon="0.39899">
        <ele>160</ele>
        <time>2016-03-29T12:15:15Z</time>
      </trkpt>
      <trkpt lat="45.1689" lon="0.39904">
        <ele>160</ele>
        <time>2016-03-29T12:15:20Z</time>
      </trkpt>
      <trkpt lat="45.16895" lon="0.39908">
        <ele>162</ele>
        <time>2016-03-29T12:15:24Z</time>
      </trkpt>
      <trkpt lat="45.16898" lon="0.39912">
        <ele>162</ele>
        <time>2016-03-29T12:15:30Z</time>
      </trkpt>
      <trkpt lat="45.16903" lon="0.39915">
        <ele>163</ele>
        <time>2016-03-29T12:15:34Z</time>
      </trkpt>
      <trkpt lat="45.16916" lon="0.39923">
        <ele>163</ele>
        <time>2016-03-29T12:15:39Z</time>
      </trkpt>
      <trkpt lat="45.16923" lon="0.39929">
        <ele>162</ele>
        <time>2016-03-29T12:15:43Z</time>
      </trkpt>
      <trkpt lat="45.16929" lon="0.39937">
        <ele>162</ele>
        <time>2016-03-29T12:15:48Z</time>
      </trkpt>
      <trkpt lat="45.16934" lon="0.39938">
        <ele>161</ele>
        <time>2016-03-29T12:15:52Z</time>
      </trkpt>
      <trkpt lat="45.16939" lon="0.39939">
        <ele>162</ele>
        <time>2016-03-29T12:15:56Z</time>
      </trkpt>
      <trkpt lat="45.16945" lon="0.39944">
        <ele>161</ele>
        <time>2016-03-29T12:16:00Z</time>
      </trkpt>
      <trkpt lat="45.16952" lon="0.39945">
        <ele>162</ele>
        <time>2016-03-29T12:16:05Z</time>
      </trkpt>
      <trkpt lat="45.16956" lon="0.39946">
        <ele>160</ele>
        <time>2016-03-29T12:16:09Z</time>
      </trkpt>
      <trkpt lat="45.16965" lon="0.39946">
        <ele>159</ele>
        <time>2016-03-29T12:16:13Z</time>
      </trkpt>
      <trkpt lat="45.16971" lon="0.39945">
        <ele>160</ele>
        <time>2016-03-29T12:16:18Z</time>
      </trkpt>
      <trkpt lat="45.16976" lon="0.39945">
        <ele>162</ele>
        <time>2016-03-29T12:16:22Z</time>
      </trkpt>
      <trkpt lat="45.16983" lon="0.39947">
        <ele>164</ele>
        <time>2016-03-29T12:16:26Z</time>
      </trkpt>
      <trkpt lat="45.16989" lon="0.3995">
        <ele>168</ele>
        <time>2016-03-29T12:16:31Z</time>
      </trkpt>
      <trkpt lat="45.16993" lon="0.39954">
        <ele>170</ele>
        <time>2016-03-29T12:16:36Z</time>
      </trkpt>
      <trkpt lat="45.17002" lon="0.39956">
        <ele>169</ele>
        <time>2016-03-29T12:16:40Z</time>
      </trkpt>
      <trkpt lat="45.1701" lon="0.39958">
        <ele>168</ele>
        <time>2016-03-29T12:16:45Z</time>
      </trkpt>
      <trkpt lat="45.17013" lon="0.39962">
        <ele>165</ele>
        <time>2016-03-29T12:16:49Z</time>
      </trkpt>
      <trkpt lat="45.17021" lon="0.39965">
        <ele>163</ele>
        <time>2016-03-29T12:16:53Z</time>
      </trkpt>
      <trkpt lat="45.17026" lon="0.39965">
        <ele>168</ele>
        <time>2016-03-29T12:16:58Z</time>
      </trkpt>
      <trkpt lat="45.17028" lon="0.3997">
        <ele>169</ele>
        <time>2016-03-29T12:17:05Z</time>
      </trkpt>
      <trkpt lat="45.17032" lon="0.39975">
        <ele>170</ele>
        <time>2016-03-29T12:17:10Z</time>
      </trkpt>
      <trkpt lat="45.17036" lon="0.39981">
        <ele>171</ele>
        <time>2016-03-29T12:17:15Z</time>
      </trkpt>
      <trkpt lat="45.17042" lon="0.39984">
        <ele>172</ele>
        <time>2016-03-29T12:17:19Z</time>
      </trkpt>
      <trkpt lat="45.17045" lon="0.39985">
        <ele>171</ele>
        <time>2016-03-29T12:17:23Z</time>
      </trkpt>
      <trkpt lat="45.17054" lon="0.3999">
        <ele>173</ele>
        <time>2016-03-29T12:17:28Z</time>
      </trkpt>
      <trkpt lat="45.1706" lon="0.3999">
        <ele>170</ele>
        <time>2016-03-29T12:17:32Z</time>
      </trkpt>
      <trkpt lat="45.17065" lon="0.39989">
        <ele>173</ele>
        <time>2016-03-29T12:17:36Z</time>
      </trkpt>
      <trkpt lat="45.17069" lon="0.39993">
        <ele>172</ele>
        <time>2016-03-29T12:17:40Z</time>
      </trkpt>
      <trkpt lat="45.17071" lon="0.39997">
        <ele>172</ele>
        <time>2016-03-29T12:17:46Z</time>
      </trkpt>
      <trkpt lat="45.17078" lon="0.4">
        <ele>172</ele>
        <time>2016-03-29T12:17:50Z</time>
      </trkpt>
      <trkpt lat="45.17083" lon="0.40003">
        <ele>168</ele>
        <time>2016-03-29T12:17:54Z</time>
      </trkpt>
      <trkpt lat="45.17085" lon="0.40005">
        <ele>167</ele>
        <time>2016-03-29T12:18:08Z</time>
      </trkpt>
      <trkpt lat="45.17095" lon="0.40015">
        <ele>169</ele>
        <time>2016-03-29T12:18:13Z</time>
      </trkpt>
      <trkpt lat="45.171" lon="0.40015">
        <ele>171</ele>
        <time>2016-03-29T12:18:17Z</time>
      </trkpt>
      <trkpt lat="45.17107" lon="0.40017">
        <ele>171</ele>
        <time>2016-03-29T12:18:21Z</time>
      </trkpt>
      <trkpt lat="45.17111" lon="0.40019">
        <ele>173</ele>
        <time>2016-03-29T12:18:26Z</time>
      </trkpt>
      <trkpt lat="45.1712" lon="0.40023">
        <ele>175</ele>
        <time>2016-03-29T12:18:30Z</time>
      </trkpt>
      <trkpt lat="45.17126" lon="0.40028">
        <ele>176</ele>
        <time>2016-03-29T12:18:34Z</time>
      </trkpt>
      <trkpt lat="45.1713" lon="0.40028">
        <ele>175</ele>
        <time>2016-03-29T12:18:39Z</time>
      </trkpt>
      <trkpt lat="45.17135" lon="0.40029">
        <ele>175</ele>
        <time>2016-03-29T12:18:43Z</time>
      </trkpt>
      <trkpt lat="45.17138" lon="0.40026">
        <ele>179</ele>
        <time>2016-03-29T12:18:48Z</time>
      </trkpt>
      <trkpt lat="45.17143" lon="0.40029">
        <ele>180</ele>
        <time>2016-03-29T12:18:52Z</time>
      </trkpt>
      <trkpt lat="45.17149" lon="0.40034">
        <ele>180</ele>
        <time>2016-03-29T12:18:57Z</time>
      </trkpt>
      <trkpt lat="45.17152" lon="0.40036">
        <ele>179</ele>
        <time>2016-03-29T12:19:02Z</time>
      </trkpt>
      <trkpt lat="45.17157" lon="0.40037">
        <ele>181</ele>
        <time>2016-03-29T12:19:07Z</time>
      </trkpt>
      <trkpt lat="45.17162" lon="0.40039">
        <ele>180</ele>
        <time>2016-03-29T12:19:11Z</time>
      </trkpt>
      <trkpt lat="45.17168" lon="0.40045">
        <ele>176</ele>
        <time>2016-03-29T12:19:16Z</time>
      </trkpt>
      <trkpt lat="45.17172" lon="0.40046">
        <ele>174</ele>
        <time>2016-03-29T12:19:20Z</time>
      </trkpt>
      <trkpt lat="45.17176" lon="0.40045">
        <ele>173</ele>
        <time>2016-03-29T12:19:25Z</time>
      </trkpt>
      <trkpt lat="45.17186" lon="0.40047">
        <ele>174</ele>
        <time>2016-03-29T12:19:29Z</time>
      </trkpt>
      <trkpt lat="45.17192" lon="0.4005">
        <ele>175</ele>
        <time>2016-03-29T12:19:33Z</time>
      </trkpt>
      <trkpt lat="45.17198" lon="0.40053">
        <ele>176</ele>
        <time>2016-03-29T12:19:38Z</time>
      </trkpt>
      <trkpt lat="45.17202" lon="0.40055">
        <ele>179</ele>
        <time>2016-03-29T12:19:43Z</time>
      </trkpt>
      <trkpt lat="45.17208" lon="0.40063">
        <ele>180</ele>
        <time>2016-03-29T12:19:48Z</time>
      </trkpt>
      <trkpt lat="45.17213" lon="0.4006">
        <ele>182</ele>
        <time>2016-03-29T12:19:52Z</time>
      </trkpt>
      <trkpt lat="45.1722" lon="0.40059">
        <ele>182</ele>
        <time>2016-03-29T12:19:57Z</time>
      </trkpt>
      <trkpt lat="45.17224" lon="0.40056">
        <ele>181</ele>
        <time>2016-03-29T12:20:03Z</time>
      </trkpt>
      <trkpt lat="45.17226" lon="0.40059">
        <ele>182</ele>
        <time>2016-03-29T12:20:08Z</time>
      </trkpt>
      <trkpt lat="45.17233" lon="0.4006">
        <ele>183</ele>
        <time>2016-03-29T12:20:12Z</time>
      </trkpt>
      <trkpt lat="45.17242" lon="0.40062">
        <ele>181</ele>
        <time>2016-03-29T12:20:16Z</time>
      </trkpt>
      <trkpt lat="45.17251" lon="0.4006">
        <ele>181</ele>
        <time>2016-03-29T12:20:21Z</time>
      </trkpt>
      <trkpt lat="45.17258" lon="0.40054">
        <ele>175</ele>
        <time>2016-03-29T12:20:26Z</time>
      </trkpt>
      <trkpt lat="45.17266" lon="0.40056">
        <ele>175</ele>
        <time>2016-03-29T12:20:30Z</time>
      </trkpt>
      <trkpt lat="45.17268" lon="0.40052">
        <ele>176</ele>
        <time>2016-03-29T12:20:38Z</time>
      </trkpt>
      <trkpt lat="45.17268" lon="0.40046">
        <ele>176</ele>
        <time>2016-03-29T12:20:43Z</time>
      </trkpt>
      <trkpt lat="45.17271" lon="0.40053">
        <ele>177</ele>
        <time>2016-03-29T12:20:47Z</time>
      </trkpt>
      <trkpt lat="45.17273" lon="0.4006">
        <ele>180</ele>
        <time>2016-03-29T12:20:52Z</time>
      </trkpt>
      <trkpt lat="45.1727" lon="0.40068">
        <ele>182</ele>
        <time>2016-03-29T12:20:57Z</time>
      </trkpt>
      <trkpt lat="45.17271" lon="0.40074">
        <ele>185</ele>
        <time>2016-03-29T12:21:02Z</time>
      </trkpt>
      <trkpt lat="45.17272" lon="0.40079">
        <ele>183</ele>
        <time>2016-03-29T12:21:06Z</time>
      </trkpt>
      <trkpt lat="45.17274" lon="0.40088">
        <ele>181</ele>
        <time>2016-03-29T12:21:10Z</time>
      </trkpt>
      <trkpt lat="45.17273" lon="0.401">
        <ele>177</ele>
        <time>2016-03-29T12:21:15Z</time>
      </trkpt>
      <trkpt lat="45.17271" lon="0.40103">
        <ele>176</ele>
        <time>2016-03-29T12:21:22Z</time>
      </trkpt>
      <trkpt lat="45.17268" lon="0.40109">
        <ele>176</ele>
        <time>2016-03-29T12:21:26Z</time>
      </trkpt>
      <trkpt lat="45.17261" lon="0.40113">
        <ele>175</ele>
        <time>2016-03-29T12:21:30Z</time>
      </trkpt>
      <trkpt lat="45.17259" lon="0.40119">
        <ele>175</ele>
        <time>2016-03-29T12:21:34Z</time>
      </trkpt>
      <trkpt lat="45.17255" lon="0.40123">
        <ele>177</ele>
        <time>2016-03-29T12:21:38Z</time>
      </trkpt>
      <trkpt lat="45.17247" lon="0.4013">
        <ele>177</ele>
        <time>2016-03-29T12:21:43Z</time>
      </trkpt>
      <trkpt lat="45.17246" lon="0.40141">
        <ele>176</ele>
        <time>2016-03-29T12:21:47Z</time>
      </trkpt>
      <trkpt lat="45.17243" lon="0.4015">
        <ele>178</ele>
        <time>2016-03-29T12:21:52Z</time>
      </trkpt>
      <trkpt lat="45.17242" lon="0.40157">
        <ele>176</ele>
        <time>2016-03-29T12:21:56Z</time>
      </trkpt>
      <trkpt lat="45.17241" lon="0.40164">
        <ele>173</ele>
        <time>2016-03-29T12:22:00Z</time>
      </trkpt>
      <trkpt lat="45.17239" lon="0.40172">
        <ele>171</ele>
        <time>2016-03-29T12:22:04Z</time>
      </trkpt>
      <trkpt lat="45.17234" lon="0.40176">
        <ele>168</ele>
        <time>2016-03-29T12:22:09Z</time>
      </trkpt>
      <trkpt lat="45.17234" lon="0.40179">
        <ele>169</ele>
        <time>2016-03-29T12:22:16Z</time>
      </trkpt>
      <trkpt lat="45.17234" lon="0.40186">
        <ele>168</ele>
        <time>2016-03-29T12:22:20Z</time>
      </trkpt>
      <trkpt lat="45.17226" lon="0.4019">
        <ele>172</ele>
        <time>2016-03-29T12:22:24Z</time>
      </trkpt>
      <trkpt lat="45.17216" lon="0.40196">
        <ele>173</ele>
        <time>2016-03-29T12:22:29Z</time>
      </trkpt>
      <trkpt lat="45.17211" lon="0.40202">
        <ele>171</ele>
        <time>2016-03-29T12:22:33Z</time>
      </trkpt>
      <trkpt lat="45.17207" lon="0.4021">
        <ele>174</ele>
        <time>2016-03-29T12:22:38Z</time>
      </trkpt>
      <trkpt lat="45.1721" lon="0.40213">
        <ele>175</ele>
        <time>2016-03-29T12:22:44Z</time>
      </trkpt>
      <trkpt lat="45.17206" lon="0.4022">
        <ele>174</ele>
        <time>2016-03-29T12:22:48Z</time>
      </trkpt>
      <trkpt lat="45.17205" lon="0.40224">
        <ele>174</ele>
        <time>2016-03-29T12:22:52Z</time>
      </trkpt>
      <trkpt lat="45.17206" lon="0.40233">
        <ele>170</ele>
        <time>2016-03-29T12:22:57Z</time>
      </trkpt>
      <trkpt lat="45.17204" lon="0.40235">
        <ele>171</ele>
        <time>2016-03-29T12:23:01Z</time>
      </trkpt>
      <trkpt lat="45.17198" lon="0.40241">
        <ele>168</ele>
        <time>2016-03-29T12:23:05Z</time>
      </trkpt>
      <trkpt lat="45.17199" lon="0.40246">
        <ele>167</ele>
        <time>2016-03-29T12:23:09Z</time>
      </trkpt>
      <trkpt lat="45.172" lon="0.40254">
        <ele>165</ele>
        <time>2016-03-29T12:23:13Z</time>
      </trkpt>
      <trkpt lat="45.17194" lon="0.40257">
        <ele>164</ele>
        <time>2016-03-29T12:23:17Z</time>
      </trkpt>
      <trkpt lat="45.17184" lon="0.40262">
        <ele>162</ele>
        <time>2016-03-29T12:23:21Z</time>
      </trkpt>
      <trkpt lat="45.17179" lon="0.40266">
        <ele>164</ele>
        <time>2016-03-29T12:23:26Z</time>
      </trkpt>
      <trkpt lat="45.17175" lon="0.40276">
        <ele>162</ele>
        <time>2016-03-29T12:23:31Z</time>
      </trkpt>
      <trkpt lat="45.17168" lon="0.40282">
        <ele>162</ele>
        <time>2016-03-29T12:23:36Z</time>
      </trkpt>
      <trkpt lat="45.17167" lon="0.40287">
        <ele>165</ele>
        <time>2016-03-29T12:23:40Z</time>
      </trkpt>
      <trkpt lat="45.17164" lon="0.4029">
        <ele>165</ele>
        <time>2016-03-29T12:23:44Z</time>
      </trkpt>
      <trkpt lat="45.17166" lon="0.40297">
        <ele>163</ele>
        <time>2016-03-29T12:23:48Z</time>
      </trkpt>
      <trkpt lat="45.17169" lon="0.40302">
        <ele>160</ele>
        <time>2016-03-29T12:23:54Z</time>
      </trkpt>
      <trkpt lat="45.1716" lon="0.40307">
        <ele>160</ele>
        <time>2016-03-29T12:23:58Z</time>
      </trkpt>
      <trkpt lat="45.17156" lon="0.40316">
        <ele>155</ele>
        <time>2016-03-29T12:24:02Z</time>
      </trkpt>
      <trkpt lat="45.17144" lon="0.40322">
        <ele>160</ele>
        <time>2016-03-29T12:24:06Z</time>
      </trkpt>
      <trkpt lat="45.17145" lon="0.40327">
        <ele>160</ele>
        <time>2016-03-29T12:24:12Z</time>
      </trkpt>
      <trkpt lat="45.17143" lon="0.40332">
        <ele>164</ele>
        <time>2016-03-29T12:24:17Z</time>
      </trkpt>
      <trkpt lat="45.17139" lon="0.40343">
        <ele>160</ele>
        <time>2016-03-29T12:24:22Z</time>
      </trkpt>
      <trkpt lat="45.17137" lon="0.40345">
        <ele>157</ele>
        <time>2016-03-29T12:24:26Z</time>
      </trkpt>
      <trkpt lat="45.17133" lon="0.40352">
        <ele>160</ele>
        <time>2016-03-29T12:24:30Z</time>
      </trkpt>
      <trkpt lat="45.17132" lon="0.40359">
        <ele>161</ele>
        <time>2016-03-29T12:24:34Z</time>
      </trkpt>
      <trkpt lat="45.1713" lon="0.40366">
        <ele>160</ele>
        <time>2016-03-29T12:24:38Z</time>
      </trkpt>
      <trkpt lat="45.17129" lon="0.40371">
        <ele>161</ele>
        <time>2016-03-29T12:24:43Z</time>
      </trkpt>
      <trkpt lat="45.17127" lon="0.40379">
        <ele>164</ele>
        <time>2016-03-29T12:24:47Z</time>
      </trkpt>
      <trkpt lat="45.17122" lon="0.40387">
        <ele>163</ele>
        <time>2016-03-29T12:24:51Z</time>
      </trkpt>
      <trkpt lat="45.1712" lon="0.40395">
        <ele>160</ele>
        <time>2016-03-29T12:24:55Z</time>
      </trkpt>
      <trkpt lat="45.1712" lon="0.4041">
        <ele>155</ele>
        <time>2016-03-29T12:25:00Z</time>
      </trkpt>
      <trkpt lat="45.17116" lon="0.40417">
        <ele>157</ele>
        <time>2016-03-29T12:25:04Z</time>
      </trkpt>
      <trkpt lat="45.17119" lon="0.40425">
        <ele>158</ele>
        <time>2016-03-29T12:25:09Z</time>
      </trkpt>
      <trkpt lat="45.17121" lon="0.40432">
        <ele>155</ele>
        <time>2016-03-29T12:25:13Z</time>
      </trkpt>
      <trkpt lat="45.17119" lon="0.40438">
        <ele>157</ele>
        <time>2016-03-29T12:25:18Z</time>
      </trkpt>
      <trkpt lat="45.17119" lon="0.40443">
        <ele>154</ele>
        <time>2016-03-29T12:25:22Z</time>
      </trkpt>
      <trkpt lat="45.17118" lon="0.40449">
        <ele>153</ele>
        <time>2016-03-29T12:25:28Z</time>
      </trkpt>
      <trkpt lat="45.17113" lon="0.40454">
        <ele>153</ele>
        <time>2016-03-29T12:25:32Z</time>
      </trkpt>
      <trkpt lat="45.17111" lon="0.40462">
        <ele>155</ele>
        <time>2016-03-29T12:25:36Z</time>
      </trkpt>
      <trkpt lat="45.17111" lon="0.40467">
        <ele>156</ele>
        <time>2016-03-29T12:25:40Z</time>
      </trkpt>
      <trkpt lat="45.17112" lon="0.40473">
        <ele>156</ele>
        <time>2016-03-29T12:25:44Z</time>
      </trkpt>
      <trkpt lat="45.17113" lon="0.40478">
        <ele>156</ele>
        <time>2016-03-29T12:25:48Z</time>
      </trkpt>
      <trkpt lat="45.17115" lon="0.40487">
        <ele>156</ele>
        <time>2016-03-29T12:25:53Z</time>
      </trkpt>
      <trkpt lat="45.17116" lon="0.40497">
        <ele>155</ele>
        <time>2016-03-29T12:25:57Z</time>
      </trkpt>
      <trkpt lat="45.17115" lon="0.40502">
        <ele>153</ele>
        <time>2016-03-29T12:26:00Z</time>
      </trkpt>
      <trkpt lat="45.1711" lon="0.40506">
        <ele>153</ele>
        <time>2016-03-29T12:26:04Z</time>
      </trkpt>
      <trkpt lat="45.17112" lon="0.40512">
        <ele>149</ele>
        <time>2016-03-29T12:26:13Z</time>
      </trkpt>
      <trkpt lat="45.17113" lon="0.40518">
        <ele>145</ele>
        <time>2016-03-29T12:26:37Z</time>
      </trkpt>
      <trkpt lat="45.17115" lon="0.40523">
        <ele>143</ele>
        <time>2016-03-29T12:27:01Z</time>
      </trkpt>
      <trkpt lat="45.17119" lon="0.40529">
        <ele>142</ele>
        <time>2016-03-29T12:27:05Z</time>
      </trkpt>
      <trkpt lat="45.17113" lon="0.40535">
        <ele>142</ele>
        <time>2016-03-29T12:27:10Z</time>
      </trkpt>
      <trkpt lat="45.17108" lon="0.40542">
        <ele>142</ele>
        <time>2016-03-29T12:27:14Z</time>
      </trkpt>
      <trkpt lat="45.17102" lon="0.40555">
        <ele>140</ele>
        <time>2016-03-29T12:27:19Z</time>
      </trkpt>
      <trkpt lat="45.17095" lon="0.40566">
        <ele>140</ele>
        <time>2016-03-29T12:27:24Z</time>
      </trkpt>
      <trkpt lat="45.17093" lon="0.40575">
        <ele>145</ele>
        <time>2016-03-29T12:27:29Z</time>
      </trkpt>
      <trkpt lat="45.171" lon="0.40585">
        <ele>146</ele>
        <time>2016-03-29T12:27:33Z</time>
      </trkpt>
      <trkpt lat="45.17106" lon="0.406">
        <ele>143</ele>
        <time>2016-03-29T12:27:38Z</time>
      </trkpt>
      <trkpt lat="45.17111" lon="0.40614">
        <ele>140</ele>
        <time>2016-03-29T12:27:43Z</time>
      </trkpt>
      <trkpt lat="45.17109" lon="0.40622">
        <ele>141</ele>
        <time>2016-03-29T12:27:47Z</time>
      </trkpt>
      <trkpt lat="45.17112" lon="0.4063">
        <ele>141</ele>
        <time>2016-03-29T12:27:52Z</time>
      </trkpt>
      <trkpt lat="45.17113" lon="0.4064">
        <ele>140</ele>
        <time>2016-03-29T12:27:56Z</time>
      </trkpt>
      <trkpt lat="45.17118" lon="0.40644">
        <ele>139</ele>
        <time>2016-03-29T12:28:01Z</time>
      </trkpt>
      <trkpt lat="45.1712" lon="0.4065">
        <ele>139</ele>
        <time>2016-03-29T12:28:05Z</time>
      </trkpt>
      <trkpt lat="45.17121" lon="0.40655">
        <ele>141</ele>
        <time>2016-03-29T12:28:10Z</time>
      </trkpt>
      <trkpt lat="45.17124" lon="0.40663">
        <ele>141</ele>
        <time>2016-03-29T12:28:14Z</time>
      </trkpt>
      <trkpt lat="45.17123" lon="0.40668">
        <ele>141</ele>
        <time>2016-03-29T12:28:18Z</time>
      </trkpt>
      <trkpt lat="45.17121" lon="0.40676">
        <ele>140</ele>
        <time>2016-03-29T12:28:23Z</time>
      </trkpt>
      <trkpt lat="45.17117" lon="0.40681">
        <ele>140</ele>
        <time>2016-03-29T12:28:28Z</time>
      </trkpt>
      <trkpt lat="45.17114" lon="0.40684">
        <ele>140</ele>
        <time>2016-03-29T12:28:32Z</time>
      </trkpt>
      <trkpt lat="45.17117" lon="0.40693">
        <ele>132</ele>
        <time>2016-03-29T12:28:36Z</time>
      </trkpt>
      <trkpt lat="45.17115" lon="0.40703">
        <ele>130</ele>
        <time>2016-03-29T12:28:41Z</time>
      </trkpt>
      <trkpt lat="45.1711" lon="0.40708">
        <ele>128</ele>
        <time>2016-03-29T12:28:45Z</time>
      </trkpt>
      <trkpt lat="45.17107" lon="0.40712">
        <ele>126</ele>
        <time>2016-03-29T12:28:49Z</time>
      </trkpt>
      <trkpt lat="45.17105" lon="0.40717">
        <ele>126</ele>
        <time>2016-03-29T12:28:53Z</time>
      </trkpt>
      <trkpt lat="45.17099" lon="0.40723">
        <ele>125</ele>
        <time>2016-03-29T12:28:58Z</time>
      </trkpt>
      <trkpt lat="45.17095" lon="0.4073">
        <ele>123</ele>
        <time>2016-03-29T12:29:03Z</time>
      </trkpt>
      <trkpt lat="45.17088" lon="0.40733">
        <ele>124</ele>
        <time>2016-03-29T12:29:07Z</time>
      </trkpt>
      <trkpt lat="45.17085" lon="0.40736">
        <ele>122</ele>
        <time>2016-03-29T12:29:12Z</time>
      </trkpt>
      <trkpt lat="45.17081" lon="0.4074">
        <ele>123</ele>
        <time>2016-03-29T12:29:16Z</time>
      </trkpt>
      <trkpt lat="45.17078" lon="0.40746">
        <ele>125</ele>
        <time>2016-03-29T12:29:21Z</time>
      </trkpt>
      <trkpt lat="45.17074" lon="0.40753">
        <ele>123</ele>
        <time>2016-03-29T12:29:25Z</time>
      </trkpt>
      <trkpt lat="45.17066" lon="0.4076">
        <ele>123</ele>
        <time>2016-03-29T12:29:30Z</time>
      </trkpt>
      <trkpt lat="45.1706" lon="0.40766">
        <ele>122</ele>
        <time>2016-03-29T12:29:35Z</time>
      </trkpt>
      <trkpt lat="45.17059" lon="0.40771">
        <ele>120</ele>
        <time>2016-03-29T12:29:39Z</time>
      </trkpt>
      <trkpt lat="45.17057" lon="0.40779">
        <ele>117</ele>
        <time>2016-03-29T12:29:43Z</time>
      </trkpt>
      <trkpt lat="45.17051" lon="0.40785">
        <ele>116</ele>
        <time>2016-03-29T12:29:48Z</time>
      </trkpt>
      <trkpt lat="45.17046" lon="0.40789">
        <ele>115</ele>
        <time>2016-03-29T12:29:53Z</time>
      </trkpt>
      <trkpt lat="45.17042" lon="0.40794">
        <ele>116</ele>
        <time>2016-03-29T12:29:57Z</time>
      </trkpt>
      <trkpt lat="45.17039" lon="0.40799">
        <ele>114</ele>
        <time>2016-03-29T12:30:01Z</time>
      </trkpt>
      <trkpt lat="45.17035" lon="0.40803">
        <ele>113</ele>
        <time>2016-03-29T12:30:05Z</time>
      </trkpt>
      <trkpt lat="45.17028" lon="0.40809">
        <ele>117</ele>
        <time>2016-03-29T12:30:09Z</time>
      </trkpt>
      <trkpt lat="45.17024" lon="0.40812">
        <ele>120</ele>
        <time>2016-03-29T12:30:14Z</time>
      </trkpt>
      <trkpt lat="45.1702" lon="0.4082">
        <ele>121</ele>
        <time>2016-03-29T12:30:18Z</time>
      </trkpt>
      <trkpt lat="45.17021" lon="0.40828">
        <ele>121</ele>
        <time>2016-03-29T12:30:22Z</time>
      </trkpt>
      <trkpt lat="45.17025" lon="0.40837">
        <ele>119</ele>
        <time>2016-03-29T12:30:26Z</time>
      </trkpt>
      <trkpt lat="45.17033" lon="0.40842">
        <ele>117</ele>
        <time>2016-03-29T12:30:31Z</time>
      </trkpt>
      <trkpt lat="45.17036" lon="0.40849">
        <ele>117</ele>
        <time>2016-03-29T12:30:35Z</time>
      </trkpt>
      <trkpt lat="45.17039" lon="0.40856">
        <ele>118</ele>
        <time>2016-03-29T12:30:40Z</time>
      </trkpt>
      <trkpt lat="45.17041" lon="0.4086">
        <ele>117</ele>
        <time>2016-03-29T12:30:44Z</time>
      </trkpt>
      <trkpt lat="45.17043" lon="0.40868">
        <ele>116</ele>
        <time>2016-03-29T12:30:48Z</time>
      </trkpt>
      <trkpt lat="45.17047" lon="0.40874">
        <ele>117</ele>
        <time>2016-03-29T12:30:53Z</time>
      </trkpt>
      <trkpt lat="45.1705" lon="0.40879">
        <ele>117</ele>
        <time>2016-03-29T12:30:58Z</time>
      </trkpt>
      <trkpt lat="45.17052" lon="0.40886">
        <ele>117</ele>
        <time>2016-03-29T12:31:02Z</time>
      </trkpt>
      <trkpt lat="45.1705" lon="0.4089">
        <ele>121</ele>
        <time>2016-03-29T12:31:06Z</time>
      </trkpt>
      <trkpt lat="45.17052" lon="0.40896">
        <ele>123</ele>
        <time>2016-03-29T12:31:10Z</time>
      </trkpt>
      <trkpt lat="45.17053" lon="0.40902">
        <ele>124</ele>
        <time>2016-03-29T12:31:14Z</time>
      </trkpt>
      <trkpt lat="45.17057" lon="0.40911">
        <ele>120</ele>
        <time>2016-03-29T12:31:19Z</time>
      </trkpt>
      <trkpt lat="45.17058" lon="0.40917">
        <ele>121</ele>
        <time>2016-03-29T12:31:23Z</time>
      </trkpt>
      <trkpt lat="45.17062" lon="0.40924">
        <ele>119</ele>
        <time>2016-03-29T12:31:27Z</time>
      </trkpt>
      <trkpt lat="45.1706" lon="0.40931">
        <ele>124</ele>
        <time>2016-03-29T12:31:32Z</time>
      </trkpt>
      <trkpt lat="45.17062" lon="0.40939">
        <ele>123</ele>
        <time>2016-03-29T12:31:37Z</time>
      </trkpt>
      <trkpt lat="45.1706" lon="0.40947">
        <ele>126</ele>
        <time>2016-03-29T12:31:42Z</time>
      </trkpt>
      <trkpt lat="45.17061" lon="0.40955">
        <ele>126</ele>
        <time>2016-03-29T12:31:46Z</time>
      </trkpt>
      <trkpt lat="45.17062" lon="0.4096">
        <ele>130</ele>
        <time>2016-03-29T12:31:52Z</time>
      </trkpt>
      <trkpt lat="45.17066" lon="0.40969">
        <ele>128</ele>
        <time>2016-03-29T12:31:57Z</time>
      </trkpt>
      <trkpt lat="45.17068" lon="0.40975">
        <ele>128</ele>
        <time>2016-03-29T12:32:01Z</time>
      </trkpt>
      <trkpt lat="45.1707" lon="0.4098">
        <ele>131</ele>
        <time>2016-03-29T12:32:06Z</time>
      </trkpt>
      <trkpt lat="45.17072" lon="0.40987">
        <ele>135</ele>
        <time>2016-03-29T12:32:11Z</time>
      </trkpt>
      <trkpt lat="45.17069" lon="0.40994">
        <ele>139</ele>
        <time>2016-03-29T12:32:15Z</time>
      </trkpt>
      <trkpt lat="45.17071" lon="0.41004">
        <ele>136</ele>
        <time>2016-03-29T12:32:20Z</time>
      </trkpt>
      <trkpt lat="45.17075" lon="0.41009">
        <ele>133</ele>
        <time>2016-03-29T12:32:24Z</time>
      </trkpt>
      <trkpt lat="45.17079" lon="0.41019">
        <ele>129</ele>
        <time>2016-03-29T12:32:29Z</time>
      </trkpt>
      <trkpt lat="45.17085" lon="0.41023">
        <ele>125</ele>
        <time>2016-03-29T12:32:33Z</time>
      </trkpt>
      <trkpt lat="45.17085" lon="0.41029">
        <ele>129</ele>
        <time>2016-03-29T12:32:41Z</time>
      </trkpt>
      <trkpt lat="45.17088" lon="0.41034">
        <ele>125</ele>
        <time>2016-03-29T12:32:45Z</time>
      </trkpt>
      <trkpt lat="45.1709" lon="0.41044">
        <ele>123</ele>
        <time>2016-03-29T12:32:49Z</time>
      </trkpt>
      <trkpt lat="45.17094" lon="0.41054">
        <ele>123</ele>
        <time>2016-03-29T12:32:54Z</time>
      </trkpt>
      <trkpt lat="45.17097" lon="0.41062">
        <ele>125</ele>
        <time>2016-03-29T12:32:58Z</time>
      </trkpt>
      <trkpt lat="45.171" lon="0.41069">
        <ele>124</ele>
        <time>2016-03-29T12:33:02Z</time>
      </trkpt>
      <trkpt lat="45.17108" lon="0.41067">
        <ele>125</ele>
        <time>2016-03-29T12:33:07Z</time>
      </trkpt>
      <trkpt lat="45.17112" lon="0.41072">
        <ele>126</ele>
        <time>2016-03-29T12:33:11Z</time>
      </trkpt>
      <trkpt lat="45.17117" lon="0.41078">
        <ele>127</ele>
        <time>2016-03-29T12:33:15Z</time>
      </trkpt>
      <trkpt lat="45.17121" lon="0.41084">
        <ele>128</ele>
        <time>2016-03-29T12:33:20Z</time>
      </trkpt>
      <trkpt lat="45.17125" lon="0.41091">
        <ele>126</ele>
        <time>2016-03-29T12:33:24Z</time>
      </trkpt>
      <trkpt lat="45.17129" lon="0.41098">
        <ele>128</ele>
        <time>2016-03-29T12:33:29Z</time>
      </trkpt>
      <trkpt lat="45.17131" lon="0.41107">
        <ele>128</ele>
        <time>2016-03-29T12:33:34Z</time>
      </trkpt>
      <trkpt lat="45.17132" lon="0.41115">
        <ele>128</ele>
        <time>2016-03-29T12:33:38Z</time>
      </trkpt>
      <trkpt lat="45.17137" lon="0.41121">
        <ele>125</ele>
        <time>2016-03-29T12:33:42Z</time>
      </trkpt>
      <trkpt lat="45.17142" lon="0.41125">
        <ele>124</ele>
        <time>2016-03-29T12:33:46Z</time>
      </trkpt>
      <trkpt lat="45.17151" lon="0.41128">
        <ele>123</ele>
        <time>2016-03-29T12:33:51Z</time>
      </trkpt>
      <trkpt lat="45.17157" lon="0.4113">
        <ele>121</ele>
        <time>2016-03-29T12:33:56Z</time>
      </trkpt>
      <trkpt lat="45.17161" lon="0.41133">
        <ele>122</ele>
        <time>2016-03-29T12:34:02Z</time>
      </trkpt>
      <trkpt lat="45.17166" lon="0.41136">
        <ele>123</ele>
        <time>2016-03-29T12:34:07Z</time>
      </trkpt>
      <trkpt lat="45.17165" lon="0.41142">
        <ele>125</ele>
        <time>2016-03-29T12:34:11Z</time>
      </trkpt>
      <trkpt lat="45.17172" lon="0.41143">
        <ele>124</ele>
        <time>2016-03-29T12:34:16Z</time>
      </trkpt>
      <trkpt lat="45.17175" lon="0.41145">
        <ele>124</ele>
        <time>2016-03-29T12:34:20Z</time>
      </trkpt>
      <trkpt lat="45.17178" lon="0.41148">
        <ele>126</ele>
        <time>2016-03-29T12:34:25Z</time>
      </trkpt>
      <trkpt lat="45.17183" lon="0.41149">
        <ele>127</ele>
        <time>2016-03-29T12:34:30Z</time>
      </trkpt>
      <trkpt lat="45.17185" lon="0.41152">
        <ele>126</ele>
        <time>2016-03-29T12:34:35Z</time>
      </trkpt>
      <trkpt lat="45.1719" lon="0.41157">
        <ele>127</ele>
        <time>2016-03-29T12:34:39Z</time>
      </trkpt>
      <trkpt lat="45.17193" lon="0.41158">
        <ele>129</ele>
        <time>2016-03-29T12:34:44Z</time>
      </trkpt>
      <trkpt lat="45.17196" lon="0.41161">
        <ele>131</ele>
        <time>2016-03-29T12:34:50Z</time>
      </trkpt>
      <trkpt lat="45.17203" lon="0.41164">
        <ele>129</ele>
        <time>2016-03-29T12:34:55Z</time>
      </trkpt>
      <trkpt lat="45.17208" lon="0.41167">
        <ele>129</ele>
        <time>2016-03-29T12:34:59Z</time>
      </trkpt>
      <trkpt lat="45.17211" lon="0.41171">
        <ele>130</ele>
        <time>2016-03-29T12:35:03Z</time>
      </trkpt>
      <trkpt lat="45.17214" lon="0.41173">
        <ele>131</ele>
        <time>2016-03-29T12:35:07Z</time>
      </trkpt>
      <trkpt lat="45.17221" lon="0.41173">
        <ele>129</ele>
        <time>2016-03-29T12:35:11Z</time>
      </trkpt>
      <trkpt lat="45.17225" lon="0.41176">
        <ele>130</ele>
        <time>2016-03-29T12:35:15Z</time>
      </trkpt>
      <trkpt lat="45.1723" lon="0.41179">
        <ele>129</ele>
        <time>2016-03-29T12:35:19Z</time>
      </trkpt>
      <trkpt lat="45.17233" lon="0.41181">
        <ele>130</ele>
        <time>2016-03-29T12:35:23Z</time>
      </trkpt>
      <trkpt lat="45.17238" lon="0.41186">
        <ele>131</ele>
        <time>2016-03-29T12:35:28Z</time>
      </trkpt>
      <trkpt lat="45.17242" lon="0.41186">
        <ele>131</ele>
        <time>2016-03-29T12:35:32Z</time>
      </trkpt>
      <trkpt lat="45.17245" lon="0.41187">
        <ele>132</ele>
        <time>2016-03-29T12:35:36Z</time>
      </trkpt>
      <trkpt lat="45.17249" lon="0.4119">
        <ele>132</ele>
        <time>2016-03-29T12:35:41Z</time>
      </trkpt>
      <trkpt lat="45.17253" lon="0.4119">
        <ele>131</ele>
        <time>2016-03-29T12:35:46Z</time>
      </trkpt>
      <trkpt lat="45.17257" lon="0.41194">
        <ele>132</ele>
        <time>2016-03-29T12:35:50Z</time>
      </trkpt>
      <trkpt lat="45.17261" lon="0.41193">
        <ele>131</ele>
        <time>2016-03-29T12:35:54Z</time>
      </trkpt>
      <trkpt lat="45.17266" lon="0.41193">
        <ele>130</ele>
        <time>2016-03-29T12:35:59Z</time>
      </trkpt>
      <trkpt lat="45.1727" lon="0.41194">
        <ele>129</ele>
        <time>2016-03-29T12:36:04Z</time>
      </trkpt>
      <trkpt lat="45.17273" lon="0.41197">
        <ele>130</ele>
        <time>2016-03-29T12:36:10Z</time>
      </trkpt>
      <trkpt lat="45.17277" lon="0.41199">
        <ele>130</ele>
        <time>2016-03-29T12:36:15Z</time>
      </trkpt>
      <trkpt lat="45.17282" lon="0.412">
        <ele>131</ele>
        <time>2016-03-29T12:36:20Z</time>
      </trkpt>
      <trkpt lat="45.17285" lon="0.41202">
        <ele>133</ele>
        <time>2016-03-29T12:36:25Z</time>
      </trkpt>
      <trkpt lat="45.1729" lon="0.41203">
        <ele>133</ele>
        <time>2016-03-29T12:36:30Z</time>
      </trkpt>
      <trkpt lat="45.17294" lon="0.41206">
        <ele>133</ele>
        <time>2016-03-29T12:36:35Z</time>
      </trkpt>
      <trkpt lat="45.17298" lon="0.41209">
        <ele>133</ele>
        <time>2016-03-29T12:36:40Z</time>
      </trkpt>
      <trkpt lat="45.17301" lon="0.41211">
        <ele>134</ele>
        <time>2016-03-29T12:36:44Z</time>
      </trkpt>
      <trkpt lat="45.17305" lon="0.41214">
        <ele>135</ele>
        <time>2016-03-29T12:36:49Z</time>
      </trkpt>
      <trkpt lat="45.17305" lon="0.4122">
        <ele>137</ele>
        <time>2016-03-29T12:36:55Z</time>
      </trkpt>
      <trkpt lat="45.17311" lon="0.41221">
        <ele>137</ele>
        <time>2016-03-29T12:36:59Z</time>
      </trkpt>
      <trkpt lat="45.17314" lon="0.41225">
        <ele>139</ele>
        <time>2016-03-29T12:37:05Z</time>
      </trkpt>
      <trkpt lat="45.17317" lon="0.41229">
        <ele>142</ele>
        <time>2016-03-29T12:37:12Z</time>
      </trkpt>
      <trkpt lat="45.17319" lon="0.41232">
        <ele>143</ele>
        <time>2016-03-29T12:37:16Z</time>
      </trkpt>
      <trkpt lat="45.17323" lon="0.41235">
        <ele>142</ele>
        <time>2016-03-29T12:37:21Z</time>
      </trkpt>
      <trkpt lat="45.17326" lon="0.41239">
        <ele>144</ele>
        <time>2016-03-29T12:37:27Z</time>
      </trkpt>
      <trkpt lat="45.1733" lon="0.41242">
        <ele>144</ele>
        <time>2016-03-29T12:37:33Z</time>
      </trkpt>
      <trkpt lat="45.17334" lon="0.41244">
        <ele>144</ele>
        <time>2016-03-29T12:37:38Z</time>
      </trkpt>
      <trkpt lat="45.17336" lon="0.41248">
        <ele>143</ele>
        <time>2016-03-29T12:37:43Z</time>
      </trkpt>
      <trkpt lat="45.17339" lon="0.41251">
        <ele>146</ele>
        <time>2016-03-29T12:37:51Z</time>
      </trkpt>
      <trkpt lat="45.17342" lon="0.41256">
        <ele>154</ele>
        <time>2016-03-29T12:38:00Z</time>
      </trkpt>
      <trkpt lat="45.17346" lon="0.41258">
        <ele>155</ele>
        <time>2016-03-29T12:38:05Z</time>
      </trkpt>
      <trkpt lat="45.17349" lon="0.41263">
        <ele>155</ele>
        <time>2016-03-29T12:38:13Z</time>
      </trkpt>
      <trkpt lat="45.17353" lon="0.41264">
        <ele>156</ele>
        <time>2016-03-29T12:38:27Z</time>
      </trkpt>
      <trkpt lat="45.17358" lon="0.41272">
        <ele>157</ele>
        <time>2016-03-29T12:38:31Z</time>
      </trkpt>
      <trkpt lat="45.1736" lon="0.41277">
        <ele>158</ele>
        <time>2016-03-29T12:38:38Z</time>
      </trkpt>
      <trkpt lat="45.17366" lon="0.41279">
        <ele>161</ele>
        <time>2016-03-29T12:38:43Z</time>
      </trkpt>
      <trkpt lat="45.17369" lon="0.4128">
        <ele>165</ele>
        <time>2016-03-29T12:38:47Z</time>
      </trkpt>
      <trkpt lat="45.17375" lon="0.41286">
        <ele>161</ele>
        <time>2016-03-29T12:38:51Z</time>
      </trkpt>
      <trkpt lat="45.17377" lon="0.41291">
        <ele>161</ele>
        <time>2016-03-29T12:39:08Z</time>
      </trkpt>
      <trkpt lat="45.17383" lon="0.41296">
        <ele>160</ele>
        <time>2016-03-29T12:39:13Z</time>
      </trkpt>
      <trkpt lat="45.17386" lon="0.413">
        <ele>162</ele>
        <time>2016-03-29T12:39:19Z</time>
      </trkpt>
      <trkpt lat="45.17389" lon="0.41305">
        <ele>163</ele>
        <time>2016-03-29T12:39:24Z</time>
      </trkpt>
      <trkpt lat="45.17394" lon="0.41311">
        <ele>164</ele>
        <time>2016-03-29T12:39:28Z</time>
      </trkpt>
      <trkpt lat="45.17399" lon="0.41313">
        <ele>163</ele>
        <time>2016-03-29T12:39:32Z</time>
      </trkpt>
      <trkpt lat="45.174" lon="0.41319">
        <ele>162</ele>
        <time>2016-03-29T12:39:36Z</time>
      </trkpt>
      <trkpt lat="45.17405" lon="0.41324">
        <ele>163</ele>
        <time>2016-03-29T12:39:41Z</time>
      </trkpt>
      <trkpt lat="45.17408" lon="0.41326">
        <ele>163</ele>
        <time>2016-03-29T12:39:45Z</time>
      </trkpt>
      <trkpt lat="45.17412" lon="0.41331">
        <ele>164</ele>
        <time>2016-03-29T12:39:50Z</time>
      </trkpt>
      <trkpt lat="45.17414" lon="0.41334">
        <ele>166</ele>
        <time>2016-03-29T12:39:54Z</time>
      </trkpt>
      <trkpt lat="45.17418" lon="0.41337">
        <ele>167</ele>
        <time>2016-03-29T12:39:58Z</time>
      </trkpt>
      <trkpt lat="45.17423" lon="0.4134">
        <ele>167</ele>
        <time>2016-03-29T12:40:03Z</time>
      </trkpt>
      <trkpt lat="45.17423" lon="0.41345">
        <ele>168</ele>
        <time>2016-03-29T12:40:09Z</time>
      </trkpt>
      <trkpt lat="45.17426" lon="0.4135">
        <ele>167</ele>
        <time>2016-03-29T12:40:14Z</time>
      </trkpt>
      <trkpt lat="45.17428" lon="0.41354">
        <ele>170</ele>
        <time>2016-03-29T12:40:19Z</time>
      </trkpt>
      <trkpt lat="45.17429" lon="0.41361">
        <ele>172</ele>
        <time>2016-03-29T12:40:23Z</time>
      </trkpt>
      <trkpt lat="45.17433" lon="0.41365">
        <ele>172</ele>
        <time>2016-03-29T12:40:28Z</time>
      </trkpt>
      <trkpt lat="45.17437" lon="0.4137">
        <ele>173</ele>
        <time>2016-03-29T12:40:32Z</time>
      </trkpt>
      <trkpt lat="45.17438" lon="0.41376">
        <ele>172</ele>
        <time>2016-03-29T12:40:37Z</time>
      </trkpt>
      <trkpt lat="45.17442" lon="0.41379">
        <ele>171</ele>
        <time>2016-03-29T12:40:42Z</time>
      </trkpt>
      <trkpt lat="45.17446" lon="0.41381">
        <ele>167</ele>
        <time>2016-03-29T12:41:09Z</time>
      </trkpt>
      <trkpt lat="45.1745" lon="0.41383">
        <ele>165</ele>
        <time>2016-03-29T12:41:19Z</time>
      </trkpt>
      <trkpt lat="45.17453" lon="0.41387">
        <ele>166</ele>
        <time>2016-03-29T12:41:36Z</time>
      </trkpt>
      <trkpt lat="45.17455" lon="0.41392">
        <ele>171</ele>
        <time>2016-03-29T12:42:31Z</time>
      </trkpt>
      <trkpt lat="45.17456" lon="0.41395">
        <ele>176</ele>
        <time>2016-03-29T12:42:55Z</time>
      </trkpt>
      <trkpt lat="45.17454" lon="0.41392">
        <ele>177</ele>
        <time>2016-03-29T12:44:04Z</time>
      </trkpt>
      <trkpt lat="45.17458" lon="0.41394">
        <ele>182</ele>
        <time>2016-03-29T12:44:16Z</time>
      </trkpt>
      <trkpt lat="45.17461" lon="0.41397">
        <ele>185</ele>
        <time>2016-03-29T12:44:21Z</time>
      </trkpt>
      <trkpt lat="45.17464" lon="0.414">
        <ele>186</ele>
        <time>2016-03-29T12:44:25Z</time>
      </trkpt>
      <trkpt lat="45.17467" lon="0.41404">
        <ele>183</ele>
        <time>2016-03-29T12:44:30Z</time>
      </trkpt>
      <trkpt lat="45.17471" lon="0.41409">
        <ele>181</ele>
        <time>2016-03-29T12:44:34Z</time>
      </trkpt>
      <trkpt lat="45.17474" lon="0.41412">
        <ele>179</ele>
        <time>2016-03-29T12:44:38Z</time>
      </trkpt>
      <trkpt lat="45.17477" lon="0.41415">
        <ele>177</ele>
        <time>2016-03-29T12:44:43Z</time>
      </trkpt>
      <trkpt lat="45.17479" lon="0.4142">
        <ele>177</ele>
        <time>2016-03-29T12:44:47Z</time>
      </trkpt>
      <trkpt lat="45.17483" lon="0.41424">
        <ele>177</ele>
        <time>2016-03-29T12:44:51Z</time>
      </trkpt>
      <trkpt lat="45.17486" lon="0.41429">
        <ele>175</ele>
        <time>2016-03-29T12:44:56Z</time>
      </trkpt>
      <trkpt lat="45.17488" lon="0.41436">
        <ele>176</ele>
        <time>2016-03-29T12:45:00Z</time>
      </trkpt>
      <trkpt lat="45.17491" lon="0.41439">
        <ele>175</ele>
        <time>2016-03-29T12:45:05Z</time>
      </trkpt>
      <trkpt lat="45.17495" lon="0.41442">
        <ele>175</ele>
        <time>2016-03-29T12:45:10Z</time>
      </trkpt>
      <trkpt lat="45.17499" lon="0.41445">
        <ele>174</ele>
        <time>2016-03-29T12:45:16Z</time>
      </trkpt>
      <trkpt lat="45.17502" lon="0.41449">
        <ele>176</ele>
        <time>2016-03-29T12:45:21Z</time>
      </trkpt>
      <trkpt lat="45.17504" lon="0.41454">
        <ele>176</ele>
        <time>2016-03-29T12:45:26Z</time>
      </trkpt>
      <trkpt lat="45.17509" lon="0.4146">
        <ele>177</ele>
        <time>2016-03-29T12:45:31Z</time>
      </trkpt>
      <trkpt lat="45.17512" lon="0.41465">
        <ele>178</ele>
        <time>2016-03-29T12:45:36Z</time>
      </trkpt>
      <trkpt lat="45.17514" lon="0.41471">
        <ele>181</ele>
        <time>2016-03-29T12:45:41Z</time>
      </trkpt>
      <trkpt lat="45.17517" lon="0.41478">
        <ele>182</ele>
        <time>2016-03-29T12:45:45Z</time>
      </trkpt>
      <trkpt lat="45.17524" lon="0.41483">
        <ele>182</ele>
        <time>2016-03-29T12:45:50Z</time>
      </trkpt>
      <trkpt lat="45.17526" lon="0.41488">
        <ele>179</ele>
        <time>2016-03-29T12:45:57Z</time>
      </trkpt>
      <trkpt lat="45.17528" lon="0.41493">
        <ele>179</ele>
        <time>2016-03-29T12:46:03Z</time>
      </trkpt>
      <trkpt lat="45.17532" lon="0.41498">
        <ele>178</ele>
        <time>2016-03-29T12:46:08Z</time>
      </trkpt>
      <trkpt lat="45.17533" lon="0.41503">
        <ele>180</ele>
        <time>2016-03-29T12:46:13Z</time>
      </trkpt>
      <trkpt lat="45.17536" lon="0.4151">
        <ele>177</ele>
        <time>2016-03-29T12:46:18Z</time>
      </trkpt>
      <trkpt lat="45.17539" lon="0.41514">
        <ele>177</ele>
        <time>2016-03-29T12:46:22Z</time>
      </trkpt>
      <trkpt lat="45.17541" lon="0.41518">
        <ele>177</ele>
        <time>2016-03-29T12:46:26Z</time>
      </trkpt>
      <trkpt lat="45.17546" lon="0.41522">
        <ele>177</ele>
        <time>2016-03-29T12:46:30Z</time>
      </trkpt>
      <trkpt lat="45.17547" lon="0.41527">
        <ele>176</ele>
        <time>2016-03-29T12:46:35Z</time>
      </trkpt>
      <trkpt lat="45.17548" lon="0.41532">
        <ele>173</ele>
        <time>2016-03-29T12:46:40Z</time>
      </trkpt>
      <trkpt lat="45.17552" lon="0.41536">
        <ele>177</ele>
        <time>2016-03-29T12:46:46Z</time>
      </trkpt>
      <trkpt lat="45.17556" lon="0.41542">
        <ele>176</ele>
        <time>2016-03-29T12:46:50Z</time>
      </trkpt>
      <trkpt lat="45.17559" lon="0.41548">
        <ele>177</ele>
        <time>2016-03-29T12:46:56Z</time>
      </trkpt>
      <trkpt lat="45.1756" lon="0.41552">
        <ele>176</ele>
        <time>2016-03-29T12:47:00Z</time>
      </trkpt>
      <trkpt lat="45.17563" lon="0.41556">
        <ele>177</ele>
        <time>2016-03-29T12:47:06Z</time>
      </trkpt>
      <trkpt lat="45.17565" lon="0.41561">
        <ele>177</ele>
        <time>2016-03-29T12:47:11Z</time>
      </trkpt>
      <trkpt lat="45.17571" lon="0.41566">
        <ele>175</ele>
        <time>2016-03-29T12:47:15Z</time>
      </trkpt>
      <trkpt lat="45.17576" lon="0.4157">
        <ele>175</ele>
        <time>2016-03-29T12:47:20Z</time>
      </trkpt>
      <trkpt lat="45.17579" lon="0.41574">
        <ele>176</ele>
        <time>2016-03-29T12:47:26Z</time>
      </trkpt>
      <trkpt lat="45.17583" lon="0.41581">
        <ele>176</ele>
        <time>2016-03-29T12:47:30Z</time>
      </trkpt>
      <trkpt lat="45.17588" lon="0.41585">
        <ele>175</ele>
        <time>2016-03-29T12:47:34Z</time>
      </trkpt>
      <trkpt lat="45.17593" lon="0.41589">
        <ele>175</ele>
        <time>2016-03-29T12:47:38Z</time>
      </trkpt>
      <trkpt lat="45.17601" lon="0.41594">
        <ele>177</ele>
        <time>2016-03-29T12:47:43Z</time>
      </trkpt>
      <trkpt lat="45.17605" lon="0.41599">
        <ele>176</ele>
        <time>2016-03-29T12:47:47Z</time>
      </trkpt>
      <trkpt lat="45.17608" lon="0.41604">
        <ele>176</ele>
        <time>2016-03-29T12:47:51Z</time>
      </trkpt>
      <trkpt lat="45.17611" lon="0.41606">
        <ele>175</ele>
        <time>2016-03-29T12:47:55Z</time>
      </trkpt>
      <trkpt lat="45.17614" lon="0.41612">
        <ele>175</ele>
        <time>2016-03-29T12:48:01Z</time>
      </trkpt>
      <trkpt lat="45.1762" lon="0.41616">
        <ele>176</ele>
        <time>2016-03-29T12:48:06Z</time>
      </trkpt>
      <trkpt lat="45.17624" lon="0.4162">
        <ele>175</ele>
        <time>2016-03-29T12:48:10Z</time>
      </trkpt>
      <trkpt lat="45.17628" lon="0.41623">
        <ele>174</ele>
        <time>2016-03-29T12:48:15Z</time>
      </trkpt>
      <trkpt lat="45.17632" lon="0.41626">
        <ele>173</ele>
        <time>2016-03-29T12:48:19Z</time>
      </trkpt>
      <trkpt lat="45.17636" lon="0.41628">
        <ele>171</ele>
        <time>2016-03-29T12:48:24Z</time>
      </trkpt>
      <trkpt lat="45.17639" lon="0.41633">
        <ele>172</ele>
        <time>2016-03-29T12:48:29Z</time>
      </trkpt>
      <trkpt lat="45.1764" lon="0.41639">
        <ele>171</ele>
        <time>2016-03-29T12:48:38Z</time>
      </trkpt>
      <trkpt lat="45.17644" lon="0.4164">
        <ele>173</ele>
        <time>2016-03-29T12:48:42Z</time>
      </trkpt>
      <trkpt lat="45.17647" lon="0.41643">
        <ele>171</ele>
        <time>2016-03-29T12:48:49Z</time>
      </trkpt>
      <trkpt lat="45.17651" lon="0.41646">
        <ele>172</ele>
        <time>2016-03-29T12:48:54Z</time>
      </trkpt>
      <trkpt lat="45.17658" lon="0.41649">
        <ele>171</ele>
        <time>2016-03-29T12:48:58Z</time>
      </trkpt>
      <trkpt lat="45.17663" lon="0.41649">
        <ele>170</ele>
        <time>2016-03-29T12:49:03Z</time>
      </trkpt>
      <trkpt lat="45.17665" lon="0.41652">
        <ele>168</ele>
        <time>2016-03-29T12:49:09Z</time>
      </trkpt>
      <trkpt lat="45.1767" lon="0.41658">
        <ele>170</ele>
        <time>2016-03-29T12:49:14Z</time>
      </trkpt>
      <trkpt lat="45.17673" lon="0.41664">
        <ele>172</ele>
        <time>2016-03-29T12:49:18Z</time>
      </trkpt>
      <trkpt lat="45.17677" lon="0.41668">
        <ele>173</ele>
        <time>2016-03-29T12:49:22Z</time>
      </trkpt>
      <trkpt lat="45.17683" lon="0.41672">
        <ele>174</ele>
        <time>2016-03-29T12:49:27Z</time>
      </trkpt>
      <trkpt lat="45.17686" lon="0.41676">
        <ele>173</ele>
        <time>2016-03-29T12:49:31Z</time>
      </trkpt>
      <trkpt lat="45.17691" lon="0.41678">
        <ele>171</ele>
        <time>2016-03-29T12:49:35Z</time>
      </trkpt>
      <trkpt lat="45.17695" lon="0.4168">
        <ele>170</ele>
        <time>2016-03-29T12:49:39Z</time>
      </trkpt>
      <trkpt lat="45.17698" lon="0.41689">
        <ele>169</ele>
        <time>2016-03-29T12:49:43Z</time>
      </trkpt>
      <trkpt lat="45.17701" lon="0.41692">
        <ele>170</ele>
        <time>2016-03-29T12:49:48Z</time>
      </trkpt>
      <trkpt lat="45.17704" lon="0.41697">
        <ele>168</ele>
        <time>2016-03-29T12:49:52Z</time>
      </trkpt>
      <trkpt lat="45.1771" lon="0.41698">
        <ele>168</ele>
        <time>2016-03-29T12:49:56Z</time>
      </trkpt>
      <trkpt lat="45.17717" lon="0.41701">
        <ele>169</ele>
        <time>2016-03-29T12:50:00Z</time>
      </trkpt>
      <trkpt lat="45.1772" lon="0.41704">
        <ele>170</ele>
        <time>2016-03-29T12:50:04Z</time>
      </trkpt>
      <trkpt lat="45.17725" lon="0.41707">
        <ele>168</ele>
        <time>2016-03-29T12:50:09Z</time>
      </trkpt>
      <trkpt lat="45.17729" lon="0.41709">
        <ele>169</ele>
        <time>2016-03-29T12:50:14Z</time>
      </trkpt>
      <trkpt lat="45.17732" lon="0.41712">
        <ele>170</ele>
        <time>2016-03-29T12:50:18Z</time>
      </trkpt>
      <trkpt lat="45.17738" lon="0.41715">
        <ele>170</ele>
        <time>2016-03-29T12:50:22Z</time>
      </trkpt>
      <trkpt lat="45.17746" lon="0.41717">
        <ele>170</ele>
        <time>2016-03-29T12:50:27Z</time>
      </trkpt>
      <trkpt lat="45.17754" lon="0.41716">
        <ele>169</ele>
        <time>2016-03-29T12:50:31Z</time>
      </trkpt>
      <trkpt lat="45.17756" lon="0.41721">
        <ele>171</ele>
        <time>2016-03-29T12:50:39Z</time>
      </trkpt>
      <trkpt lat="45.17761" lon="0.41722">
        <ele>170</ele>
        <time>2016-03-29T12:50:43Z</time>
      </trkpt>
      <trkpt lat="45.17766" lon="0.41724">
        <ele>172</ele>
        <time>2016-03-29T12:50:48Z</time>
      </trkpt>
      <trkpt lat="45.17776" lon="0.41729">
        <ele>170</ele>
        <time>2016-03-29T12:50:52Z</time>
      </trkpt>
      <trkpt lat="45.17779" lon="0.41733">
        <ele>169</ele>
        <time>2016-03-29T12:50:59Z</time>
      </trkpt>
      <trkpt lat="45.17783" lon="0.41735">
        <ele>166</ele>
        <time>2016-03-29T12:51:03Z</time>
      </trkpt>
      <trkpt lat="45.17787" lon="0.41736">
        <ele>166</ele>
        <time>2016-03-29T12:51:07Z</time>
      </trkpt>
      <trkpt lat="45.17792" lon="0.41737">
        <ele>167</ele>
        <time>2016-03-29T12:51:11Z</time>
      </trkpt>
      <trkpt lat="45.17796" lon="0.4174">
        <ele>171</ele>
        <time>2016-03-29T12:51:20Z</time>
      </trkpt>
      <trkpt lat="45.17806" lon="0.4174">
        <ele>169</ele>
        <time>2016-03-29T12:51:25Z</time>
      </trkpt>
      <trkpt lat="45.17809" lon="0.41743">
        <ele>170</ele>
        <time>2016-03-29T12:51:30Z</time>
      </trkpt>
      <trkpt lat="45.17812" lon="0.41748">
        <ele>171</ele>
        <time>2016-03-29T12:51:37Z</time>
      </trkpt>
      <trkpt lat="45.17815" lon="0.41753">
        <ele>173</ele>
        <time>2016-03-29T12:51:43Z</time>
      </trkpt>
      <trkpt lat="45.17821" lon="0.41752">
        <ele>173</ele>
        <time>2016-03-29T12:51:47Z</time>
      </trkpt>
      <trkpt lat="45.17824" lon="0.41756">
        <ele>172</ele>
        <time>2016-03-29T12:51:51Z</time>
      </trkpt>
      <trkpt lat="45.17829" lon="0.41757">
        <ele>172</ele>
        <time>2016-03-29T12:51:56Z</time>
      </trkpt>
      <trkpt lat="45.17832" lon="0.41761">
        <ele>173</ele>
        <time>2016-03-29T12:52:01Z</time>
      </trkpt>
      <trkpt lat="45.17841" lon="0.41762">
        <ele>174</ele>
        <time>2016-03-29T12:52:05Z</time>
      </trkpt>
      <trkpt lat="45.17845" lon="0.41767">
        <ele>175</ele>
        <time>2016-03-29T12:52:09Z</time>
      </trkpt>
      <trkpt lat="45.17852" lon="0.41769">
        <ele>173</ele>
        <time>2016-03-29T12:52:13Z</time>
      </trkpt>
      <trkpt lat="45.17855" lon="0.41772">
        <ele>173</ele>
        <time>2016-03-29T12:52:24Z</time>
      </trkpt>
      <trkpt lat="45.17864" lon="0.4177">
        <ele>173</ele>
        <time>2016-03-29T12:52:28Z</time>
      </trkpt>
      <trkpt lat="45.17869" lon="0.41773">
        <ele>173</ele>
        <time>2016-03-29T12:52:33Z</time>
      </trkpt>
      <trkpt lat="45.17873" lon="0.41774">
        <ele>172</ele>
        <time>2016-03-29T12:52:37Z</time>
      </trkpt>
      <trkpt lat="45.17877" lon="0.41773">
        <ele>172</ele>
        <time>2016-03-29T12:52:44Z</time>
      </trkpt>
      <trkpt lat="45.17885" lon="0.41776">
        <ele>176</ele>
        <time>2016-03-29T12:52:49Z</time>
      </trkpt>
      <trkpt lat="45.17892" lon="0.41778">
        <ele>176</ele>
        <time>2016-03-29T12:52:54Z</time>
      </trkpt>
      <trkpt lat="45.17898" lon="0.41778">
        <ele>176</ele>
        <time>2016-03-29T12:52:58Z</time>
      </trkpt>
      <trkpt lat="45.17906" lon="0.41774">
        <ele>175</ele>
        <time>2016-03-29T12:53:03Z</time>
      </trkpt>
      <trkpt lat="45.17909" lon="0.41773">
        <ele>177</ele>
        <time>2016-03-29T12:53:09Z</time>
      </trkpt>
      <trkpt lat="45.17914" lon="0.41774">
        <ele>173</ele>
        <time>2016-03-29T12:53:13Z</time>
      </trkpt>
      <trkpt lat="45.17922" lon="0.41773">
        <ele>173</ele>
        <time>2016-03-29T12:53:17Z</time>
      </trkpt>
      <trkpt lat="45.17929" lon="0.41773">
        <ele>175</ele>
        <time>2016-03-29T12:53:22Z</time>
      </trkpt>
      <trkpt lat="45.17931" lon="0.41775">
        <ele>174</ele>
        <time>2016-03-29T12:53:27Z</time>
      </trkpt>
      <trkpt lat="45.17934" lon="0.41781">
        <ele>174</ele>
        <time>2016-03-29T12:53:32Z</time>
      </trkpt>
      <trkpt lat="45.17936" lon="0.41786">
        <ele>174</ele>
        <time>2016-03-29T12:53:37Z</time>
      </trkpt>
      <trkpt lat="45.1794" lon="0.41789">
        <ele>174</ele>
        <time>2016-03-29T12:53:42Z</time>
      </trkpt>
      <trkpt lat="45.17944" lon="0.4179">
        <ele>176</ele>
        <time>2016-03-29T12:53:47Z</time>
      </trkpt>
      <trkpt lat="45.1795" lon="0.41792">
        <ele>177</ele>
        <time>2016-03-29T12:53:52Z</time>
      </trkpt>
      <trkpt lat="45.17954" lon="0.41794">
        <ele>177</ele>
        <time>2016-03-29T12:53:56Z</time>
      </trkpt>
      <trkpt lat="45.17958" lon="0.41798">
        <ele>178</ele>
        <time>2016-03-29T12:54:01Z</time>
      </trkpt>
      <trkpt lat="45.17963" lon="0.41799">
        <ele>177</ele>
        <time>2016-03-29T12:54:06Z</time>
      </trkpt>
      <trkpt lat="45.17967" lon="0.41799">
        <ele>179</ele>
        <time>2016-03-29T12:54:12Z</time>
      </trkpt>
      <trkpt lat="45.17971" lon="0.418">
        <ele>180</ele>
        <time>2016-03-29T12:54:18Z</time>
      </trkpt>
      <trkpt lat="45.17975" lon="0.41801">
        <ele>181</ele>
        <time>2016-03-29T12:54:23Z</time>
      </trkpt>
      <trkpt lat="45.17978" lon="0.41805">
        <ele>179</ele>
        <time>2016-03-29T12:54:29Z</time>
      </trkpt>
      <trkpt lat="45.17981" lon="0.41809">
        <ele>179</ele>
        <time>2016-03-29T12:54:34Z</time>
      </trkpt>
      <trkpt lat="45.17992" lon="0.41806">
        <ele>180</ele>
        <time>2016-03-29T12:54:38Z</time>
      </trkpt>
      <trkpt lat="45.17996" lon="0.41805">
        <ele>183</ele>
        <time>2016-03-29T12:54:43Z</time>
      </trkpt>
      <trkpt lat="45.18" lon="0.41807">
        <ele>183</ele>
        <time>2016-03-29T12:54:49Z</time>
      </trkpt>
      <trkpt lat="45.18009" lon="0.4181">
        <ele>180</ele>
        <time>2016-03-29T12:54:53Z</time>
      </trkpt>
      <trkpt lat="45.18011" lon="0.41813">
        <ele>179</ele>
        <time>2016-03-29T12:54:57Z</time>
      </trkpt>
      <trkpt lat="45.18015" lon="0.41815">
        <ele>180</ele>
        <time>2016-03-29T12:55:04Z</time>
      </trkpt>
      <trkpt lat="45.1802" lon="0.41818">
        <ele>180</ele>
        <time>2016-03-29T12:55:09Z</time>
      </trkpt>
      <trkpt lat="45.18023" lon="0.4182">
        <ele>180</ele>
        <time>2016-03-29T12:55:15Z</time>
      </trkpt>
      <trkpt lat="45.18026" lon="0.41826">
        <ele>181</ele>
        <time>2016-03-29T12:55:19Z</time>
      </trkpt>
      <trkpt lat="45.18029" lon="0.41832">
        <ele>182</ele>
        <time>2016-03-29T12:55:24Z</time>
      </trkpt>
      <trkpt lat="45.18033" lon="0.41832">
        <ele>184</ele>
        <time>2016-03-29T12:55:29Z</time>
      </trkpt>
      <trkpt lat="45.18039" lon="0.41835">
        <ele>188</ele>
        <time>2016-03-29T12:55:34Z</time>
      </trkpt>
      <trkpt lat="45.18041" lon="0.41839">
        <ele>190</ele>
        <time>2016-03-29T12:55:39Z</time>
      </trkpt>
      <trkpt lat="45.18046" lon="0.4184">
        <ele>191</ele>
        <time>2016-03-29T12:55:43Z</time>
      </trkpt>
      <trkpt lat="45.1805" lon="0.41842">
        <ele>189</ele>
        <time>2016-03-29T12:55:48Z</time>
      </trkpt>
      <trkpt lat="45.18053" lon="0.41847">
        <ele>190</ele>
        <time>2016-03-29T12:55:53Z</time>
      </trkpt>
      <trkpt lat="45.18061" lon="0.41849">
        <ele>188</ele>
        <time>2016-03-29T12:55:57Z</time>
      </trkpt>
      <trkpt lat="45.18067" lon="0.41852">
        <ele>187</ele>
        <time>2016-03-29T12:56:01Z</time>
      </trkpt>
      <trkpt lat="45.18073" lon="0.41855">
        <ele>184</ele>
        <time>2016-03-29T12:56:05Z</time>
      </trkpt>
      <trkpt lat="45.18073" lon="0.41861">
        <ele>187</ele>
        <time>2016-03-29T12:56:11Z</time>
      </trkpt>
      <trkpt lat="45.18075" lon="0.41864">
        <ele>187</ele>
        <time>2016-03-29T12:56:15Z</time>
      </trkpt>
      <trkpt lat="45.18078" lon="0.4187">
        <ele>188</ele>
        <time>2016-03-29T12:56:20Z</time>
      </trkpt>
      <trkpt lat="45.18082" lon="0.41874">
        <ele>187</ele>
        <time>2016-03-29T12:56:24Z</time>
      </trkpt>
      <trkpt lat="45.18086" lon="0.4188">
        <ele>189</ele>
        <time>2016-03-29T12:56:29Z</time>
      </trkpt>
      <trkpt lat="45.18087" lon="0.41886">
        <ele>191</ele>
        <time>2016-03-29T12:56:33Z</time>
      </trkpt>
      <trkpt lat="45.18095" lon="0.4189">
        <ele>191</ele>
        <time>2016-03-29T12:56:38Z</time>
      </trkpt>
      <trkpt lat="45.18099" lon="0.41892">
        <ele>191</ele>
        <time>2016-03-29T12:56:45Z</time>
      </trkpt>
      <trkpt lat="45.18102" lon="0.41896">
        <ele>192</ele>
        <time>2016-03-29T12:56:49Z</time>
      </trkpt>
      <trkpt lat="45.18106" lon="0.41901">
        <ele>193</ele>
        <time>2016-03-29T12:56:54Z</time>
      </trkpt>
      <trkpt lat="45.18113" lon="0.41904">
        <ele>189</ele>
        <time>2016-03-29T12:56:58Z</time>
      </trkpt>
      <trkpt lat="45.18118" lon="0.41906">
        <ele>192</ele>
        <time>2016-03-29T12:57:03Z</time>
      </trkpt>
      <trkpt lat="45.18127" lon="0.41911">
        <ele>187</ele>
        <time>2016-03-29T12:57:07Z</time>
      </trkpt>
      <trkpt lat="45.1813" lon="0.41914">
        <ele>187</ele>
        <time>2016-03-29T12:57:11Z</time>
      </trkpt>
      <trkpt lat="45.18133" lon="0.41918">
        <ele>186</ele>
        <time>2016-03-29T12:57:15Z</time>
      </trkpt>
      <trkpt lat="45.18135" lon="0.41924">
        <ele>189</ele>
        <time>2016-03-29T12:57:21Z</time>
      </trkpt>
      <trkpt lat="45.1814" lon="0.41928">
        <ele>189</ele>
        <time>2016-03-29T12:57:26Z</time>
      </trkpt>
      <trkpt lat="45.18146" lon="0.41931">
        <ele>188</ele>
        <time>2016-03-29T12:57:30Z</time>
      </trkpt>
      <trkpt lat="45.18156" lon="0.41935">
        <ele>185</ele>
        <time>2016-03-29T12:57:35Z</time>
      </trkpt>
      <trkpt lat="45.18159" lon="0.41941">
        <ele>184</ele>
        <time>2016-03-29T12:57:39Z</time>
      </trkpt>
      <trkpt lat="45.18162" lon="0.41944">
        <ele>188</ele>
        <time>2016-03-29T12:57:44Z</time>
      </trkpt>
      <trkpt lat="45.18167" lon="0.41948">
        <ele>186</ele>
        <time>2016-03-29T12:57:48Z</time>
      </trkpt>
      <trkpt lat="45.18173" lon="0.41949">
        <ele>185</ele>
        <time>2016-03-29T12:57:52Z</time>
      </trkpt>
      <trkpt lat="45.18179" lon="0.41952">
        <ele>185</ele>
        <time>2016-03-29T12:57:57Z</time>
      </trkpt>
      <trkpt lat="45.18182" lon="0.41955">
        <ele>187</ele>
        <time>2016-03-29T12:58:02Z</time>
      </trkpt>
      <trkpt lat="45.18186" lon="0.41958">
        <ele>187</ele>
        <time>2016-03-29T12:58:06Z</time>
      </trkpt>
      <trkpt lat="45.18192" lon="0.4196">
        <ele>186</ele>
        <time>2016-03-29T12:58:11Z</time>
      </trkpt>
      <trkpt lat="45.18195" lon="0.41965">
        <ele>191</ele>
        <time>2016-03-29T12:58:18Z</time>
      </trkpt>
      <trkpt lat="45.18204" lon="0.41966">
        <ele>188</ele>
        <time>2016-03-29T12:58:22Z</time>
      </trkpt>
      <trkpt lat="45.18208" lon="0.4197">
        <ele>186</ele>
        <time>2016-03-29T12:58:27Z</time>
      </trkpt>
      <trkpt lat="45.18211" lon="0.41974">
        <ele>187</ele>
        <time>2016-03-29T12:58:35Z</time>
      </trkpt>
      <trkpt lat="45.18217" lon="0.41975">
        <ele>189</ele>
        <time>2016-03-29T12:58:39Z</time>
      </trkpt>
      <trkpt lat="45.18224" lon="0.41978">
        <ele>188</ele>
        <time>2016-03-29T12:58:43Z</time>
      </trkpt>
      <trkpt lat="45.18227" lon="0.41981">
        <ele>188</ele>
        <time>2016-03-29T12:58:47Z</time>
      </trkpt>
      <trkpt lat="45.18233" lon="0.41984">
        <ele>187</ele>
        <time>2016-03-29T12:58:51Z</time>
      </trkpt>
      <trkpt lat="45.18236" lon="0.41988">
        <ele>187</ele>
        <time>2016-03-29T12:58:56Z</time>
      </trkpt>
      <trkpt lat="45.18242" lon="0.41992">
        <ele>186</ele>
        <time>2016-03-29T12:59:01Z</time>
      </trkpt>
      <trkpt lat="45.18249" lon="0.41991">
        <ele>187</ele>
        <time>2016-03-29T12:59:05Z</time>
      </trkpt>
      <trkpt lat="45.18254" lon="0.41993">
        <ele>190</ele>
        <time>2016-03-29T12:59:10Z</time>
      </trkpt>
      <trkpt lat="45.18258" lon="0.41996">
        <ele>191</ele>
        <time>2016-03-29T12:59:15Z</time>
      </trkpt>
      <trkpt lat="45.18261" lon="0.42001">
        <ele>191</ele>
        <time>2016-03-29T12:59:19Z</time>
      </trkpt>
      <trkpt lat="45.18269" lon="0.42003">
        <ele>189</ele>
        <time>2016-03-29T12:59:24Z</time>
      </trkpt>
      <trkpt lat="45.18274" lon="0.42009">
        <ele>187</ele>
        <time>2016-03-29T12:59:29Z</time>
      </trkpt>
      <trkpt lat="45.18278" lon="0.42011">
        <ele>187</ele>
        <time>2016-03-29T12:59:33Z</time>
      </trkpt>
      <trkpt lat="45.18281" lon="0.42014">
        <ele>189</ele>
        <time>2016-03-29T12:59:37Z</time>
      </trkpt>
      <trkpt lat="45.18284" lon="0.42018">
        <ele>192</ele>
        <time>2016-03-29T12:59:43Z</time>
      </trkpt>
      <trkpt lat="45.1829" lon="0.42021">
        <ele>191</ele>
        <time>2016-03-29T12:59:47Z</time>
      </trkpt>
      <trkpt lat="45.18295" lon="0.42024">
        <ele>191</ele>
        <time>2016-03-29T12:59:51Z</time>
      </trkpt>
      <trkpt lat="45.18298" lon="0.42029">
        <ele>190</ele>
        <time>2016-03-29T12:59:55Z</time>
      </trkpt>
      <trkpt lat="45.18301" lon="0.42032">
        <ele>193</ele>
        <time>2016-03-29T13:00:00Z</time>
      </trkpt>
      <trkpt lat="45.18304" lon="0.42036">
        <ele>193</ele>
        <time>2016-03-29T13:00:04Z</time>
      </trkpt>
      <trkpt lat="45.1831" lon="0.4204">
        <ele>194</ele>
        <time>2016-03-29T13:00:09Z</time>
      </trkpt>
      <trkpt lat="45.18315" lon="0.42044">
        <ele>192</ele>
        <time>2016-03-29T13:00:13Z</time>
      </trkpt>
      <trkpt lat="45.18319" lon="0.42047">
        <ele>192</ele>
        <time>2016-03-29T13:00:17Z</time>
      </trkpt>
      <trkpt lat="45.18322" lon="0.42054">
        <ele>191</ele>
        <time>2016-03-29T13:00:22Z</time>
      </trkpt>
      <trkpt lat="45.18327" lon="0.42058">
        <ele>190</ele>
        <time>2016-03-29T13:00:27Z</time>
      </trkpt>
      <trkpt lat="45.18332" lon="0.4206">
        <ele>190</ele>
        <time>2016-03-29T13:00:31Z</time>
      </trkpt>
      <trkpt lat="45.18334" lon="0.42065">
        <ele>190</ele>
        <time>2016-03-29T13:00:35Z</time>
      </trkpt>
      <trkpt lat="45.18339" lon="0.4207">
        <ele>190</ele>
        <time>2016-03-29T13:00:40Z</time>
      </trkpt>
      <trkpt lat="45.18342" lon="0.42074">
        <ele>190</ele>
        <time>2016-03-29T13:00:44Z</time>
      </trkpt>
      <trkpt lat="45.18343" lon="0.42079">
        <ele>189</ele>
        <time>2016-03-29T13:00:49Z</time>
      </trkpt>
      <trkpt lat="45.18346" lon="0.42084">
        <ele>188</ele>
        <time>2016-03-29T13:00:57Z</time>
      </trkpt>
      <trkpt lat="45.18349" lon="0.42087">
        <ele>181</ele>
        <time>2016-03-29T13:02:32Z</time>
      </trkpt>
      <trkpt lat="45.18353" lon="0.42091">
        <ele>190</ele>
        <time>2016-03-29T13:04:03Z</time>
      </trkpt>
      <trkpt lat="45.18354" lon="0.42096">
        <ele>191</ele>
        <time>2016-03-29T13:04:08Z</time>
      </trkpt>
      <trkpt lat="45.18358" lon="0.42096">
        <ele>188</ele>
        <time>2016-03-29T13:04:13Z</time>
      </trkpt>
      <trkpt lat="45.18362" lon="0.42097">
        <ele>188</ele>
        <time>2016-03-29T13:04:18Z</time>
      </trkpt>
      <trkpt lat="45.18365" lon="0.42091">
        <ele>188</ele>
        <time>2016-03-29T13:04:22Z</time>
      </trkpt>
      <trkpt lat="45.18368" lon="0.42083">
        <ele>190</ele>
        <time>2016-03-29T13:04:27Z</time>
      </trkpt>
      <trkpt lat="45.18371" lon="0.42074">
        <ele>192</ele>
        <time>2016-03-29T13:04:31Z</time>
      </trkpt>
      <trkpt lat="45.18373" lon="0.42068">
        <ele>193</ele>
        <time>2016-03-29T13:04:35Z</time>
      </trkpt>
      <trkpt lat="45.18376" lon="0.42065">
        <ele>195</ele>
        <time>2016-03-29T13:04:42Z</time>
      </trkpt>
      <trkpt lat="45.18376" lon="0.42058">
        <ele>195</ele>
        <time>2016-03-29T13:04:47Z</time>
      </trkpt>
      <trkpt lat="45.18376" lon="0.42051">
        <ele>198</ele>
        <time>2016-03-29T13:04:52Z</time>
      </trkpt>
      <trkpt lat="45.18378" lon="0.42045">
        <ele>201</ele>
        <time>2016-03-29T13:04:58Z</time>
      </trkpt>
      <trkpt lat="45.18379" lon="0.42039">
        <ele>201</ele>
        <time>2016-03-29T13:05:03Z</time>
      </trkpt>
      <trkpt lat="45.18381" lon="0.42034">
        <ele>207</ele>
        <time>2016-03-29T13:05:09Z</time>
      </trkpt>
      <trkpt lat="45.18382" lon="0.42028">
        <ele>206</ele>
        <time>2016-03-29T13:05:13Z</time>
      </trkpt>
      <trkpt lat="45.18383" lon="0.4202">
        <ele>208</ele>
        <time>2016-03-29T13:05:18Z</time>
      </trkpt>
      <trkpt lat="45.18383" lon="0.42014">
        <ele>207</ele>
        <time>2016-03-29T13:05:22Z</time>
      </trkpt>
      <trkpt lat="45.18381" lon="0.42009">
        <ele>207</ele>
        <time>2016-03-29T13:05:26Z</time>
      </trkpt>
      <trkpt lat="45.18384" lon="0.42001">
        <ele>206</ele>
        <time>2016-03-29T13:05:30Z</time>
      </trkpt>
      <trkpt lat="45.18385" lon="0.41997">
        <ele>204</ele>
        <time>2016-03-29T13:05:38Z</time>
      </trkpt>
      <trkpt lat="45.18388" lon="0.41981">
        <ele>201</ele>
        <time>2016-03-29T13:05:43Z</time>
      </trkpt>
      <trkpt lat="45.18392" lon="0.41972">
        <ele>199</ele>
        <time>2016-03-29T13:05:48Z</time>
      </trkpt>
      <trkpt lat="45.18395" lon="0.41966">
        <ele>205</ele>
        <time>2016-03-29T13:05:52Z</time>
      </trkpt>
      <trkpt lat="45.18398" lon="0.41961">
        <ele>205</ele>
        <time>2016-03-29T13:05:56Z</time>
      </trkpt>
      <trkpt lat="45.184" lon="0.41953">
        <ele>204</ele>
        <time>2016-03-29T13:06:00Z</time>
      </trkpt>
      <trkpt lat="45.184" lon="0.41945">
        <ele>204</ele>
        <time>2016-03-29T13:06:04Z</time>
      </trkpt>
      <trkpt lat="45.18403" lon="0.4194">
        <ele>206</ele>
        <time>2016-03-29T13:06:08Z</time>
      </trkpt>
      <trkpt lat="45.18406" lon="0.41937">
        <ele>208</ele>
        <time>2016-03-29T13:06:15Z</time>
      </trkpt>
      <trkpt lat="45.18409" lon="0.41924">
        <ele>204</ele>
        <time>2016-03-29T13:06:19Z</time>
      </trkpt>
      <trkpt lat="45.1841" lon="0.41915">
        <ele>201</ele>
        <time>2016-03-29T13:06:23Z</time>
      </trkpt>
      <trkpt lat="45.18413" lon="0.4191">
        <ele>200</ele>
        <time>2016-03-29T13:06:28Z</time>
      </trkpt>
      <trkpt lat="45.18416" lon="0.41904">
        <ele>201</ele>
        <time>2016-03-29T13:06:32Z</time>
      </trkpt>
      <trkpt lat="45.18417" lon="0.41897">
        <ele>199</ele>
        <time>2016-03-29T13:06:36Z</time>
      </trkpt>
      <trkpt lat="45.18418" lon="0.41889">
        <ele>196</ele>
        <time>2016-03-29T13:06:40Z</time>
      </trkpt>
      <trkpt lat="45.18421" lon="0.41881">
        <ele>196</ele>
        <time>2016-03-29T13:06:45Z</time>
      </trkpt>
      <trkpt lat="45.18423" lon="0.41875">
        <ele>199</ele>
        <time>2016-03-29T13:06:50Z</time>
      </trkpt>
      <trkpt lat="45.18423" lon="0.4187">
        <ele>199</ele>
        <time>2016-03-29T13:06:54Z</time>
      </trkpt>
      <trkpt lat="45.18425" lon="0.41861">
        <ele>196</ele>
        <time>2016-03-29T13:06:59Z</time>
      </trkpt>
      <trkpt lat="45.18429" lon="0.41857">
        <ele>197</ele>
        <time>2016-03-29T13:07:03Z</time>
      </trkpt>
      <trkpt lat="45.1843" lon="0.4185">
        <ele>201</ele>
        <time>2016-03-29T13:07:08Z</time>
      </trkpt>
      <trkpt lat="45.18432" lon="0.41844">
        <ele>201</ele>
        <time>2016-03-29T13:07:13Z</time>
      </trkpt>
      <trkpt lat="45.18433" lon="0.41839">
        <ele>202</ele>
        <time>2016-03-29T13:07:20Z</time>
      </trkpt>
      <trkpt lat="45.18437" lon="0.4183">
        <ele>202</ele>
        <time>2016-03-29T13:07:25Z</time>
      </trkpt>
      <trkpt lat="45.18441" lon="0.41824">
        <ele>202</ele>
        <time>2016-03-29T13:07:29Z</time>
      </trkpt>
      <trkpt lat="45.18445" lon="0.41817">
        <ele>204</ele>
        <time>2016-03-29T13:07:34Z</time>
      </trkpt>
      <trkpt lat="45.18447" lon="0.4181">
        <ele>200</ele>
        <time>2016-03-29T13:07:38Z</time>
      </trkpt>
      <trkpt lat="45.18449" lon="0.41806">
        <ele>200</ele>
        <time>2016-03-29T13:07:42Z</time>
      </trkpt>
      <trkpt lat="45.18449" lon="0.41795">
        <ele>195</ele>
        <time>2016-03-29T13:07:47Z</time>
      </trkpt>
      <trkpt lat="45.18454" lon="0.4179">
        <ele>196</ele>
        <time>2016-03-29T13:07:51Z</time>
      </trkpt>
      <trkpt lat="45.18459" lon="0.41784">
        <ele>198</ele>
        <time>2016-03-29T13:07:55Z</time>
      </trkpt>
      <trkpt lat="45.18462" lon="0.41778">
        <ele>198</ele>
        <time>2016-03-29T13:07:59Z</time>
      </trkpt>
      <trkpt lat="45.18466" lon="0.4177">
        <ele>201</ele>
        <time>2016-03-29T13:08:04Z</time>
      </trkpt>
      <trkpt lat="45.18471" lon="0.41764">
        <ele>206</ele>
        <time>2016-03-29T13:08:08Z</time>
      </trkpt>
      <trkpt lat="45.18474" lon="0.41756">
        <ele>204</ele>
        <time>2016-03-29T13:08:13Z</time>
      </trkpt>
      <trkpt lat="45.18476" lon="0.41749">
        <ele>203</ele>
        <time>2016-03-29T13:08:17Z</time>
      </trkpt>
      <trkpt lat="45.1848" lon="0.41743">
        <ele>203</ele>
        <time>2016-03-29T13:08:21Z</time>
      </trkpt>
      <trkpt lat="45.18479" lon="0.41736">
        <ele>202</ele>
        <time>2016-03-29T13:08:25Z</time>
      </trkpt>
      <trkpt lat="45.1848" lon="0.41731">
        <ele>204</ele>
        <time>2016-03-29T13:08:29Z</time>
      </trkpt>
      <trkpt lat="45.18481" lon="0.41724">
        <ele>204</ele>
        <time>2016-03-29T13:08:33Z</time>
      </trkpt>
      <trkpt lat="45.1848" lon="0.41715">
        <ele>200</ele>
        <time>2016-03-29T13:08:37Z</time>
      </trkpt>
      <trkpt lat="45.18481" lon="0.41708">
        <ele>200</ele>
        <time>2016-03-29T13:08:42Z</time>
      </trkpt>
      <trkpt lat="45.18481" lon="0.417">
        <ele>199</ele>
        <time>2016-03-29T13:08:46Z</time>
      </trkpt>
      <trkpt lat="45.18481" lon="0.41692">
        <ele>201</ele>
        <time>2016-03-29T13:08:50Z</time>
      </trkpt>
      <trkpt lat="45.18481" lon="0.41686">
        <ele>198</ele>
        <time>2016-03-29T13:08:54Z</time>
      </trkpt>
      <trkpt lat="45.18482" lon="0.41681">
        <ele>202</ele>
        <time>2016-03-29T13:08:58Z</time>
      </trkpt>
      <trkpt lat="45.18483" lon="0.41672">
        <ele>201</ele>
        <time>2016-03-29T13:09:03Z</time>
      </trkpt>
      <trkpt lat="45.18483" lon="0.41665">
        <ele>202</ele>
        <time>2016-03-29T13:09:07Z</time>
      </trkpt>
      <trkpt lat="45.18481" lon="0.41657">
        <ele>199</ele>
        <time>2016-03-29T13:09:12Z</time>
      </trkpt>
      <trkpt lat="45.18481" lon="0.41649">
        <ele>199</ele>
        <time>2016-03-29T13:09:16Z</time>
      </trkpt>
      <trkpt lat="45.18478" lon="0.41646">
        <ele>196</ele>
        <time>2016-03-29T13:09:24Z</time>
      </trkpt>
      <trkpt lat="45.18482" lon="0.41645">
        <ele>187</ele>
        <time>2016-03-29T13:09:44Z</time>
      </trkpt>
      <trkpt lat="45.18485" lon="0.41646">
        <ele>184</ele>
        <time>2016-03-29T13:09:52Z</time>
      </trkpt>
      <trkpt lat="45.18494" lon="0.41641">
        <ele>188</ele>
        <time>2016-03-29T13:09:56Z</time>
      </trkpt>
      <trkpt lat="45.18499" lon="0.41637">
        <ele>188</ele>
        <time>2016-03-29T13:10:01Z</time>
      </trkpt>
      <trkpt lat="45.18503" lon="0.41629">
        <ele>190</ele>
        <time>2016-03-29T13:10:06Z</time>
      </trkpt>
      <trkpt lat="45.18506" lon="0.41624">
        <ele>192</ele>
        <time>2016-03-29T13:10:10Z</time>
      </trkpt>
      <trkpt lat="45.18511" lon="0.41625">
        <ele>195</ele>
        <time>2016-03-29T13:10:14Z</time>
      </trkpt>
      <trkpt lat="45.18515" lon="0.41621">
        <ele>191</ele>
        <time>2016-03-29T13:10:19Z</time>
      </trkpt>
      <trkpt lat="45.18522" lon="0.41623">
        <ele>192</ele>
        <time>2016-03-29T13:10:24Z</time>
      </trkpt>
      <trkpt lat="45.18527" lon="0.41622">
        <ele>193</ele>
        <time>2016-03-29T13:10:28Z</time>
      </trkpt>
      <trkpt lat="45.18531" lon="0.41622">
        <ele>194</ele>
        <time>2016-03-29T13:10:32Z</time>
      </trkpt>
      <trkpt lat="45.18535" lon="0.41616">
        <ele>194</ele>
        <time>2016-03-29T13:10:37Z</time>
      </trkpt>
      <trkpt lat="45.1854" lon="0.4161">
        <ele>192</ele>
        <time>2016-03-29T13:10:41Z</time>
      </trkpt>
      <trkpt lat="45.18542" lon="0.41603">
        <ele>192</ele>
        <time>2016-03-29T13:10:46Z</time>
      </trkpt>
      <trkpt lat="45.18547" lon="0.41601">
        <ele>193</ele>
        <time>2016-03-29T13:10:50Z</time>
      </trkpt>
      <trkpt lat="45.18551" lon="0.41598">
        <ele>193</ele>
        <time>2016-03-29T13:10:56Z</time>
      </trkpt>
      <trkpt lat="45.18555" lon="0.41595">
        <ele>190</ele>
        <time>2016-03-29T13:11:02Z</time>
      </trkpt>
      <trkpt lat="45.18564" lon="0.41594">
        <ele>191</ele>
        <time>2016-03-29T13:11:06Z</time>
      </trkpt>
      <trkpt lat="45.18569" lon="0.41593">
        <ele>192</ele>
        <time>2016-03-29T13:11:11Z</time>
      </trkpt>
      <trkpt lat="45.18575" lon="0.41589">
        <ele>189</ele>
        <time>2016-03-29T13:11:15Z</time>
      </trkpt>
      <trkpt lat="45.1858" lon="0.41585">
        <ele>190</ele>
        <time>2016-03-29T13:11:20Z</time>
      </trkpt>
      <trkpt lat="45.18583" lon="0.41583">
        <ele>188</ele>
        <time>2016-03-29T13:11:26Z</time>
      </trkpt>
      <trkpt lat="45.18587" lon="0.4158">
        <ele>186</ele>
        <time>2016-03-29T13:11:31Z</time>
      </trkpt>
      <trkpt lat="45.18591" lon="0.4158">
        <ele>186</ele>
        <time>2016-03-29T13:11:35Z</time>
      </trkpt>
      <trkpt lat="45.18598" lon="0.41575">
        <ele>184</ele>
        <time>2016-03-29T13:11:40Z</time>
      </trkpt>
      <trkpt lat="45.18602" lon="0.41573">
        <ele>182</ele>
        <time>2016-03-29T13:11:49Z</time>
      </trkpt>
      <trkpt lat="45.18608" lon="0.41569">
        <ele>182</ele>
        <time>2016-03-29T13:11:54Z</time>
      </trkpt>
      <trkpt lat="45.18618" lon="0.41562">
        <ele>179</ele>
        <time>2016-03-29T13:11:59Z</time>
      </trkpt>
      <trkpt lat="45.18623" lon="0.41559">
        <ele>182</ele>
        <time>2016-03-29T13:12:03Z</time>
      </trkpt>
      <trkpt lat="45.1863" lon="0.41555">
        <ele>176</ele>
        <time>2016-03-29T13:12:07Z</time>
      </trkpt>
      <trkpt lat="45.18637" lon="0.41548">
        <ele>177</ele>
        <time>2016-03-29T13:12:12Z</time>
      </trkpt>
      <trkpt lat="45.1864" lon="0.41543">
        <ele>175</ele>
        <time>2016-03-29T13:12:21Z</time>
      </trkpt>
      <trkpt lat="45.18644" lon="0.41532">
        <ele>175</ele>
        <time>2016-03-29T13:12:26Z</time>
      </trkpt>
      <trkpt lat="45.18648" lon="0.41523">
        <ele>175</ele>
        <time>2016-03-29T13:12:30Z</time>
      </trkpt>
      <trkpt lat="45.1865" lon="0.41514">
        <ele>175</ele>
        <time>2016-03-29T13:12:34Z</time>
      </trkpt>
      <trkpt lat="45.18652" lon="0.41508">
        <ele>177</ele>
        <time>2016-03-29T13:12:38Z</time>
      </trkpt>
      <trkpt lat="45.18655" lon="0.41502">
        <ele>177</ele>
        <time>2016-03-29T13:12:43Z</time>
      </trkpt>
      <trkpt lat="45.18658" lon="0.41497">
        <ele>178</ele>
        <time>2016-03-29T13:12:47Z</time>
      </trkpt>
      <trkpt lat="45.18662" lon="0.41492">
        <ele>176</ele>
        <time>2016-03-29T13:12:51Z</time>
      </trkpt>
      <trkpt lat="45.18667" lon="0.41485">
        <ele>176</ele>
        <time>2016-03-29T13:12:56Z</time>
      </trkpt>
      <trkpt lat="45.18672" lon="0.4148">
        <ele>175</ele>
        <time>2016-03-29T13:13:00Z</time>
      </trkpt>
      <trkpt lat="45.18674" lon="0.41473">
        <ele>175</ele>
        <time>2016-03-29T13:13:05Z</time>
      </trkpt>
      <trkpt lat="45.18677" lon="0.41467">
        <ele>176</ele>
        <time>2016-03-29T13:13:10Z</time>
      </trkpt>
      <trkpt lat="45.18682" lon="0.4146">
        <ele>174</ele>
        <time>2016-03-29T13:13:14Z</time>
      </trkpt>
      <trkpt lat="45.18688" lon="0.41454">
        <ele>178</ele>
        <time>2016-03-29T13:13:18Z</time>
      </trkpt>
      <trkpt lat="45.18689" lon="0.41446">
        <ele>175</ele>
        <time>2016-03-29T13:13:22Z</time>
      </trkpt>
      <trkpt lat="45.1869" lon="0.41438">
        <ele>171</ele>
        <time>2016-03-29T13:13:27Z</time>
      </trkpt>
      <trkpt lat="45.18694" lon="0.41431">
        <ele>170</ele>
        <time>2016-03-29T13:13:31Z</time>
      </trkpt>
      <trkpt lat="45.18699" lon="0.41423">
        <ele>172</ele>
        <time>2016-03-29T13:13:36Z</time>
      </trkpt>
      <trkpt lat="45.18701" lon="0.41418">
        <ele>175</ele>
        <time>2016-03-29T13:13:40Z</time>
      </trkpt>
      <trkpt lat="45.18706" lon="0.41409">
        <ele>175</ele>
        <time>2016-03-29T13:13:45Z</time>
      </trkpt>
      <trkpt lat="45.18706" lon="0.414">
        <ele>170</ele>
        <time>2016-03-29T13:13:49Z</time>
      </trkpt>
      <trkpt lat="45.18708" lon="0.41394">
        <ele>171</ele>
        <time>2016-03-29T13:13:53Z</time>
      </trkpt>
      <trkpt lat="45.18711" lon="0.41384">
        <ele>168</ele>
        <time>2016-03-29T13:13:58Z</time>
      </trkpt>
      <trkpt lat="45.18713" lon="0.41377">
        <ele>166</ele>
        <time>2016-03-29T13:14:02Z</time>
      </trkpt>
      <trkpt lat="45.18715" lon="0.41372">
        <ele>165</ele>
        <time>2016-03-29T13:14:06Z</time>
      </trkpt>
      <trkpt lat="45.18718" lon="0.41367">
        <ele>164</ele>
        <time>2016-03-29T13:14:10Z</time>
      </trkpt>
      <trkpt lat="45.18721" lon="0.4136">
        <ele>164</ele>
        <time>2016-03-29T13:14:15Z</time>
      </trkpt>
      <trkpt lat="45.18722" lon="0.41353">
        <ele>165</ele>
        <time>2016-03-29T13:14:20Z</time>
      </trkpt>
      <trkpt lat="45.18723" lon="0.41347">
        <ele>166</ele>
        <time>2016-03-29T13:14:24Z</time>
      </trkpt>
      <trkpt lat="45.18725" lon="0.41339">
        <ele>169</ele>
        <time>2016-03-29T13:14:29Z</time>
      </trkpt>
      <trkpt lat="45.18725" lon="0.41332">
        <ele>171</ele>
        <time>2016-03-29T13:14:34Z</time>
      </trkpt>
      <trkpt lat="45.18725" lon="0.41326">
        <ele>174</ele>
        <time>2016-03-29T13:14:38Z</time>
      </trkpt>
      <trkpt lat="45.18726" lon="0.4132">
        <ele>175</ele>
        <time>2016-03-29T13:14:47Z</time>
      </trkpt>
      <trkpt lat="45.18724" lon="0.41311">
        <ele>174</ele>
        <time>2016-03-29T13:14:51Z</time>
      </trkpt>
      <trkpt lat="45.18724" lon="0.413">
        <ele>175</ele>
        <time>2016-03-29T13:14:55Z</time>
      </trkpt>
      <trkpt lat="45.18724" lon="0.41295">
        <ele>174</ele>
        <time>2016-03-29T13:14:59Z</time>
      </trkpt>
      <trkpt lat="45.18727" lon="0.41292">
        <ele>176</ele>
        <time>2016-03-29T13:15:05Z</time>
      </trkpt>
      <trkpt lat="45.18724" lon="0.41283">
        <ele>167</ele>
        <time>2016-03-29T13:15:09Z</time>
      </trkpt>
      <trkpt lat="45.18726" lon="0.41276">
        <ele>165</ele>
        <time>2016-03-29T13:15:13Z</time>
      </trkpt>
      <trkpt lat="45.18728" lon="0.41268">
        <ele>162</ele>
        <time>2016-03-29T13:15:18Z</time>
      </trkpt>
      <trkpt lat="45.18729" lon="0.4126">
        <ele>160</ele>
        <time>2016-03-29T13:15:22Z</time>
      </trkpt>
      <trkpt lat="45.18733" lon="0.41254">
        <ele>158</ele>
        <time>2016-03-29T13:15:27Z</time>
      </trkpt>
      <trkpt lat="45.18735" lon="0.41246">
        <ele>156</ele>
        <time>2016-03-29T13:15:31Z</time>
      </trkpt>
      <trkpt lat="45.18737" lon="0.41241">
        <ele>155</ele>
        <time>2016-03-29T13:15:36Z</time>
      </trkpt>
      <trkpt lat="45.1874" lon="0.41235">
        <ele>155</ele>
        <time>2016-03-29T13:15:41Z</time>
      </trkpt>
      <trkpt lat="45.18744" lon="0.41233">
        <ele>159</ele>
        <time>2016-03-29T13:15:47Z</time>
      </trkpt>
      <trkpt lat="45.18745" lon="0.41227">
        <ele>159</ele>
        <time>2016-03-29T13:15:51Z</time>
      </trkpt>
      <trkpt lat="45.18747" lon="0.41219">
        <ele>159</ele>
        <time>2016-03-29T13:15:56Z</time>
      </trkpt>
      <trkpt lat="45.18748" lon="0.41215">
        <ele>160</ele>
        <time>2016-03-29T13:16:00Z</time>
      </trkpt>
      <trkpt lat="45.18749" lon="0.41206">
        <ele>159</ele>
        <time>2016-03-29T13:16:05Z</time>
      </trkpt>
      <trkpt lat="45.18745" lon="0.41203">
        <ele>159</ele>
        <time>2016-03-29T13:16:09Z</time>
      </trkpt>
      <trkpt lat="45.18741" lon="0.41196">
        <ele>160</ele>
        <time>2016-03-29T13:16:13Z</time>
      </trkpt>
      <trkpt lat="45.1874" lon="0.41191">
        <ele>163</ele>
        <time>2016-03-29T13:16:19Z</time>
      </trkpt>
      <trkpt lat="45.18743" lon="0.41187">
        <ele>166</ele>
        <time>2016-03-29T13:16:23Z</time>
      </trkpt>
      <trkpt lat="45.18741" lon="0.41183">
        <ele>165</ele>
        <time>2016-03-29T13:16:30Z</time>
      </trkpt>
      <trkpt lat="45.18743" lon="0.41177">
        <ele>161</ele>
        <time>2016-03-29T13:16:39Z</time>
      </trkpt>
      <trkpt lat="45.18746" lon="0.41171">
        <ele>162</ele>
        <time>2016-03-29T13:16:43Z</time>
      </trkpt>
      <trkpt lat="45.18746" lon="0.41165">
        <ele>160</ele>
        <time>2016-03-29T13:16:47Z</time>
      </trkpt>
      <trkpt lat="45.18751" lon="0.41162">
        <ele>162</ele>
        <time>2016-03-29T13:16:52Z</time>
      </trkpt>
      <trkpt lat="45.18753" lon="0.41154">
        <ele>163</ele>
        <time>2016-03-29T13:16:56Z</time>
      </trkpt>
      <trkpt lat="45.18756" lon="0.41147">
        <ele>161</ele>
        <time>2016-03-29T13:17:01Z</time>
      </trkpt>
      <trkpt lat="45.18759" lon="0.41142">
        <ele>162</ele>
        <time>2016-03-29T13:17:05Z</time>
      </trkpt>
      <trkpt lat="45.1876" lon="0.41136">
        <ele>163</ele>
        <time>2016-03-29T13:17:09Z</time>
      </trkpt>
      <trkpt lat="45.18763" lon="0.41133">
        <ele>164</ele>
        <time>2016-03-29T13:17:15Z</time>
      </trkpt>
      <trkpt lat="45.18766" lon="0.41127">
        <ele>166</ele>
        <time>2016-03-29T13:17:19Z</time>
      </trkpt>
      <trkpt lat="45.18769" lon="0.41121">
        <ele>168</ele>
        <time>2016-03-29T13:17:23Z</time>
      </trkpt>
      <trkpt lat="45.18773" lon="0.41115">
        <ele>171</ele>
        <time>2016-03-29T13:17:27Z</time>
      </trkpt>
      <trkpt lat="45.18775" lon="0.41113">
        <ele>173</ele>
        <time>2016-03-29T13:17:31Z</time>
      </trkpt>
      <trkpt lat="45.18772" lon="0.41103">
        <ele>162</ele>
        <time>2016-03-29T13:17:35Z</time>
      </trkpt>
      <trkpt lat="45.18775" lon="0.41099">
        <ele>164</ele>
        <time>2016-03-29T13:17:41Z</time>
      </trkpt>
      <trkpt lat="45.18779" lon="0.41099">
        <ele>167</ele>
        <time>2016-03-29T13:17:47Z</time>
      </trkpt>
      <trkpt lat="45.18783" lon="0.41093">
        <ele>171</ele>
        <time>2016-03-29T13:17:51Z</time>
      </trkpt>
      <trkpt lat="45.18787" lon="0.41089">
        <ele>171</ele>
        <time>2016-03-29T13:17:55Z</time>
      </trkpt>
      <trkpt lat="45.18792" lon="0.41082">
        <ele>173</ele>
        <time>2016-03-29T13:18:00Z</time>
      </trkpt>
      <trkpt lat="45.18794" lon="0.41076">
        <ele>172</ele>
        <time>2016-03-29T13:18:04Z</time>
      </trkpt>
      <trkpt lat="45.18798" lon="0.41072">
        <ele>173</ele>
        <time>2016-03-29T13:18:08Z</time>
      </trkpt>
      <trkpt lat="45.18802" lon="0.41064">
        <ele>174</ele>
        <time>2016-03-29T13:18:13Z</time>
      </trkpt>
      <trkpt lat="45.18805" lon="0.41061">
        <ele>176</ele>
        <time>2016-03-29T13:18:19Z</time>
      </trkpt>
      <trkpt lat="45.18808" lon="0.41058">
        <ele>176</ele>
        <time>2016-03-29T13:18:25Z</time>
      </trkpt>
      <trkpt lat="45.18811" lon="0.41052">
        <ele>180</ele>
        <time>2016-03-29T13:18:30Z</time>
      </trkpt>
      <trkpt lat="45.18813" lon="0.41041">
        <ele>183</ele>
        <time>2016-03-29T13:18:34Z</time>
      </trkpt>
      <trkpt lat="45.18816" lon="0.41036">
        <ele>185</ele>
        <time>2016-03-29T13:18:43Z</time>
      </trkpt>
      <trkpt lat="45.18819" lon="0.41033">
        <ele>187</ele>
        <time>2016-03-29T13:18:57Z</time>
      </trkpt>
      <trkpt lat="45.18821" lon="0.41024">
        <ele>187</ele>
        <time>2016-03-29T13:19:01Z</time>
      </trkpt>
      <trkpt lat="45.18823" lon="0.41019">
        <ele>187</ele>
        <time>2016-03-29T13:19:06Z</time>
      </trkpt>
      <trkpt lat="45.18826" lon="0.41012">
        <ele>188</ele>
        <time>2016-03-29T13:19:11Z</time>
      </trkpt>
      <trkpt lat="45.18829" lon="0.41008">
        <ele>191</ele>
        <time>2016-03-29T13:19:15Z</time>
      </trkpt>
      <trkpt lat="45.18831" lon="0.41005">
        <ele>190</ele>
        <time>2016-03-29T13:19:20Z</time>
      </trkpt>
      <trkpt lat="45.18832" lon="0.40995">
        <ele>188</ele>
        <time>2016-03-29T13:19:24Z</time>
      </trkpt>
      <trkpt lat="45.18833" lon="0.4099">
        <ele>188</ele>
        <time>2016-03-29T13:19:34Z</time>
      </trkpt>
      <trkpt lat="45.18835" lon="0.40983">
        <ele>189</ele>
        <time>2016-03-29T13:19:38Z</time>
      </trkpt>
      <trkpt lat="45.18838" lon="0.40977">
        <ele>190</ele>
        <time>2016-03-29T13:19:43Z</time>
      </trkpt>
      <trkpt lat="45.18842" lon="0.40971">
        <ele>192</ele>
        <time>2016-03-29T13:19:47Z</time>
      </trkpt>
      <trkpt lat="45.18843" lon="0.40965">
        <ele>191</ele>
        <time>2016-03-29T13:19:51Z</time>
      </trkpt>
      <trkpt lat="45.18846" lon="0.40962">
        <ele>192</ele>
        <time>2016-03-29T13:19:56Z</time>
      </trkpt>
      <trkpt lat="45.18847" lon="0.40957">
        <ele>189</ele>
        <time>2016-03-29T13:20:00Z</time>
      </trkpt>
      <trkpt lat="45.18851" lon="0.40952">
        <ele>192</ele>
        <time>2016-03-29T13:20:04Z</time>
      </trkpt>
      <trkpt lat="45.18853" lon="0.40946">
        <ele>189</ele>
        <time>2016-03-29T13:20:09Z</time>
      </trkpt>
      <trkpt lat="45.18855" lon="0.40941">
        <ele>187</ele>
        <time>2016-03-29T13:20:13Z</time>
      </trkpt>
      <trkpt lat="45.18858" lon="0.40935">
        <ele>189</ele>
        <time>2016-03-29T13:20:17Z</time>
      </trkpt>
      <trkpt lat="45.1886" lon="0.40928">
        <ele>186</ele>
        <time>2016-03-29T13:20:21Z</time>
      </trkpt>
      <trkpt lat="45.18862" lon="0.40922">
        <ele>183</ele>
        <time>2016-03-29T13:20:26Z</time>
      </trkpt>
      <trkpt lat="45.18865" lon="0.40917">
        <ele>180</ele>
        <time>2016-03-29T13:20:30Z</time>
      </trkpt>
      <trkpt lat="45.18869" lon="0.40912">
        <ele>181</ele>
        <time>2016-03-29T13:20:35Z</time>
      </trkpt>
      <trkpt lat="45.18872" lon="0.40904">
        <ele>179</ele>
        <time>2016-03-29T13:20:40Z</time>
      </trkpt>
      <trkpt lat="45.18874" lon="0.40897">
        <ele>180</ele>
        <time>2016-03-29T13:20:44Z</time>
      </trkpt>
      <trkpt lat="45.18878" lon="0.40891">
        <ele>182</ele>
        <time>2016-03-29T13:20:49Z</time>
      </trkpt>
      <trkpt lat="45.18881" lon="0.40883">
        <ele>183</ele>
        <time>2016-03-29T13:20:53Z</time>
      </trkpt>
      <trkpt lat="45.18885" lon="0.40875">
        <ele>185</ele>
        <time>2016-03-29T13:20:58Z</time>
      </trkpt>
      <trkpt lat="45.18888" lon="0.40871">
        <ele>186</ele>
        <time>2016-03-29T13:21:03Z</time>
      </trkpt>
      <trkpt lat="45.18891" lon="0.40865">
        <ele>187</ele>
        <time>2016-03-29T13:21:08Z</time>
      </trkpt>
      <trkpt lat="45.18894" lon="0.40859">
        <ele>188</ele>
        <time>2016-03-29T13:21:13Z</time>
      </trkpt>
      <trkpt lat="45.18898" lon="0.40856">
        <ele>190</ele>
        <time>2016-03-29T13:21:18Z</time>
      </trkpt>
      <trkpt lat="45.18901" lon="0.40851">
        <ele>191</ele>
        <time>2016-03-29T13:21:23Z</time>
      </trkpt>
      <trkpt lat="45.18902" lon="0.40844">
        <ele>192</ele>
        <time>2016-03-29T13:21:27Z</time>
      </trkpt>
      <trkpt lat="45.18904" lon="0.40839">
        <ele>195</ele>
        <time>2016-03-29T13:21:32Z</time>
      </trkpt>
      <trkpt lat="45.18907" lon="0.40836">
        <ele>196</ele>
        <time>2016-03-29T13:21:41Z</time>
      </trkpt>
      <trkpt lat="45.1891" lon="0.4083">
        <ele>197</ele>
        <time>2016-03-29T13:21:45Z</time>
      </trkpt>
      <trkpt lat="45.18915" lon="0.40826">
        <ele>203</ele>
        <time>2016-03-29T13:21:50Z</time>
      </trkpt>
      <trkpt lat="45.18917" lon="0.40821">
        <ele>203</ele>
        <time>2016-03-29T13:21:54Z</time>
      </trkpt>
      <trkpt lat="45.18919" lon="0.40817">
        <ele>208</ele>
        <time>2016-03-29T13:21:59Z</time>
      </trkpt>
      <trkpt lat="45.18922" lon="0.40812">
        <ele>207</ele>
        <time>2016-03-29T13:22:04Z</time>
      </trkpt>
      <trkpt lat="45.18924" lon="0.40807">
        <ele>206</ele>
        <time>2016-03-29T13:22:11Z</time>
      </trkpt>
      <trkpt lat="45.18927" lon="0.40802">
        <ele>205</ele>
        <time>2016-03-29T13:22:20Z</time>
      </trkpt>
      <trkpt lat="45.18929" lon="0.40797">
        <ele>199</ele>
        <time>2016-03-29T13:22:39Z</time>
      </trkpt>
      <trkpt lat="45.18933" lon="0.40788">
        <ele>200</ele>
        <time>2016-03-29T13:22:44Z</time>
      </trkpt>
      <trkpt lat="45.18936" lon="0.40787">
        <ele>199</ele>
        <time>2016-03-29T13:23:03Z</time>
      </trkpt>
      <trkpt lat="45.18937" lon="0.40781">
        <ele>203</ele>
        <time>2016-03-29T13:23:55Z</time>
      </trkpt>
      <trkpt lat="45.18934" lon="0.40776">
        <ele>210</ele>
        <time>2016-03-29T13:24:03Z</time>
      </trkpt>
      <trkpt lat="45.18933" lon="0.40771">
        <ele>212</ele>
        <time>2016-03-29T13:24:07Z</time>
      </trkpt>
      <trkpt lat="45.18928" lon="0.40763">
        <ele>209</ele>
        <time>2016-03-29T13:24:11Z</time>
      </trkpt>
      <trkpt lat="45.18925" lon="0.40761">
        <ele>213</ele>
        <time>2016-03-29T13:24:19Z</time>
      </trkpt>
      <trkpt lat="45.18919" lon="0.40759">
        <ele>214</ele>
        <time>2016-03-29T13:24:24Z</time>
      </trkpt>
      <trkpt lat="45.18916" lon="0.40757">
        <ele>214</ele>
        <time>2016-03-29T13:24:29Z</time>
      </trkpt>
      <trkpt lat="45.18911" lon="0.40755">
        <ele>216</ele>
        <time>2016-03-29T13:24:33Z</time>
      </trkpt>
      <trkpt lat="45.18905" lon="0.40753">
        <ele>214</ele>
        <time>2016-03-29T13:24:38Z</time>
      </trkpt>
      <trkpt lat="45.18897" lon="0.40751">
        <ele>212</ele>
        <time>2016-03-29T13:24:42Z</time>
      </trkpt>
      <trkpt lat="45.1889" lon="0.4075">
        <ele>210</ele>
        <time>2016-03-29T13:24:47Z</time>
      </trkpt>
      <trkpt lat="45.18884" lon="0.40749">
        <ele>210</ele>
        <time>2016-03-29T13:24:51Z</time>
      </trkpt>
      <trkpt lat="45.1888" lon="0.40749">
        <ele>209</ele>
        <time>2016-03-29T13:24:56Z</time>
      </trkpt>
      <trkpt lat="45.18874" lon="0.40749">
        <ele>210</ele>
        <time>2016-03-29T13:25:01Z</time>
      </trkpt>
      <trkpt lat="45.18871" lon="0.40747">
        <ele>210</ele>
        <time>2016-03-29T13:25:05Z</time>
      </trkpt>
      <trkpt lat="45.18868" lon="0.40746">
        <ele>207</ele>
        <time>2016-03-29T13:25:09Z</time>
      </trkpt>
      <trkpt lat="45.18862" lon="0.40745">
        <ele>206</ele>
        <time>2016-03-29T13:25:13Z</time>
      </trkpt>
      <trkpt lat="45.18858" lon="0.40747">
        <ele>211</ele>
        <time>2016-03-29T13:25:18Z</time>
      </trkpt>
      <trkpt lat="45.18852" lon="0.40748">
        <ele>212</ele>
        <time>2016-03-29T13:25:22Z</time>
      </trkpt>
      <trkpt lat="45.18847" lon="0.40746">
        <ele>213</ele>
        <time>2016-03-29T13:25:27Z</time>
      </trkpt>
      <trkpt lat="45.18841" lon="0.40744">
        <ele>213</ele>
        <time>2016-03-29T13:25:31Z</time>
      </trkpt>
      <trkpt lat="45.18834" lon="0.40741">
        <ele>211</ele>
        <time>2016-03-29T13:25:36Z</time>
      </trkpt>
      <trkpt lat="45.18828" lon="0.40741">
        <ele>209</ele>
        <time>2016-03-29T13:25:41Z</time>
      </trkpt>
      <trkpt lat="45.18823" lon="0.4074">
        <ele>211</ele>
        <time>2016-03-29T13:25:45Z</time>
      </trkpt>
      <trkpt lat="45.18819" lon="0.40741">
        <ele>216</ele>
        <time>2016-03-29T13:25:52Z</time>
      </trkpt>
      <trkpt lat="45.18815" lon="0.40742">
        <ele>216</ele>
        <time>2016-03-29T13:25:56Z</time>
      </trkpt>
      <trkpt lat="45.1881" lon="0.40746">
        <ele>216</ele>
        <time>2016-03-29T13:26:01Z</time>
      </trkpt>
      <trkpt lat="45.18806" lon="0.40748">
        <ele>219</ele>
        <time>2016-03-29T13:26:07Z</time>
      </trkpt>
      <trkpt lat="45.18799" lon="0.4075">
        <ele>218</ele>
        <time>2016-03-29T13:26:11Z</time>
      </trkpt>
      <trkpt lat="45.18793" lon="0.40752">
        <ele>218</ele>
        <time>2016-03-29T13:26:15Z</time>
      </trkpt>
      <trkpt lat="45.18782" lon="0.40755">
        <ele>215</ele>
        <time>2016-03-29T13:26:20Z</time>
      </trkpt>
      <trkpt lat="45.18776" lon="0.40756">
        <ele>213</ele>
        <time>2016-03-29T13:26:24Z</time>
      </trkpt>
      <trkpt lat="45.18773" lon="0.40759">
        <ele>219</ele>
        <time>2016-03-29T13:26:29Z</time>
      </trkpt>
      <trkpt lat="45.18769" lon="0.40759">
        <ele>219</ele>
        <time>2016-03-29T13:26:33Z</time>
      </trkpt>
      <trkpt lat="45.18762" lon="0.40757">
        <ele>213</ele>
        <time>2016-03-29T13:26:37Z</time>
      </trkpt>
      <trkpt lat="45.18757" lon="0.40756">
        <ele>209</ele>
        <time>2016-03-29T13:26:41Z</time>
      </trkpt>
      <trkpt lat="45.18753" lon="0.40755">
        <ele>210</ele>
        <time>2016-03-29T13:26:45Z</time>
      </trkpt>
      <trkpt lat="45.18744" lon="0.40753">
        <ele>209</ele>
        <time>2016-03-29T13:26:50Z</time>
      </trkpt>
      <trkpt lat="45.18739" lon="0.40752">
        <ele>207</ele>
        <time>2016-03-29T13:26:54Z</time>
      </trkpt>
      <trkpt lat="45.18738" lon="0.4075">
        <ele>207</ele>
        <time>2016-03-29T13:27:00Z</time>
      </trkpt>
      <trkpt lat="45.18733" lon="0.40749">
        <ele>204</ele>
        <time>2016-03-29T13:27:04Z</time>
      </trkpt>
      <trkpt lat="45.18729" lon="0.40748">
        <ele>206</ele>
        <time>2016-03-29T13:27:09Z</time>
      </trkpt>
      <trkpt lat="45.18723" lon="0.40743">
        <ele>204</ele>
        <time>2016-03-29T13:27:13Z</time>
      </trkpt>
      <trkpt lat="45.18713" lon="0.40738">
        <ele>197</ele>
        <time>2016-03-29T13:27:18Z</time>
      </trkpt>
      <trkpt lat="45.18711" lon="0.40734">
        <ele>203</ele>
        <time>2016-03-29T13:27:24Z</time>
      </trkpt>
      <trkpt lat="45.18704" lon="0.40732">
        <ele>205</ele>
        <time>2016-03-29T13:27:29Z</time>
      </trkpt>
      <trkpt lat="45.187" lon="0.40731">
        <ele>208</ele>
        <time>2016-03-29T13:27:33Z</time>
      </trkpt>
      <trkpt lat="45.18696" lon="0.40728">
        <ele>210</ele>
        <time>2016-03-29T13:27:37Z</time>
      </trkpt>
      <trkpt lat="45.1869" lon="0.40726">
        <ele>211</ele>
        <time>2016-03-29T13:27:41Z</time>
      </trkpt>
      <trkpt lat="45.18686" lon="0.40724">
        <ele>213</ele>
        <time>2016-03-29T13:27:45Z</time>
      </trkpt>
      <trkpt lat="45.18683" lon="0.40719">
        <ele>214</ele>
        <time>2016-03-29T13:27:49Z</time>
      </trkpt>
      <trkpt lat="45.18681" lon="0.40716">
        <ele>214</ele>
        <time>2016-03-29T13:27:53Z</time>
      </trkpt>
      <trkpt lat="45.18676" lon="0.40712">
        <ele>215</ele>
        <time>2016-03-29T13:27:58Z</time>
      </trkpt>
      <trkpt lat="45.1867" lon="0.40708">
        <ele>209</ele>
        <time>2016-03-29T13:28:02Z</time>
      </trkpt>
      <trkpt lat="45.18668" lon="0.40699">
        <ele>206</ele>
        <time>2016-03-29T13:28:07Z</time>
      </trkpt>
      <trkpt lat="45.18663" lon="0.40695">
        <ele>207</ele>
        <time>2016-03-29T13:28:11Z</time>
      </trkpt>
      <trkpt lat="45.18657" lon="0.40688">
        <ele>204</ele>
        <time>2016-03-29T13:28:16Z</time>
      </trkpt>
      <trkpt lat="45.18653" lon="0.40685">
        <ele>204</ele>
        <time>2016-03-29T13:28:20Z</time>
      </trkpt>
      <trkpt lat="45.18649" lon="0.40681">
        <ele>200</ele>
        <time>2016-03-29T13:28:25Z</time>
      </trkpt>
      <trkpt lat="45.18644" lon="0.40675">
        <ele>199</ele>
        <time>2016-03-29T13:28:29Z</time>
      </trkpt>
      <trkpt lat="45.18641" lon="0.40673">
        <ele>200</ele>
        <time>2016-03-29T13:28:37Z</time>
      </trkpt>
      <trkpt lat="45.18637" lon="0.4067">
        <ele>205</ele>
        <time>2016-03-29T13:28:42Z</time>
      </trkpt>
      <trkpt lat="45.18635" lon="0.40665">
        <ele>207</ele>
        <time>2016-03-29T13:28:47Z</time>
      </trkpt>
      <trkpt lat="45.18632" lon="0.40659">
        <ele>207</ele>
        <time>2016-03-29T13:28:52Z</time>
      </trkpt>
      <trkpt lat="45.18628" lon="0.40656">
        <ele>213</ele>
        <time>2016-03-29T13:28:59Z</time>
      </trkpt>
      <trkpt lat="45.18626" lon="0.40651">
        <ele>219</ele>
        <time>2016-03-29T13:29:04Z</time>
      </trkpt>
      <trkpt lat="45.18621" lon="0.40648">
        <ele>219</ele>
        <time>2016-03-29T13:29:08Z</time>
      </trkpt>
      <trkpt lat="45.18617" lon="0.40642">
        <ele>219</ele>
        <time>2016-03-29T13:29:12Z</time>
      </trkpt>
      <trkpt lat="45.18617" lon="0.40635">
        <ele>224</ele>
        <time>2016-03-29T13:29:17Z</time>
      </trkpt>
      <trkpt lat="45.18614" lon="0.4063">
        <ele>223</ele>
        <time>2016-03-29T13:29:21Z</time>
      </trkpt>
      <trkpt lat="45.18607" lon="0.40625">
        <ele>219</ele>
        <time>2016-03-29T13:29:25Z</time>
      </trkpt>
      <trkpt lat="45.18602" lon="0.40619">
        <ele>217</ele>
        <time>2016-03-29T13:29:30Z</time>
      </trkpt>
      <trkpt lat="45.18597" lon="0.40617">
        <ele>216</ele>
        <time>2016-03-29T13:29:34Z</time>
      </trkpt>
      <trkpt lat="45.18593" lon="0.40614">
        <ele>216</ele>
        <time>2016-03-29T13:29:38Z</time>
      </trkpt>
      <trkpt lat="45.1858" lon="0.40611">
        <ele>212</ele>
        <time>2016-03-29T13:29:43Z</time>
      </trkpt>
      <trkpt lat="45.18571" lon="0.40605">
        <ele>212</ele>
        <time>2016-03-29T13:29:48Z</time>
      </trkpt>
      <trkpt lat="45.18567" lon="0.40606">
        <ele>213</ele>
        <time>2016-03-29T13:29:52Z</time>
      </trkpt>
      <trkpt lat="45.1856" lon="0.40602">
        <ele>207</ele>
        <time>2016-03-29T13:29:57Z</time>
      </trkpt>
      <trkpt lat="45.18556" lon="0.406">
        <ele>208</ele>
        <time>2016-03-29T13:30:01Z</time>
      </trkpt>
      <trkpt lat="45.18546" lon="0.40595">
        <ele>206</ele>
        <time>2016-03-29T13:30:06Z</time>
      </trkpt>
      <trkpt lat="45.18542" lon="0.40593">
        <ele>210</ele>
        <time>2016-03-29T13:30:14Z</time>
      </trkpt>
      <trkpt lat="45.18541" lon="0.40588">
        <ele>211</ele>
        <time>2016-03-29T13:30:19Z</time>
      </trkpt>
      <trkpt lat="45.18537" lon="0.40587">
        <ele>210</ele>
        <time>2016-03-29T13:30:28Z</time>
      </trkpt>
      <trkpt lat="45.18534" lon="0.40586">
        <ele>211</ele>
        <time>2016-03-29T13:30:34Z</time>
      </trkpt>
      <trkpt lat="45.18521" lon="0.40582">
        <ele>206</ele>
        <time>2016-03-29T13:30:39Z</time>
      </trkpt>
      <trkpt lat="45.18518" lon="0.4058">
        <ele>204</ele>
        <time>2016-03-29T13:30:43Z</time>
      </trkpt>
      <trkpt lat="45.18513" lon="0.40579">
        <ele>203</ele>
        <time>2016-03-29T13:30:50Z</time>
      </trkpt>
      <trkpt lat="45.18506" lon="0.40577">
        <ele>199</ele>
        <time>2016-03-29T13:30:55Z</time>
      </trkpt>
      <trkpt lat="45.18495" lon="0.40575">
        <ele>194</ele>
        <time>2016-03-29T13:30:59Z</time>
      </trkpt>
      <trkpt lat="45.18491" lon="0.40575">
        <ele>195</ele>
        <time>2016-03-29T13:31:05Z</time>
      </trkpt>
      <trkpt lat="45.18483" lon="0.40575">
        <ele>190</ele>
        <time>2016-03-29T13:31:09Z</time>
      </trkpt>
      <trkpt lat="45.18478" lon="0.40577">
        <ele>192</ele>
        <time>2016-03-29T13:31:14Z</time>
      </trkpt>
      <trkpt lat="45.18474" lon="0.40574">
        <ele>193</ele>
        <time>2016-03-29T13:31:20Z</time>
      </trkpt>
      <trkpt lat="45.18467" lon="0.40578">
        <ele>197</ele>
        <time>2016-03-29T13:31:25Z</time>
      </trkpt>
      <trkpt lat="45.18462" lon="0.40575">
        <ele>197</ele>
        <time>2016-03-29T13:31:29Z</time>
      </trkpt>
      <trkpt lat="45.1846" lon="0.40577">
        <ele>197</ele>
        <time>2016-03-29T13:31:33Z</time>
      </trkpt>
      <trkpt lat="45.18452" lon="0.40576">
        <ele>194</ele>
        <time>2016-03-29T13:31:37Z</time>
      </trkpt>
      <trkpt lat="45.18448" lon="0.40574">
        <ele>198</ele>
        <time>2016-03-29T13:31:41Z</time>
      </trkpt>
      <trkpt lat="45.18443" lon="0.40578">
        <ele>198</ele>
        <time>2016-03-29T13:31:45Z</time>
      </trkpt>
      <trkpt lat="45.18434" lon="0.40579">
        <ele>201</ele>
        <time>2016-03-29T13:31:50Z</time>
      </trkpt>
      <trkpt lat="45.1843" lon="0.40578">
        <ele>200</ele>
        <time>2016-03-29T13:31:55Z</time>
      </trkpt>
      <trkpt lat="45.18425" lon="0.40579">
        <ele>200</ele>
        <time>2016-03-29T13:32:02Z</time>
      </trkpt>
      <trkpt lat="45.18421" lon="0.40579">
        <ele>200</ele>
        <time>2016-03-29T13:32:30Z</time>
      </trkpt>
      <trkpt lat="45.18418" lon="0.40574">
        <ele>204</ele>
        <time>2016-03-29T13:33:02Z</time>
      </trkpt>
      <trkpt lat="45.1842" lon="0.40571">
        <ele>203</ele>
        <time>2016-03-29T13:33:13Z</time>
      </trkpt>
      <trkpt lat="45.18421" lon="0.40564">
        <ele>198</ele>
        <time>2016-03-29T13:33:18Z</time>
      </trkpt>
      <trkpt lat="45.18421" lon="0.40558">
        <ele>194</ele>
        <time>2016-03-29T13:33:28Z</time>
      </trkpt>
      <trkpt lat="45.18425" lon="0.40554">
        <ele>195</ele>
        <time>2016-03-29T13:33:33Z</time>
      </trkpt>
      <trkpt lat="45.18428" lon="0.4055">
        <ele>195</ele>
        <time>2016-03-29T13:33:37Z</time>
      </trkpt>
      <trkpt lat="45.18431" lon="0.40544">
        <ele>196</ele>
        <time>2016-03-29T13:33:41Z</time>
      </trkpt>
      <trkpt lat="45.18434" lon="0.40531">
        <ele>193</ele>
        <time>2016-03-29T13:33:45Z</time>
      </trkpt>
      <trkpt lat="45.18438" lon="0.40524">
        <ele>192</ele>
        <time>2016-03-29T13:33:49Z</time>
      </trkpt>
      <trkpt lat="45.18442" lon="0.40515">
        <ele>196</ele>
        <time>2016-03-29T13:33:54Z</time>
      </trkpt>
      <trkpt lat="45.18446" lon="0.40507">
        <ele>198</ele>
        <time>2016-03-29T13:33:59Z</time>
      </trkpt>
      <trkpt lat="45.18448" lon="0.40501">
        <ele>201</ele>
        <time>2016-03-29T13:34:03Z</time>
      </trkpt>
      <trkpt lat="45.18452" lon="0.40494">
        <ele>203</ele>
        <time>2016-03-29T13:34:08Z</time>
      </trkpt>
      <trkpt lat="45.18454" lon="0.40489">
        <ele>204</ele>
        <time>2016-03-29T13:34:17Z</time>
      </trkpt>
      <trkpt lat="45.18455" lon="0.40482">
        <ele>205</ele>
        <time>2016-03-29T13:34:21Z</time>
      </trkpt>
      <trkpt lat="45.18456" lon="0.40472">
        <ele>202</ele>
        <time>2016-03-29T13:34:26Z</time>
      </trkpt>
      <trkpt lat="45.18457" lon="0.40462">
        <ele>200</ele>
        <time>2016-03-29T13:34:31Z</time>
      </trkpt>
      <trkpt lat="45.18456" lon="0.40458">
        <ele>203</ele>
        <time>2016-03-29T13:34:35Z</time>
      </trkpt>
      <trkpt lat="45.18451" lon="0.40453">
        <ele>203</ele>
        <time>2016-03-29T13:34:39Z</time>
      </trkpt>
      <trkpt lat="45.18447" lon="0.4045">
        <ele>202</ele>
        <time>2016-03-29T13:34:43Z</time>
      </trkpt>
      <trkpt lat="45.18444" lon="0.40445">
        <ele>206</ele>
        <time>2016-03-29T13:34:48Z</time>
      </trkpt>
      <trkpt lat="45.18441" lon="0.40442">
        <ele>206</ele>
        <time>2016-03-29T13:34:53Z</time>
      </trkpt>
      <trkpt lat="45.18433" lon="0.40436">
        <ele>204</ele>
        <time>2016-03-29T13:34:58Z</time>
      </trkpt>
      <trkpt lat="45.18428" lon="0.40425">
        <ele>200</ele>
        <time>2016-03-29T13:35:03Z</time>
      </trkpt>
      <trkpt lat="45.18424" lon="0.40421">
        <ele>202</ele>
        <time>2016-03-29T13:35:08Z</time>
      </trkpt>
      <trkpt lat="45.18421" lon="0.40418">
        <ele>202</ele>
        <time>2016-03-29T13:35:13Z</time>
      </trkpt>
      <trkpt lat="45.18416" lon="0.40415">
        <ele>201</ele>
        <time>2016-03-29T13:35:17Z</time>
      </trkpt>
      <trkpt lat="45.18412" lon="0.40409">
        <ele>201</ele>
        <time>2016-03-29T13:35:21Z</time>
      </trkpt>
      <trkpt lat="45.18404" lon="0.40404">
        <ele>196</ele>
        <time>2016-03-29T13:35:26Z</time>
      </trkpt>
      <trkpt lat="45.18403" lon="0.40399">
        <ele>197</ele>
        <time>2016-03-29T13:35:31Z</time>
      </trkpt>
      <trkpt lat="45.18398" lon="0.40395">
        <ele>197</ele>
        <time>2016-03-29T13:35:35Z</time>
      </trkpt>
      <trkpt lat="45.18394" lon="0.40393">
        <ele>198</ele>
        <time>2016-03-29T13:35:39Z</time>
      </trkpt>
      <trkpt lat="45.1839" lon="0.40391">
        <ele>198</ele>
        <time>2016-03-29T13:35:48Z</time>
      </trkpt>
      <trkpt lat="45.18387" lon="0.40387">
        <ele>201</ele>
        <time>2016-03-29T13:35:55Z</time>
      </trkpt>
      <trkpt lat="45.18379" lon="0.40381">
        <ele>203</ele>
        <time>2016-03-29T13:36:00Z</time>
      </trkpt>
      <trkpt lat="45.18371" lon="0.40378">
        <ele>201</ele>
        <time>2016-03-29T13:36:04Z</time>
      </trkpt>
      <trkpt lat="45.18364" lon="0.40373">
        <ele>200</ele>
        <time>2016-03-29T13:36:09Z</time>
      </trkpt>
      <trkpt lat="45.18358" lon="0.40369">
        <ele>198</ele>
        <time>2016-03-29T13:36:13Z</time>
      </trkpt>
      <trkpt lat="45.18353" lon="0.40366">
        <ele>200</ele>
        <time>2016-03-29T13:36:18Z</time>
      </trkpt>
      <trkpt lat="45.18348" lon="0.40365">
        <ele>202</ele>
        <time>2016-03-29T13:36:22Z</time>
      </trkpt>
      <trkpt lat="45.18344" lon="0.40364">
        <ele>204</ele>
        <time>2016-03-29T13:36:29Z</time>
      </trkpt>
      <trkpt lat="45.1834" lon="0.4036">
        <ele>206</ele>
        <time>2016-03-29T13:36:33Z</time>
      </trkpt>
      <trkpt lat="45.18334" lon="0.40357">
        <ele>205</ele>
        <time>2016-03-29T13:36:37Z</time>
      </trkpt>
      <trkpt lat="45.18328" lon="0.40355">
        <ele>209</ele>
        <time>2016-03-29T13:36:42Z</time>
      </trkpt>
      <trkpt lat="45.18324" lon="0.40353">
        <ele>206</ele>
        <time>2016-03-29T13:36:46Z</time>
      </trkpt>
      <trkpt lat="45.18318" lon="0.40349">
        <ele>203</ele>
        <time>2016-03-29T13:36:50Z</time>
      </trkpt>
      <trkpt lat="45.18315" lon="0.40343">
        <ele>202</ele>
        <time>2016-03-29T13:36:54Z</time>
      </trkpt>
      <trkpt lat="45.1831" lon="0.40335">
        <ele>202</ele>
        <time>2016-03-29T13:36:59Z</time>
      </trkpt>
      <trkpt lat="45.18303" lon="0.40328">
        <ele>196</ele>
        <time>2016-03-29T13:37:03Z</time>
      </trkpt>
      <trkpt lat="45.18298" lon="0.40324">
        <ele>195</ele>
        <time>2016-03-29T13:37:08Z</time>
      </trkpt>
      <trkpt lat="45.18295" lon="0.40319">
        <ele>200</ele>
        <time>2016-03-29T13:37:14Z</time>
      </trkpt>
      <trkpt lat="45.18293" lon="0.40312">
        <ele>202</ele>
        <time>2016-03-29T13:37:19Z</time>
      </trkpt>
      <trkpt lat="45.18284" lon="0.40306">
        <ele>198</ele>
        <time>2016-03-29T13:37:24Z</time>
      </trkpt>
      <trkpt lat="45.18278" lon="0.40301">
        <ele>198</ele>
        <time>2016-03-29T13:37:29Z</time>
      </trkpt>
      <trkpt lat="45.18275" lon="0.40294">
        <ele>195</ele>
        <time>2016-03-29T13:37:33Z</time>
      </trkpt>
      <trkpt lat="45.18274" lon="0.40289">
        <ele>193</ele>
        <time>2016-03-29T13:37:38Z</time>
      </trkpt>
      <trkpt lat="45.18271" lon="0.40289">
        <ele>191</ele>
        <time>2016-03-29T13:37:44Z</time>
      </trkpt>
      <trkpt lat="45.18268" lon="0.40286">
        <ele>191</ele>
        <time>2016-03-29T13:37:59Z</time>
      </trkpt>
      <trkpt lat="45.18264" lon="0.40288">
        <ele>190</ele>
        <time>2016-03-29T13:38:36Z</time>
      </trkpt>
      <trkpt lat="45.18262" lon="0.40292">
        <ele>187</ele>
        <time>2016-03-29T13:38:47Z</time>
      </trkpt>
      <trkpt lat="45.18258" lon="0.40292">
        <ele>184</ele>
        <time>2016-03-29T13:38:52Z</time>
      </trkpt>
      <trkpt lat="45.18255" lon="0.40297">
        <ele>185</ele>
        <time>2016-03-29T13:38:58Z</time>
      </trkpt>
      <trkpt lat="45.18252" lon="0.40294">
        <ele>190</ele>
        <time>2016-03-29T13:39:14Z</time>
      </trkpt>
      <trkpt lat="45.1825" lon="0.4029">
        <ele>193</ele>
        <time>2016-03-29T13:39:20Z</time>
      </trkpt>
      <trkpt lat="45.18241" lon="0.40285">
        <ele>189</ele>
        <time>2016-03-29T13:39:25Z</time>
      </trkpt>
      <trkpt lat="45.18238" lon="0.40281">
        <ele>189</ele>
        <time>2016-03-29T13:39:29Z</time>
      </trkpt>
      <trkpt lat="45.18233" lon="0.40276">
        <ele>190</ele>
        <time>2016-03-29T13:39:33Z</time>
      </trkpt>
      <trkpt lat="45.18226" lon="0.40272">
        <ele>192</ele>
        <time>2016-03-29T13:39:38Z</time>
      </trkpt>
      <trkpt lat="45.18223" lon="0.40267">
        <ele>192</ele>
        <time>2016-03-29T13:39:42Z</time>
      </trkpt>
      <trkpt lat="45.18218" lon="0.40263">
        <ele>193</ele>
        <time>2016-03-29T13:39:46Z</time>
      </trkpt>
      <trkpt lat="45.18214" lon="0.40258">
        <ele>195</ele>
        <time>2016-03-29T13:39:51Z</time>
      </trkpt>
      <trkpt lat="45.18213" lon="0.40253">
        <ele>196</ele>
        <time>2016-03-29T13:39:58Z</time>
      </trkpt>
      <trkpt lat="45.18209" lon="0.40252">
        <ele>195</ele>
        <time>2016-03-29T13:40:02Z</time>
      </trkpt>
      <trkpt lat="45.18203" lon="0.40247">
        <ele>192</ele>
        <time>2016-03-29T13:40:06Z</time>
      </trkpt>
      <trkpt lat="45.18196" lon="0.40243">
        <ele>193</ele>
        <time>2016-03-29T13:40:10Z</time>
      </trkpt>
      <trkpt lat="45.18192" lon="0.4024">
        <ele>190</ele>
        <time>2016-03-29T13:40:14Z</time>
      </trkpt>
      <trkpt lat="45.18189" lon="0.40235">
        <ele>192</ele>
        <time>2016-03-29T13:40:19Z</time>
      </trkpt>
      <trkpt lat="45.18185" lon="0.4023">
        <ele>193</ele>
        <time>2016-03-29T13:40:24Z</time>
      </trkpt>
      <trkpt lat="45.18178" lon="0.40228">
        <ele>192</ele>
        <time>2016-03-29T13:40:28Z</time>
      </trkpt>
      <trkpt lat="45.18174" lon="0.40223">
        <ele>189</ele>
        <time>2016-03-29T13:40:33Z</time>
      </trkpt>
      <trkpt lat="45.1817" lon="0.40222">
        <ele>187</ele>
        <time>2016-03-29T13:40:38Z</time>
      </trkpt>
      <trkpt lat="45.18167" lon="0.40218">
        <ele>186</ele>
        <time>2016-03-29T13:40:42Z</time>
      </trkpt>
      <trkpt lat="45.18161" lon="0.40215">
        <ele>184</ele>
        <time>2016-03-29T13:40:46Z</time>
      </trkpt>
      <trkpt lat="45.18158" lon="0.40211">
        <ele>183</ele>
        <time>2016-03-29T13:40:50Z</time>
      </trkpt>
      <trkpt lat="45.18154" lon="0.40207">
        <ele>184</ele>
        <time>2016-03-29T13:40:55Z</time>
      </trkpt>
      <trkpt lat="45.1815" lon="0.40205">
        <ele>184</ele>
        <time>2016-03-29T13:41:00Z</time>
      </trkpt>
      <trkpt lat="45.18144" lon="0.40202">
        <ele>184</ele>
        <time>2016-03-29T13:41:05Z</time>
      </trkpt>
      <trkpt lat="45.1814" lon="0.40197">
        <ele>186</ele>
        <time>2016-03-29T13:41:09Z</time>
      </trkpt>
      <trkpt lat="45.18134" lon="0.40195">
        <ele>185</ele>
        <time>2016-03-29T13:41:13Z</time>
      </trkpt>
      <trkpt lat="45.18127" lon="0.40191">
        <ele>183</ele>
        <time>2016-03-29T13:41:18Z</time>
      </trkpt>
      <trkpt lat="45.18125" lon="0.40189">
        <ele>182</ele>
        <time>2016-03-29T13:41:25Z</time>
      </trkpt>
      <trkpt lat="45.1812" lon="0.40185">
        <ele>183</ele>
        <time>2016-03-29T13:41:29Z</time>
      </trkpt>
      <trkpt lat="45.1811" lon="0.40178">
        <ele>181</ele>
        <time>2016-03-29T13:41:34Z</time>
      </trkpt>
      <trkpt lat="45.18106" lon="0.40177">
        <ele>180</ele>
        <time>2016-03-29T13:41:38Z</time>
      </trkpt>
      <trkpt lat="45.18104" lon="0.40173">
        <ele>181</ele>
        <time>2016-03-29T13:41:44Z</time>
      </trkpt>
      <trkpt lat="45.18098" lon="0.4017">
        <ele>180</ele>
        <time>2016-03-29T13:41:48Z</time>
      </trkpt>
      <trkpt lat="45.18094" lon="0.40167">
        <ele>178</ele>
        <time>2016-03-29T13:41:56Z</time>
      </trkpt>
      <trkpt lat="45.18086" lon="0.40163">
        <ele>177</ele>
        <time>2016-03-29T13:42:00Z</time>
      </trkpt>
      <trkpt lat="45.18083" lon="0.40161">
        <ele>176</ele>
        <time>2016-03-29T13:42:11Z</time>
      </trkpt>
      <trkpt lat="45.18076" lon="0.40154">
        <ele>178</ele>
        <time>2016-03-29T13:42:15Z</time>
      </trkpt>
      <trkpt lat="45.1807" lon="0.40153">
        <ele>179</ele>
        <time>2016-03-29T13:42:19Z</time>
      </trkpt>
      <trkpt lat="45.18065" lon="0.40154">
        <ele>177</ele>
        <time>2016-03-29T13:42:23Z</time>
      </trkpt>
      <trkpt lat="45.18064" lon="0.4015">
        <ele>180</ele>
        <time>2016-03-29T13:42:31Z</time>
      </trkpt>
      <trkpt lat="45.1806" lon="0.40146">
        <ele>179</ele>
        <time>2016-03-29T13:42:36Z</time>
      </trkpt>
      <trkpt lat="45.18059" lon="0.40143">
        <ele>179</ele>
        <time>2016-03-29T13:42:46Z</time>
      </trkpt>
      <trkpt lat="45.18049" lon="0.40131">
        <ele>185</ele>
        <time>2016-03-29T13:42:51Z</time>
      </trkpt>
      <trkpt lat="45.18042" lon="0.40122">
        <ele>183</ele>
        <time>2016-03-29T13:42:56Z</time>
      </trkpt>
      <trkpt lat="45.18033" lon="0.40118">
        <ele>182</ele>
        <time>2016-03-29T13:43:01Z</time>
      </trkpt>
      <trkpt lat="45.18028" lon="0.40112">
        <ele>183</ele>
        <time>2016-03-29T13:43:05Z</time>
      </trkpt>
      <trkpt lat="45.18026" lon="0.40108">
        <ele>185</ele>
        <time>2016-03-29T13:43:15Z</time>
      </trkpt>
      <trkpt lat="45.18021" lon="0.40104">
        <ele>189</ele>
        <time>2016-03-29T13:43:20Z</time>
      </trkpt>
      <trkpt lat="45.18018" lon="0.40102">
        <ele>190</ele>
        <time>2016-03-29T13:43:25Z</time>
      </trkpt>
      <trkpt lat="45.18013" lon="0.401">
        <ele>189</ele>
        <time>2016-03-29T13:43:30Z</time>
      </trkpt>
      <trkpt lat="45.18009" lon="0.40099">
        <ele>187</ele>
        <time>2016-03-29T13:43:34Z</time>
      </trkpt>
      <trkpt lat="45.18006" lon="0.40096">
        <ele>189</ele>
        <time>2016-03-29T13:43:41Z</time>
      </trkpt>
      <trkpt lat="45.18002" lon="0.4009">
        <ele>188</ele>
        <time>2016-03-29T13:43:46Z</time>
      </trkpt>
      <trkpt lat="45.17999" lon="0.40087">
        <ele>188</ele>
        <time>2016-03-29T13:43:50Z</time>
      </trkpt>
      <trkpt lat="45.17995" lon="0.40084">
        <ele>186</ele>
        <time>2016-03-29T13:44:05Z</time>
      </trkpt>
      <trkpt lat="45.17987" lon="0.4008">
        <ele>188</ele>
        <time>2016-03-29T13:44:10Z</time>
      </trkpt>
      <trkpt lat="45.17979" lon="0.40076">
        <ele>189</ele>
        <time>2016-03-29T13:44:14Z</time>
      </trkpt>
      <trkpt lat="45.17972" lon="0.40072">
        <ele>189</ele>
        <time>2016-03-29T13:44:18Z</time>
      </trkpt>
      <trkpt lat="45.17968" lon="0.40065">
        <ele>190</ele>
        <time>2016-03-29T13:44:23Z</time>
      </trkpt>
      <trkpt lat="45.17963" lon="0.40062">
        <ele>190</ele>
        <time>2016-03-29T13:44:27Z</time>
      </trkpt>
      <trkpt lat="45.17959" lon="0.40057">
        <ele>189</ele>
        <time>2016-03-29T13:44:32Z</time>
      </trkpt>
      <trkpt lat="45.17959" lon="0.40051">
        <ele>193</ele>
        <time>2016-03-29T13:44:38Z</time>
      </trkpt>
      <trkpt lat="45.17952" lon="0.40049">
        <ele>192</ele>
        <time>2016-03-29T13:44:42Z</time>
      </trkpt>
      <trkpt lat="45.17948" lon="0.40046">
        <ele>192</ele>
        <time>2016-03-29T13:44:47Z</time>
      </trkpt>
      <trkpt lat="45.17939" lon="0.40041">
        <ele>191</ele>
        <time>2016-03-29T13:44:52Z</time>
      </trkpt>
      <trkpt lat="45.17937" lon="0.40036">
        <ele>191</ele>
        <time>2016-03-29T13:44:56Z</time>
      </trkpt>
      <trkpt lat="45.17933" lon="0.40034">
        <ele>190</ele>
        <time>2016-03-29T13:45:00Z</time>
      </trkpt>
      <trkpt lat="45.17926" lon="0.40031">
        <ele>187</ele>
        <time>2016-03-29T13:45:04Z</time>
      </trkpt>
      <trkpt lat="45.17918" lon="0.40028">
        <ele>187</ele>
        <time>2016-03-29T13:45:08Z</time>
      </trkpt>
      <trkpt lat="45.17915" lon="0.40025">
        <ele>187</ele>
        <time>2016-03-29T13:45:14Z</time>
      </trkpt>
      <trkpt lat="45.1791" lon="0.40018">
        <ele>187</ele>
        <time>2016-03-29T13:45:18Z</time>
      </trkpt>
      <trkpt lat="45.17906" lon="0.40015">
        <ele>186</ele>
        <time>2016-03-29T13:45:30Z</time>
      </trkpt>
      <trkpt lat="45.17903" lon="0.40014">
        <ele>187</ele>
        <time>2016-03-29T13:45:34Z</time>
      </trkpt>
      <trkpt lat="45.17896" lon="0.40005">
        <ele>190</ele>
        <time>2016-03-29T13:45:38Z</time>
      </trkpt>
      <trkpt lat="45.17887" lon="0.40003">
        <ele>191</ele>
        <time>2016-03-29T13:45:43Z</time>
      </trkpt>
      <trkpt lat="45.17883" lon="0.40005">
        <ele>187</ele>
        <time>2016-03-29T13:45:49Z</time>
      </trkpt>
      <trkpt lat="45.17879" lon="0.40003">
        <ele>186</ele>
        <time>2016-03-29T13:45:53Z</time>
      </trkpt>
      <trkpt lat="45.17875" lon="0.40003">
        <ele>185</ele>
        <time>2016-03-29T13:45:57Z</time>
      </trkpt>
      <trkpt lat="45.1787" lon="0.40002">
        <ele>186</ele>
        <time>2016-03-29T13:46:02Z</time>
      </trkpt>
      <trkpt lat="45.17867" lon="0.40003">
        <ele>184</ele>
        <time>2016-03-29T13:46:06Z</time>
      </trkpt>
      <trkpt lat="45.17862" lon="0.40002">
        <ele>182</ele>
        <time>2016-03-29T13:46:10Z</time>
      </trkpt>
      <trkpt lat="45.17857" lon="0.39992">
        <ele>188</ele>
        <time>2016-03-29T13:46:14Z</time>
      </trkpt>
      <trkpt lat="45.17849" lon="0.39987">
        <ele>188</ele>
        <time>2016-03-29T13:46:18Z</time>
      </trkpt>
      <trkpt lat="45.17845" lon="0.39984">
        <ele>186</ele>
        <time>2016-03-29T13:46:23Z</time>
      </trkpt>
      <trkpt lat="45.17836" lon="0.39982">
        <ele>189</ele>
        <time>2016-03-29T13:46:27Z</time>
      </trkpt>
      <trkpt lat="45.17834" lon="0.3998">
        <ele>191</ele>
        <time>2016-03-29T13:46:32Z</time>
      </trkpt>
      <trkpt lat="45.17828" lon="0.39976">
        <ele>191</ele>
        <time>2016-03-29T13:46:37Z</time>
      </trkpt>
      <trkpt lat="45.17813" lon="0.39979">
        <ele>189</ele>
        <time>2016-03-29T13:46:42Z</time>
      </trkpt>
      <trkpt lat="45.17808" lon="0.39975">
        <ele>188</ele>
        <time>2016-03-29T13:46:46Z</time>
      </trkpt>
      <trkpt lat="45.17803" lon="0.39975">
        <ele>191</ele>
        <time>2016-03-29T13:46:50Z</time>
      </trkpt>
      <trkpt lat="45.17801" lon="0.39973">
        <ele>189</ele>
        <time>2016-03-29T13:46:57Z</time>
      </trkpt>
      <trkpt lat="45.17797" lon="0.3997">
        <ele>189</ele>
        <time>2016-03-29T13:47:02Z</time>
      </trkpt>
      <trkpt lat="45.17793" lon="0.39971">
        <ele>190</ele>
        <time>2016-03-29T13:47:06Z</time>
      </trkpt>
      <trkpt lat="45.1779" lon="0.3997">
        <ele>191</ele>
        <time>2016-03-29T13:47:10Z</time>
      </trkpt>
      <trkpt lat="45.17784" lon="0.39965">
        <ele>189</ele>
        <time>2016-03-29T13:47:14Z</time>
      </trkpt>
      <trkpt lat="45.17778" lon="0.39967">
        <ele>186</ele>
        <time>2016-03-29T13:47:18Z</time>
      </trkpt>
      <trkpt lat="45.17775" lon="0.39965">
        <ele>185</ele>
        <time>2016-03-29T13:47:23Z</time>
      </trkpt>
      <trkpt lat="45.17773" lon="0.39969">
        <ele>181</ele>
        <time>2016-03-29T13:48:14Z</time>
      </trkpt>
      <trkpt lat="45.1777" lon="0.39973">
        <ele>176</ele>
        <time>2016-03-29T13:48:19Z</time>
      </trkpt>
      <trkpt lat="45.17771" lon="0.39968">
        <ele>176</ele>
        <time>2016-03-29T13:49:59Z</time>
      </trkpt>
      <trkpt lat="45.17774" lon="0.39965">
        <ele>179</ele>
        <time>2016-03-29T13:50:09Z</time>
      </trkpt>
      <trkpt lat="45.17777" lon="0.39961">
        <ele>179</ele>
        <time>2016-03-29T13:50:14Z</time>
      </trkpt>
      <trkpt lat="45.17781" lon="0.3996">
        <ele>180</ele>
        <time>2016-03-29T13:50:29Z</time>
      </trkpt>
      <trkpt lat="45.17784" lon="0.39956">
        <ele>184</ele>
        <time>2016-03-29T13:50:58Z</time>
      </trkpt>
      <trkpt lat="45.17791" lon="0.39956">
        <ele>185</ele>
        <time>2016-03-29T13:51:02Z</time>
      </trkpt>
      <trkpt lat="45.17799" lon="0.39952">
        <ele>189</ele>
        <time>2016-03-29T13:51:06Z</time>
      </trkpt>
      <trkpt lat="45.1781" lon="0.39945">
        <ele>191</ele>
        <time>2016-03-29T13:51:11Z</time>
      </trkpt>
      <trkpt lat="45.17818" lon="0.39938">
        <ele>189</ele>
        <time>2016-03-29T13:51:15Z</time>
      </trkpt>
      <trkpt lat="45.17822" lon="0.39932">
        <ele>190</ele>
        <time>2016-03-29T13:51:19Z</time>
      </trkpt>
      <trkpt lat="45.17829" lon="0.39931">
        <ele>189</ele>
        <time>2016-03-29T13:51:24Z</time>
      </trkpt>
      <trkpt lat="45.17833" lon="0.39933">
        <ele>189</ele>
        <time>2016-03-29T13:51:30Z</time>
      </trkpt>
      <trkpt lat="45.1784" lon="0.3993">
        <ele>189</ele>
        <time>2016-03-29T13:51:35Z</time>
      </trkpt>
      <trkpt lat="45.17847" lon="0.39934">
        <ele>190</ele>
        <time>2016-03-29T13:51:39Z</time>
      </trkpt>
      <trkpt lat="45.17854" lon="0.39931">
        <ele>190</ele>
        <time>2016-03-29T13:51:44Z</time>
      </trkpt>
      <trkpt lat="45.17858" lon="0.39923">
        <ele>185</ele>
        <time>2016-03-29T13:51:48Z</time>
      </trkpt>
      <trkpt lat="45.17863" lon="0.3992">
        <ele>183</ele>
        <time>2016-03-29T13:51:52Z</time>
      </trkpt>
      <trkpt lat="45.17867" lon="0.39918">
        <ele>185</ele>
        <time>2016-03-29T13:51:58Z</time>
      </trkpt>
      <trkpt lat="45.17877" lon="0.39912">
        <ele>186</ele>
        <time>2016-03-29T13:52:03Z</time>
      </trkpt>
      <trkpt lat="45.17883" lon="0.39911">
        <ele>187</ele>
        <time>2016-03-29T13:52:08Z</time>
      </trkpt>
      <trkpt lat="45.17887" lon="0.3991">
        <ele>189</ele>
        <time>2016-03-29T13:52:15Z</time>
      </trkpt>
      <trkpt lat="45.17893" lon="0.39911">
        <ele>190</ele>
        <time>2016-03-29T13:52:20Z</time>
      </trkpt>
      <trkpt lat="45.17898" lon="0.39913">
        <ele>192</ele>
        <time>2016-03-29T13:52:25Z</time>
      </trkpt>
      <trkpt lat="45.17902" lon="0.3991">
        <ele>187</ele>
        <time>2016-03-29T13:52:29Z</time>
      </trkpt>
      <trkpt lat="45.17906" lon="0.39907">
        <ele>188</ele>
        <time>2016-03-29T13:52:33Z</time>
      </trkpt>
      <trkpt lat="45.17914" lon="0.39906">
        <ele>187</ele>
        <time>2016-03-29T13:52:38Z</time>
      </trkpt>
      <trkpt lat="45.17922" lon="0.39907">
        <ele>186</ele>
        <time>2016-03-29T13:52:42Z</time>
      </trkpt>
      <trkpt lat="45.17925" lon="0.39909">
        <ele>185</ele>
        <time>2016-03-29T13:52:47Z</time>
      </trkpt>
      <trkpt lat="45.1793" lon="0.39909">
        <ele>185</ele>
        <time>2016-03-29T13:52:51Z</time>
      </trkpt>
      <trkpt lat="45.17932" lon="0.39914">
        <ele>186</ele>
        <time>2016-03-29T13:52:59Z</time>
      </trkpt>
      <trkpt lat="45.17939" lon="0.39914">
        <ele>187</ele>
        <time>2016-03-29T13:53:03Z</time>
      </trkpt>
      <trkpt lat="45.17942" lon="0.39917">
        <ele>186</ele>
        <time>2016-03-29T13:53:08Z</time>
      </trkpt>
      <trkpt lat="45.17948" lon="0.39917">
        <ele>187</ele>
        <time>2016-03-29T13:53:13Z</time>
      </trkpt>
      <trkpt lat="45.17957" lon="0.39918">
        <ele>193</ele>
        <time>2016-03-29T13:53:17Z</time>
      </trkpt>
      <trkpt lat="45.17966" lon="0.39917">
        <ele>192</ele>
        <time>2016-03-29T13:53:21Z</time>
      </trkpt>
      <trkpt lat="45.17971" lon="0.39918">
        <ele>190</ele>
        <time>2016-03-29T13:53:25Z</time>
      </trkpt>
      <trkpt lat="45.17976" lon="0.3992">
        <ele>186</ele>
        <time>2016-03-29T13:53:29Z</time>
      </trkpt>
      <trkpt lat="45.17983" lon="0.39922">
        <ele>185</ele>
        <time>2016-03-29T13:53:34Z</time>
      </trkpt>
      <trkpt lat="45.17989" lon="0.39923">
        <ele>185</ele>
        <time>2016-03-29T13:53:38Z</time>
      </trkpt>
      <trkpt lat="45.17995" lon="0.39922">
        <ele>184</ele>
        <time>2016-03-29T13:53:43Z</time>
      </trkpt>
      <trkpt lat="45.17998" lon="0.39919">
        <ele>186</ele>
        <time>2016-03-29T13:53:56Z</time>
      </trkpt>
      <trkpt lat="45.17998" lon="0.39912">
        <ele>183</ele>
        <time>2016-03-29T13:54:00Z</time>
      </trkpt>
      <trkpt lat="45.17999" lon="0.39905">
        <ele>182</ele>
        <time>2016-03-29T13:54:05Z</time>
      </trkpt>
      <trkpt lat="45.17997" lon="0.39895">
        <ele>181</ele>
        <time>2016-03-29T13:54:10Z</time>
      </trkpt>
      <trkpt lat="45.17994" lon="0.3989">
        <ele>181</ele>
        <time>2016-03-29T13:54:14Z</time>
      </trkpt>
      <trkpt lat="45.17994" lon="0.39882">
        <ele>182</ele>
        <time>2016-03-29T13:54:18Z</time>
      </trkpt>
      <trkpt lat="45.17992" lon="0.39876">
        <ele>182</ele>
        <time>2016-03-29T13:54:22Z</time>
      </trkpt>
      <trkpt lat="45.1799" lon="0.39871">
        <ele>181</ele>
        <time>2016-03-29T13:54:26Z</time>
      </trkpt>
      <trkpt lat="45.17985" lon="0.39866">
        <ele>181</ele>
        <time>2016-03-29T13:54:31Z</time>
      </trkpt>
      <trkpt lat="45.17984" lon="0.39861">
        <ele>178</ele>
        <time>2016-03-29T13:54:36Z</time>
      </trkpt>
      <trkpt lat="45.17981" lon="0.39854">
        <ele>176</ele>
        <time>2016-03-29T13:54:40Z</time>
      </trkpt>
      <trkpt lat="45.17981" lon="0.39848">
        <ele>176</ele>
        <time>2016-03-29T13:54:46Z</time>
      </trkpt>
      <trkpt lat="45.17979" lon="0.39841">
        <ele>176</ele>
        <time>2016-03-29T13:54:50Z</time>
      </trkpt>
      <trkpt lat="45.17978" lon="0.39833">
        <ele>176</ele>
        <time>2016-03-29T13:54:54Z</time>
      </trkpt>
      <trkpt lat="45.17973" lon="0.39822">
        <ele>177</ele>
        <time>2016-03-29T13:54:58Z</time>
      </trkpt>
      <trkpt lat="45.17971" lon="0.39816">
        <ele>177</ele>
        <time>2016-03-29T13:55:03Z</time>
      </trkpt>
      <trkpt lat="45.17968" lon="0.39811">
        <ele>174</ele>
        <time>2016-03-29T13:55:09Z</time>
      </trkpt>
      <trkpt lat="45.17967" lon="0.39809">
        <ele>173</ele>
        <time>2016-03-29T13:55:15Z</time>
      </trkpt>
      <trkpt lat="45.17965" lon="0.39805">
        <ele>173</ele>
        <time>2016-03-29T13:55:22Z</time>
      </trkpt>
      <trkpt lat="45.17959" lon="0.39796">
        <ele>175</ele>
        <time>2016-03-29T13:55:27Z</time>
      </trkpt>
      <trkpt lat="45.17963" lon="0.39786">
        <ele>178</ele>
        <time>2016-03-29T13:55:32Z</time>
      </trkpt>
      <trkpt lat="45.17959" lon="0.39776">
        <ele>177</ele>
        <time>2016-03-29T13:55:36Z</time>
      </trkpt>
      <trkpt lat="45.17956" lon="0.3977">
        <ele>179</ele>
        <time>2016-03-29T13:55:41Z</time>
      </trkpt>
      <trkpt lat="45.17958" lon="0.39758">
        <ele>180</ele>
        <time>2016-03-29T13:55:45Z</time>
      </trkpt>
      <trkpt lat="45.17959" lon="0.39749">
        <ele>180</ele>
        <time>2016-03-29T13:55:49Z</time>
      </trkpt>
      <trkpt lat="45.1796" lon="0.39743">
        <ele>184</ele>
        <time>2016-03-29T13:55:53Z</time>
      </trkpt>
      <trkpt lat="45.1795" lon="0.39741">
        <ele>189</ele>
        <time>2016-03-29T13:55:58Z</time>
      </trkpt>
      <trkpt lat="45.1795" lon="0.39736">
        <ele>191</ele>
        <time>2016-03-29T13:56:03Z</time>
      </trkpt>
      <trkpt lat="45.17944" lon="0.39728">
        <ele>187</ele>
        <time>2016-03-29T13:56:07Z</time>
      </trkpt>
      <trkpt lat="45.17938" lon="0.39721">
        <ele>186</ele>
        <time>2016-03-29T13:56:11Z</time>
      </trkpt>
      <trkpt lat="45.17929" lon="0.39714">
        <ele>185</ele>
        <time>2016-03-29T13:56:15Z</time>
      </trkpt>
      <trkpt lat="45.17926" lon="0.39706">
        <ele>185</ele>
        <time>2016-03-29T13:56:20Z</time>
      </trkpt>
      <trkpt lat="45.17924" lon="0.397">
        <ele>185</ele>
        <time>2016-03-29T13:56:24Z</time>
      </trkpt>
      <trkpt lat="45.17918" lon="0.39695">
        <ele>184</ele>
        <time>2016-03-29T13:56:28Z</time>
      </trkpt>
      <trkpt lat="45.17919" lon="0.39688">
        <ele>183</ele>
        <time>2016-03-29T13:56:32Z</time>
      </trkpt>
      <trkpt lat="45.17918" lon="0.39681">
        <ele>184</ele>
        <time>2016-03-29T13:56:37Z</time>
      </trkpt>
      <trkpt lat="45.17914" lon="0.39674">
        <ele>184</ele>
        <time>2016-03-29T13:56:42Z</time>
      </trkpt>
      <trkpt lat="45.17912" lon="0.3967">
        <ele>190</ele>
        <time>2016-03-29T13:56:50Z</time>
      </trkpt>
      <trkpt lat="45.17908" lon="0.39664">
        <ele>190</ele>
        <time>2016-03-29T13:56:54Z</time>
      </trkpt>
      <trkpt lat="45.17899" lon="0.39655">
        <ele>183</ele>
        <time>2016-03-29T13:56:58Z</time>
      </trkpt>
      <trkpt lat="45.17896" lon="0.39644">
        <ele>180</ele>
        <time>2016-03-29T13:57:02Z</time>
      </trkpt>
      <trkpt lat="45.17896" lon="0.39641">
        <ele>180</ele>
        <time>2016-03-29T13:57:10Z</time>
      </trkpt>
      <trkpt lat="45.17893" lon="0.39632">
        <ele>180</ele>
        <time>2016-03-29T13:57:14Z</time>
      </trkpt>
      <trkpt lat="45.17893" lon="0.39623">
        <ele>182</ele>
        <time>2016-03-29T13:57:19Z</time>
      </trkpt>
      <trkpt lat="45.17888" lon="0.39617">
        <ele>180</ele>
        <time>2016-03-29T13:57:23Z</time>
      </trkpt>
      <trkpt lat="45.17886" lon="0.39609">
        <ele>178</ele>
        <time>2016-03-29T13:57:27Z</time>
      </trkpt>
      <trkpt lat="45.17887" lon="0.39602">
        <ele>181</ele>
        <time>2016-03-29T13:57:32Z</time>
      </trkpt>
      <trkpt lat="45.17885" lon="0.39597">
        <ele>183</ele>
        <time>2016-03-29T13:57:36Z</time>
      </trkpt>
      <trkpt lat="45.17884" lon="0.39591">
        <ele>185</ele>
        <time>2016-03-29T13:57:40Z</time>
      </trkpt>
      <trkpt lat="45.17881" lon="0.39584">
        <ele>184</ele>
        <time>2016-03-29T13:57:44Z</time>
      </trkpt>
      <trkpt lat="45.17876" lon="0.39575">
        <ele>183</ele>
        <time>2016-03-29T13:57:49Z</time>
      </trkpt>
      <trkpt lat="45.17874" lon="0.3957">
        <ele>184</ele>
        <time>2016-03-29T13:57:53Z</time>
      </trkpt>
      <trkpt lat="45.17868" lon="0.39562">
        <ele>183</ele>
        <time>2016-03-29T13:57:58Z</time>
      </trkpt>
      <trkpt lat="45.17871" lon="0.39557">
        <ele>186</ele>
        <time>2016-03-29T13:58:02Z</time>
      </trkpt>
      <trkpt lat="45.17866" lon="0.39553">
        <ele>183</ele>
        <time>2016-03-29T13:58:07Z</time>
      </trkpt>
      <trkpt lat="45.17861" lon="0.39545">
        <ele>178</ele>
        <time>2016-03-29T13:58:11Z</time>
      </trkpt>
      <trkpt lat="45.17855" lon="0.39536">
        <ele>176</ele>
        <time>2016-03-29T13:58:16Z</time>
      </trkpt>
      <trkpt lat="45.1785" lon="0.3953">
        <ele>172</ele>
        <time>2016-03-29T13:58:20Z</time>
      </trkpt>
      <trkpt lat="45.17847" lon="0.39526">
        <ele>173</ele>
        <time>2016-03-29T13:58:26Z</time>
      </trkpt>
      <trkpt lat="45.17843" lon="0.39524">
        <ele>178</ele>
        <time>2016-03-29T13:58:32Z</time>
      </trkpt>
      <trkpt lat="45.17836" lon="0.39515">
        <ele>173</ele>
        <time>2016-03-29T13:58:36Z</time>
      </trkpt>
      <trkpt lat="45.17835" lon="0.3951">
        <ele>173</ele>
        <time>2016-03-29T13:58:40Z</time>
      </trkpt>
      <trkpt lat="45.17832" lon="0.39505">
        <ele>173</ele>
        <time>2016-03-29T13:58:47Z</time>
      </trkpt>
      <trkpt lat="45.17827" lon="0.39502">
        <ele>173</ele>
        <time>2016-03-29T13:58:51Z</time>
      </trkpt>
      <trkpt lat="45.17823" lon="0.39503">
        <ele>175</ele>
        <time>2016-03-29T13:58:56Z</time>
      </trkpt>
      <trkpt lat="45.17817" lon="0.39505">
        <ele>174</ele>
        <time>2016-03-29T13:59:00Z</time>
      </trkpt>
      <trkpt lat="45.17808" lon="0.39501">
        <ele>170</ele>
        <time>2016-03-29T13:59:05Z</time>
      </trkpt>
      <trkpt lat="45.17801" lon="0.395">
        <ele>169</ele>
        <time>2016-03-29T13:59:09Z</time>
      </trkpt>
      <trkpt lat="45.17793" lon="0.39495">
        <ele>168</ele>
        <time>2016-03-29T13:59:14Z</time>
      </trkpt>
      <trkpt lat="45.17789" lon="0.39492">
        <ele>169</ele>
        <time>2016-03-29T13:59:19Z</time>
      </trkpt>
      <trkpt lat="45.17781" lon="0.39492">
        <ele>171</ele>
        <time>2016-03-29T13:59:24Z</time>
      </trkpt>
      <trkpt lat="45.17776" lon="0.39493">
        <ele>171</ele>
        <time>2016-03-29T13:59:28Z</time>
      </trkpt>
      <trkpt lat="45.1777" lon="0.39492">
        <ele>169</ele>
        <time>2016-03-29T13:59:33Z</time>
      </trkpt>
      <trkpt lat="45.17769" lon="0.39485">
        <ele>170</ele>
        <time>2016-03-29T13:59:38Z</time>
      </trkpt>
      <trkpt lat="45.17765" lon="0.39483">
        <ele>172</ele>
        <time>2016-03-29T13:59:42Z</time>
      </trkpt>
      <trkpt lat="45.17762" lon="0.39479">
        <ele>172</ele>
        <time>2016-03-29T13:59:47Z</time>
      </trkpt>
      <trkpt lat="45.17761" lon="0.39474">
        <ele>170</ele>
        <time>2016-03-29T13:59:51Z</time>
      </trkpt>
      <trkpt lat="45.17755" lon="0.3947">
        <ele>169</ele>
        <time>2016-03-29T13:59:56Z</time>
      </trkpt>
      <trkpt lat="45.17747" lon="0.39469">
        <ele>171</ele>
        <time>2016-03-29T14:00:01Z</time>
      </trkpt>
      <trkpt lat="45.17743" lon="0.39464">
        <ele>169</ele>
        <time>2016-03-29T14:00:05Z</time>
      </trkpt>
      <trkpt lat="45.17736" lon="0.39456">
        <ele>168</ele>
        <time>2016-03-29T14:00:10Z</time>
      </trkpt>
      <trkpt lat="45.1773" lon="0.39454">
        <ele>167</ele>
        <time>2016-03-29T14:00:14Z</time>
      </trkpt>
      <trkpt lat="45.17733" lon="0.39448">
        <ele>173</ele>
        <time>2016-03-29T14:00:18Z</time>
      </trkpt>
      <trkpt lat="45.17734" lon="0.39442">
        <ele>172</ele>
        <time>2016-03-29T14:00:22Z</time>
      </trkpt>
      <trkpt lat="45.17734" lon="0.39437">
        <ele>170</ele>
        <time>2016-03-29T14:00:26Z</time>
      </trkpt>
      <trkpt lat="45.17729" lon="0.39432">
        <ele>171</ele>
        <time>2016-03-29T14:00:30Z</time>
      </trkpt>
      <trkpt lat="45.17726" lon="0.39425">
        <ele>170</ele>
        <time>2016-03-29T14:00:35Z</time>
      </trkpt>
      <trkpt lat="45.17724" lon="0.39417">
        <ele>168</ele>
        <time>2016-03-29T14:00:39Z</time>
      </trkpt>
      <trkpt lat="45.17724" lon="0.39412">
        <ele>166</ele>
        <time>2016-03-29T14:00:45Z</time>
      </trkpt>
      <trkpt lat="45.17722" lon="0.39405">
        <ele>165</ele>
        <time>2016-03-29T14:00:49Z</time>
      </trkpt>
      <trkpt lat="45.17721" lon="0.39399">
        <ele>167</ele>
        <time>2016-03-29T14:00:54Z</time>
      </trkpt>
      <trkpt lat="45.17719" lon="0.39393">
        <ele>167</ele>
        <time>2016-03-29T14:00:59Z</time>
      </trkpt>
      <trkpt lat="45.17718" lon="0.3939">
        <ele>167</ele>
        <time>2016-03-29T14:01:05Z</time>
      </trkpt>
      <trkpt lat="45.17718" lon="0.39374">
        <ele>162</ele>
        <time>2016-03-29T14:01:10Z</time>
      </trkpt>
      <trkpt lat="45.17717" lon="0.39366">
        <ele>164</ele>
        <time>2016-03-29T14:01:15Z</time>
      </trkpt>
      <trkpt lat="45.17717" lon="0.3936">
        <ele>165</ele>
        <time>2016-03-29T14:01:20Z</time>
      </trkpt>
      <trkpt lat="45.17715" lon="0.39353">
        <ele>165</ele>
        <time>2016-03-29T14:01:24Z</time>
      </trkpt>
      <trkpt lat="45.17717" lon="0.39344">
        <ele>164</ele>
        <time>2016-03-29T14:01:29Z</time>
      </trkpt>
      <trkpt lat="45.17716" lon="0.39331">
        <ele>159</ele>
        <time>2016-03-29T14:01:33Z</time>
      </trkpt>
      <trkpt lat="45.17719" lon="0.39328">
        <ele>164</ele>
        <time>2016-03-29T14:01:39Z</time>
      </trkpt>
      <trkpt lat="45.17721" lon="0.39322">
        <ele>164</ele>
        <time>2016-03-29T14:01:44Z</time>
      </trkpt>
      <trkpt lat="45.1772" lon="0.39312">
        <ele>166</ele>
        <time>2016-03-29T14:01:49Z</time>
      </trkpt>
      <trkpt lat="45.17719" lon="0.39302">
        <ele>159</ele>
        <time>2016-03-29T14:01:53Z</time>
      </trkpt>
      <trkpt lat="45.17721" lon="0.39293">
        <ele>156</ele>
        <time>2016-03-29T14:01:58Z</time>
      </trkpt>
      <trkpt lat="45.17713" lon="0.39285">
        <ele>148</ele>
        <time>2016-03-29T14:02:03Z</time>
      </trkpt>
      <trkpt lat="45.17716" lon="0.39275">
        <ele>148</ele>
        <time>2016-03-29T14:02:08Z</time>
      </trkpt>
      <trkpt lat="45.17716" lon="0.39269">
        <ele>156</ele>
        <time>2016-03-29T14:02:17Z</time>
      </trkpt>
      <trkpt lat="45.17713" lon="0.39262">
        <ele>159</ele>
        <time>2016-03-29T14:02:22Z</time>
      </trkpt>
      <trkpt lat="45.1771" lon="0.39256">
        <ele>156</ele>
        <time>2016-03-29T14:02:26Z</time>
      </trkpt>
      <trkpt lat="45.17705" lon="0.3925">
        <ele>158</ele>
        <time>2016-03-29T14:02:30Z</time>
      </trkpt>
      <trkpt lat="45.17705" lon="0.39241">
        <ele>154</ele>
        <time>2016-03-29T14:02:34Z</time>
      </trkpt>
      <trkpt lat="45.17701" lon="0.39235">
        <ele>152</ele>
        <time>2016-03-29T14:02:38Z</time>
      </trkpt>
      <trkpt lat="45.17698" lon="0.39229">
        <ele>154</ele>
        <time>2016-03-29T14:02:42Z</time>
      </trkpt>
      <trkpt lat="45.17696" lon="0.39224">
        <ele>155</ele>
        <time>2016-03-29T14:02:46Z</time>
      </trkpt>
      <trkpt lat="45.17694" lon="0.39219">
        <ele>153</ele>
        <time>2016-03-29T14:02:51Z</time>
      </trkpt>
      <trkpt lat="45.17693" lon="0.3921">
        <ele>155</ele>
        <time>2016-03-29T14:02:56Z</time>
      </trkpt>
      <trkpt lat="45.17691" lon="0.39201">
        <ele>156</ele>
        <time>2016-03-29T14:03:00Z</time>
      </trkpt>
      <trkpt lat="45.1769" lon="0.39192">
        <ele>157</ele>
        <time>2016-03-29T14:03:05Z</time>
      </trkpt>
      <trkpt lat="45.1769" lon="0.39187">
        <ele>158</ele>
        <time>2016-03-29T14:03:09Z</time>
      </trkpt>
      <trkpt lat="45.17685" lon="0.39177">
        <ele>155</ele>
        <time>2016-03-29T14:03:14Z</time>
      </trkpt>
      <trkpt lat="45.17687" lon="0.39166">
        <ele>154</ele>
        <time>2016-03-29T14:03:19Z</time>
      </trkpt>
      <trkpt lat="45.17686" lon="0.39158">
        <ele>152</ele>
        <time>2016-03-29T14:03:23Z</time>
      </trkpt>
      <trkpt lat="45.17688" lon="0.3915">
        <ele>153</ele>
        <time>2016-03-29T14:03:27Z</time>
      </trkpt>
      <trkpt lat="45.1769" lon="0.39144">
        <ele>156</ele>
        <time>2016-03-29T14:03:31Z</time>
      </trkpt>
      <trkpt lat="45.17686" lon="0.39137">
        <ele>155</ele>
        <time>2016-03-29T14:03:36Z</time>
      </trkpt>
      <trkpt lat="45.17683" lon="0.39131">
        <ele>152</ele>
        <time>2016-03-29T14:03:41Z</time>
      </trkpt>
      <trkpt lat="45.17682" lon="0.39125">
        <ele>153</ele>
        <time>2016-03-29T14:03:53Z</time>
      </trkpt>
      <trkpt lat="45.17674" lon="0.39116">
        <ele>153</ele>
        <time>2016-03-29T14:03:58Z</time>
      </trkpt>
      <trkpt lat="45.17672" lon="0.39107">
        <ele>151</ele>
        <time>2016-03-29T14:04:02Z</time>
      </trkpt>
      <trkpt lat="45.17672" lon="0.39093">
        <ele>151</ele>
        <time>2016-03-29T14:04:07Z</time>
      </trkpt>
      <trkpt lat="45.17667" lon="0.39087">
        <ele>149</ele>
        <time>2016-03-29T14:04:11Z</time>
      </trkpt>
      <trkpt lat="45.1766" lon="0.39081">
        <ele>146</ele>
        <time>2016-03-29T14:04:15Z</time>
      </trkpt>
      <trkpt lat="45.17657" lon="0.39076">
        <ele>143</ele>
        <time>2016-03-29T14:04:20Z</time>
      </trkpt>
      <trkpt lat="45.17649" lon="0.39071">
        <ele>138</ele>
        <time>2016-03-29T14:04:24Z</time>
      </trkpt>
      <trkpt lat="45.17644" lon="0.39065">
        <ele>139</ele>
        <time>2016-03-29T14:04:29Z</time>
      </trkpt>
      <trkpt lat="45.1764" lon="0.39059">
        <ele>139</ele>
        <time>2016-03-29T14:04:33Z</time>
      </trkpt>
      <trkpt lat="45.17639" lon="0.39051">
        <ele>136</ele>
        <time>2016-03-29T14:04:37Z</time>
      </trkpt>
      <trkpt lat="45.1764" lon="0.39047">
        <ele>137</ele>
        <time>2016-03-29T14:04:41Z</time>
      </trkpt>
      <trkpt lat="45.17639" lon="0.3904">
        <ele>139</ele>
        <time>2016-03-29T14:04:45Z</time>
      </trkpt>
      <trkpt lat="45.17637" lon="0.39033">
        <ele>138</ele>
        <time>2016-03-29T14:04:49Z</time>
      </trkpt>
      <trkpt lat="45.17631" lon="0.39032">
        <ele>140</ele>
        <time>2016-03-29T14:04:53Z</time>
      </trkpt>
      <trkpt lat="45.17629" lon="0.39025">
        <ele>139</ele>
        <time>2016-03-29T14:04:57Z</time>
      </trkpt>
      <trkpt lat="45.17622" lon="0.3902">
        <ele>140</ele>
        <time>2016-03-29T14:05:02Z</time>
      </trkpt>
      <trkpt lat="45.17619" lon="0.39009">
        <ele>138</ele>
        <time>2016-03-29T14:05:06Z</time>
      </trkpt>
      <trkpt lat="45.17615" lon="0.39005">
        <ele>138</ele>
        <time>2016-03-29T14:05:11Z</time>
      </trkpt>
      <trkpt lat="45.17611" lon="0.39004">
        <ele>137</ele>
        <time>2016-03-29T14:05:21Z</time>
      </trkpt>
      <trkpt lat="45.1761" lon="0.38995">
        <ele>133</ele>
        <time>2016-03-29T14:05:26Z</time>
      </trkpt>
      <trkpt lat="45.17612" lon="0.38986">
        <ele>131</ele>
        <time>2016-03-29T14:05:30Z</time>
      </trkpt>
      <trkpt lat="45.1761" lon="0.38981">
        <ele>131</ele>
        <time>2016-03-29T14:05:35Z</time>
      </trkpt>
      <trkpt lat="45.17604" lon="0.38976">
        <ele>130</ele>
        <time>2016-03-29T14:05:39Z</time>
      </trkpt>
      <trkpt lat="45.17599" lon="0.38974">
        <ele>130</ele>
        <time>2016-03-29T14:05:43Z</time>
      </trkpt>
      <trkpt lat="45.17596" lon="0.38971">
        <ele>129</ele>
        <time>2016-03-29T14:05:48Z</time>
      </trkpt>
      <trkpt lat="45.17593" lon="0.38968">
        <ele>131</ele>
        <time>2016-03-29T14:05:52Z</time>
      </trkpt>
      <trkpt lat="45.17588" lon="0.38965">
        <ele>128</ele>
        <time>2016-03-29T14:05:56Z</time>
      </trkpt>
      <trkpt lat="45.17582" lon="0.38964">
        <ele>126</ele>
        <time>2016-03-29T14:06:00Z</time>
      </trkpt>
      <trkpt lat="45.17577" lon="0.38959">
        <ele>126</ele>
        <time>2016-03-29T14:06:05Z</time>
      </trkpt>
      <trkpt lat="45.17574" lon="0.38955">
        <ele>125</ele>
        <time>2016-03-29T14:06:09Z</time>
      </trkpt>
      <trkpt lat="45.17572" lon="0.38948">
        <ele>127</ele>
        <time>2016-03-29T14:06:13Z</time>
      </trkpt>
      <trkpt lat="45.17568" lon="0.38943">
        <ele>127</ele>
        <time>2016-03-29T14:06:18Z</time>
      </trkpt>
      <trkpt lat="45.17558" lon="0.38939">
        <ele>129</ele>
        <time>2016-03-29T14:06:22Z</time>
      </trkpt>
      <trkpt lat="45.17554" lon="0.38935">
        <ele>130</ele>
        <time>2016-03-29T14:06:27Z</time>
      </trkpt>
      <trkpt lat="45.1755" lon="0.38931">
        <ele>133</ele>
        <time>2016-03-29T14:06:32Z</time>
      </trkpt>
      <trkpt lat="45.17547" lon="0.38927">
        <ele>131</ele>
        <time>2016-03-29T14:06:36Z</time>
      </trkpt>
      <trkpt lat="45.17538" lon="0.38925">
        <ele>128</ele>
        <time>2016-03-29T14:06:41Z</time>
      </trkpt>
      <trkpt lat="45.17534" lon="0.38922">
        <ele>125</ele>
        <time>2016-03-29T14:06:49Z</time>
      </trkpt>
      <trkpt lat="45.17531" lon="0.38921">
        <ele>125</ele>
        <time>2016-03-29T14:06:53Z</time>
      </trkpt>
      <trkpt lat="45.17525" lon="0.38919">
        <ele>125</ele>
        <time>2016-03-29T14:06:58Z</time>
      </trkpt>
      <trkpt lat="45.17521" lon="0.38912">
        <ele>127</ele>
        <time>2016-03-29T14:07:02Z</time>
      </trkpt>
      <trkpt lat="45.17518" lon="0.38909">
        <ele>128</ele>
        <time>2016-03-29T14:07:11Z</time>
      </trkpt>
      <trkpt lat="45.17515" lon="0.38905">
        <ele>129</ele>
        <time>2016-03-29T14:07:15Z</time>
      </trkpt>
      <trkpt lat="45.17512" lon="0.38901">
        <ele>128</ele>
        <time>2016-03-29T14:07:22Z</time>
      </trkpt>
      <trkpt lat="45.17508" lon="0.38898">
        <ele>127</ele>
        <time>2016-03-29T14:07:26Z</time>
      </trkpt>
      <trkpt lat="45.17507" lon="0.38893">
        <ele>129</ele>
        <time>2016-03-29T14:07:32Z</time>
      </trkpt>
      <trkpt lat="45.17509" lon="0.38888">
        <ele>131</ele>
        <time>2016-03-29T14:07:37Z</time>
      </trkpt>
      <trkpt lat="45.17508" lon="0.38882">
        <ele>129</ele>
        <time>2016-03-29T14:08:25Z</time>
      </trkpt>
      <trkpt lat="45.17506" lon="0.38878">
        <ele>124</ele>
        <time>2016-03-29T14:08:39Z</time>
      </trkpt>
      <trkpt lat="45.17502" lon="0.38876">
        <ele>126</ele>
        <time>2016-03-29T14:08:49Z</time>
      </trkpt>
      <trkpt lat="45.17495" lon="0.38872">
        <ele>124</ele>
        <time>2016-03-29T14:08:53Z</time>
      </trkpt>
      <trkpt lat="45.17491" lon="0.38872">
        <ele>122</ele>
        <time>2016-03-29T14:08:59Z</time>
      </trkpt>
      <trkpt lat="45.1749" lon="0.3887">
        <ele>122</ele>
        <time>2016-03-29T14:09:26Z</time>
      </trkpt>
      <trkpt lat="45.17488" lon="0.38867">
        <ele>117</ele>
        <time>2016-03-29T14:10:09Z</time>
      </trkpt>
      <trkpt lat="45.17487" lon="0.38861">
        <ele>122</ele>
        <time>2016-03-29T14:10:15Z</time>
      </trkpt>
      <trkpt lat="45.17487" lon="0.38856">
        <ele>123</ele>
        <time>2016-03-29T14:10:34Z</time>
      </trkpt>
      <trkpt lat="45.17483" lon="0.38849">
        <ele>128</ele>
        <time>2016-03-29T14:10:39Z</time>
      </trkpt>
      <trkpt lat="45.17482" lon="0.38845">
        <ele>126</ele>
        <time>2016-03-29T14:10:45Z</time>
      </trkpt>
      <trkpt lat="45.17478" lon="0.38838">
        <ele>128</ele>
        <time>2016-03-29T14:10:50Z</time>
      </trkpt>
      <trkpt lat="45.17475" lon="0.38832">
        <ele>128</ele>
        <time>2016-03-29T14:10:54Z</time>
      </trkpt>
      <trkpt lat="45.17475" lon="0.38825">
        <ele>129</ele>
        <time>2016-03-29T14:10:58Z</time>
      </trkpt>
      <trkpt lat="45.17477" lon="0.38815">
        <ele>137</ele>
        <time>2016-03-29T14:11:03Z</time>
      </trkpt>
      <trkpt lat="45.17463" lon="0.38814">
        <ele>133</ele>
        <time>2016-03-29T14:11:07Z</time>
      </trkpt>
      <trkpt lat="45.17454" lon="0.38816">
        <ele>132</ele>
        <time>2016-03-29T14:11:12Z</time>
      </trkpt>
      <trkpt lat="45.17449" lon="0.38817">
        <ele>133</ele>
        <time>2016-03-29T14:11:16Z</time>
      </trkpt>
      <trkpt lat="45.17444" lon="0.38819">
        <ele>135</ele>
        <time>2016-03-29T14:11:20Z</time>
      </trkpt>
      <trkpt lat="45.17438" lon="0.38816">
        <ele>139</ele>
        <time>2016-03-29T14:11:25Z</time>
      </trkpt>
      <trkpt lat="45.17432" lon="0.38818">
        <ele>141</ele>
        <time>2016-03-29T14:11:29Z</time>
      </trkpt>
      <trkpt lat="45.17425" lon="0.38819">
        <ele>145</ele>
        <time>2016-03-29T14:11:34Z</time>
      </trkpt>
      <trkpt lat="45.1742" lon="0.3882">
        <ele>147</ele>
        <time>2016-03-29T14:11:38Z</time>
      </trkpt>
      <trkpt lat="45.17413" lon="0.38823">
        <ele>150</ele>
        <time>2016-03-29T14:11:43Z</time>
      </trkpt>
      <trkpt lat="45.17408" lon="0.38823">
        <ele>150</ele>
        <time>2016-03-29T14:11:47Z</time>
      </trkpt>
      <trkpt lat="45.17408" lon="0.38842">
        <ele>134</ele>
        <time>2016-03-29T14:11:51Z</time>
      </trkpt>
      <trkpt lat="45.17404" lon="0.38841">
        <ele>137</ele>
        <time>2016-03-29T14:11:58Z</time>
      </trkpt>
      <trkpt lat="45.17393" lon="0.38841">
        <ele>137</ele>
        <time>2016-03-29T14:12:03Z</time>
      </trkpt>
      <trkpt lat="45.17387" lon="0.3884">
        <ele>138</ele>
        <time>2016-03-29T14:12:08Z</time>
      </trkpt>
      <trkpt lat="45.17384" lon="0.38842">
        <ele>137</ele>
        <time>2016-03-29T14:12:14Z</time>
      </trkpt>
      <trkpt lat="45.17379" lon="0.38842">
        <ele>138</ele>
        <time>2016-03-29T14:12:18Z</time>
      </trkpt>
      <trkpt lat="45.17375" lon="0.38842">
        <ele>143</ele>
        <time>2016-03-29T14:12:24Z</time>
      </trkpt>
      <trkpt lat="45.1737" lon="0.3884">
        <ele>145</ele>
        <time>2016-03-29T14:12:29Z</time>
      </trkpt>
      <trkpt lat="45.17364" lon="0.38845">
        <ele>144</ele>
        <time>2016-03-29T14:12:33Z</time>
      </trkpt>
      <trkpt lat="45.1736" lon="0.3885">
        <ele>143</ele>
        <time>2016-03-29T14:12:38Z</time>
      </trkpt>
      <trkpt lat="45.17355" lon="0.38858">
        <ele>143</ele>
        <time>2016-03-29T14:12:43Z</time>
      </trkpt>
      <trkpt lat="45.17348" lon="0.38861">
        <ele>143</ele>
        <time>2016-03-29T14:12:47Z</time>
      </trkpt>
      <trkpt lat="45.17346" lon="0.38863">
        <ele>144</ele>
        <time>2016-03-29T14:12:54Z</time>
      </trkpt>
      <trkpt lat="45.17338" lon="0.38873">
        <ele>141</ele>
        <time>2016-03-29T14:12:58Z</time>
      </trkpt>
      <trkpt lat="45.17334" lon="0.38875">
        <ele>144</ele>
        <time>2016-03-29T14:13:02Z</time>
      </trkpt>
      <trkpt lat="45.17328" lon="0.38876">
        <ele>144</ele>
        <time>2016-03-29T14:13:06Z</time>
      </trkpt>
      <trkpt lat="45.17323" lon="0.3888">
        <ele>146</ele>
        <time>2016-03-29T14:13:11Z</time>
      </trkpt>
      <trkpt lat="45.17317" lon="0.38883">
        <ele>148</ele>
        <time>2016-03-29T14:13:15Z</time>
      </trkpt>
      <trkpt lat="45.17316" lon="0.38889">
        <ele>148</ele>
        <time>2016-03-29T14:13:20Z</time>
      </trkpt>
      <trkpt lat="45.17309" lon="0.38895">
        <ele>148</ele>
        <time>2016-03-29T14:13:25Z</time>
      </trkpt>
      <trkpt lat="45.17303" lon="0.38901">
        <ele>146</ele>
        <time>2016-03-29T14:13:29Z</time>
      </trkpt>
      <trkpt lat="45.17298" lon="0.38902">
        <ele>146</ele>
        <time>2016-03-29T14:13:33Z</time>
      </trkpt>
      <trkpt lat="45.17294" lon="0.38907">
        <ele>143</ele>
        <time>2016-03-29T14:13:37Z</time>
      </trkpt>
      <trkpt lat="45.17292" lon="0.38909">
        <ele>146</ele>
        <time>2016-03-29T14:13:42Z</time>
      </trkpt>
      <trkpt lat="45.17286" lon="0.38913">
        <ele>142</ele>
        <time>2016-03-29T14:13:46Z</time>
      </trkpt>
      <trkpt lat="45.17283" lon="0.38917">
        <ele>143</ele>
        <time>2016-03-29T14:13:51Z</time>
      </trkpt>
      <trkpt lat="45.17277" lon="0.38918">
        <ele>144</ele>
        <time>2016-03-29T14:13:55Z</time>
      </trkpt>
      <trkpt lat="45.17266" lon="0.38923">
        <ele>147</ele>
        <time>2016-03-29T14:14:00Z</time>
      </trkpt>
      <trkpt lat="45.17258" lon="0.38928">
        <ele>146</ele>
        <time>2016-03-29T14:14:05Z</time>
      </trkpt>
      <trkpt lat="45.17255" lon="0.38933">
        <ele>148</ele>
        <time>2016-03-29T14:14:10Z</time>
      </trkpt>
      <trkpt lat="45.17253" lon="0.38937">
        <ele>147</ele>
        <time>2016-03-29T14:14:14Z</time>
      </trkpt>
      <trkpt lat="45.1725" lon="0.38941">
        <ele>149</ele>
        <time>2016-03-29T14:14:18Z</time>
      </trkpt>
      <trkpt lat="45.17245" lon="0.38947">
        <ele>149</ele>
        <time>2016-03-29T14:14:23Z</time>
      </trkpt>
      <trkpt lat="45.17242" lon="0.38955">
        <ele>149</ele>
        <time>2016-03-29T14:14:27Z</time>
      </trkpt>
      <trkpt lat="45.17237" lon="0.38962">
        <ele>149</ele>
        <time>2016-03-29T14:14:31Z</time>
      </trkpt>
      <trkpt lat="45.17233" lon="0.38966">
        <ele>154</ele>
        <time>2016-03-29T14:14:36Z</time>
      </trkpt>
      <trkpt lat="45.17227" lon="0.38967">
        <ele>153</ele>
        <time>2016-03-29T14:14:40Z</time>
      </trkpt>
      <trkpt lat="45.17219" lon="0.3897">
        <ele>150</ele>
        <time>2016-03-29T14:14:45Z</time>
      </trkpt>
      <trkpt lat="45.17213" lon="0.38974">
        <ele>148</ele>
        <time>2016-03-29T14:14:49Z</time>
      </trkpt>
      <trkpt lat="45.17209" lon="0.38978">
        <ele>150</ele>
        <time>2016-03-29T14:14:54Z</time>
      </trkpt>
      <trkpt lat="45.17206" lon="0.3899">
        <ele>145</ele>
        <time>2016-03-29T14:14:58Z</time>
      </trkpt>
      <trkpt lat="45.17201" lon="0.38999">
        <ele>144</ele>
        <time>2016-03-29T14:15:03Z</time>
      </trkpt>
      <trkpt lat="45.17198" lon="0.39002">
        <ele>146</ele>
        <time>2016-03-29T14:15:07Z</time>
      </trkpt>
      <trkpt lat="45.17192" lon="0.39007">
        <ele>147</ele>
        <time>2016-03-29T14:15:11Z</time>
      </trkpt>
      <trkpt lat="45.17187" lon="0.39011">
        <ele>149</ele>
        <time>2016-03-29T14:15:15Z</time>
      </trkpt>
      <trkpt lat="45.17178" lon="0.39014">
        <ele>146</ele>
        <time>2016-03-29T14:15:20Z</time>
      </trkpt>
      <trkpt lat="45.17173" lon="0.39021">
        <ele>148</ele>
        <time>2016-03-29T14:15:24Z</time>
      </trkpt>
      <trkpt lat="45.17171" lon="0.39029">
        <ele>146</ele>
        <time>2016-03-29T14:15:29Z</time>
      </trkpt>
      <trkpt lat="45.17169" lon="0.39037">
        <ele>142</ele>
        <time>2016-03-29T14:15:33Z</time>
      </trkpt>
      <trkpt lat="45.17166" lon="0.39042">
        <ele>142</ele>
        <time>2016-03-29T14:15:39Z</time>
      </trkpt>
      <trkpt lat="45.17161" lon="0.39048">
        <ele>142</ele>
        <time>2016-03-29T14:15:43Z</time>
      </trkpt>
      <trkpt lat="45.17159" lon="0.39055">
        <ele>144</ele>
        <time>2016-03-29T14:15:48Z</time>
      </trkpt>
      <trkpt lat="45.17154" lon="0.39061">
        <ele>144</ele>
        <time>2016-03-29T14:15:53Z</time>
      </trkpt>
      <trkpt lat="45.1715" lon="0.39072">
        <ele>143</ele>
        <time>2016-03-29T14:15:58Z</time>
      </trkpt>
      <trkpt lat="45.17148" lon="0.39079">
        <ele>139</ele>
        <time>2016-03-29T14:16:02Z</time>
      </trkpt>
      <trkpt lat="45.17145" lon="0.39086">
        <ele>134</ele>
        <time>2016-03-29T14:16:06Z</time>
      </trkpt>
      <trkpt lat="45.1714" lon="0.39093">
        <ele>133</ele>
        <time>2016-03-29T14:16:11Z</time>
      </trkpt>
      <trkpt lat="45.17134" lon="0.39099">
        <ele>131</ele>
        <time>2016-03-29T14:16:16Z</time>
      </trkpt>
      <trkpt lat="45.17132" lon="0.39103">
        <ele>130</ele>
        <time>2016-03-29T14:16:20Z</time>
      </trkpt>
      <trkpt lat="45.1713" lon="0.3911">
        <ele>126</ele>
        <time>2016-03-29T14:16:24Z</time>
      </trkpt>
      <trkpt lat="45.17128" lon="0.39116">
        <ele>121</ele>
        <time>2016-03-29T14:16:34Z</time>
      </trkpt>
      <trkpt lat="45.17132" lon="0.39116">
        <ele>129</ele>
        <time>2016-03-29T14:16:50Z</time>
      </trkpt>
      <trkpt lat="45.1713" lon="0.39111">
        <ele>131</ele>
        <time>2016-03-29T14:16:57Z</time>
      </trkpt>
      <trkpt lat="45.17129" lon="0.39105">
        <ele>133</ele>
        <time>2016-03-29T14:17:18Z</time>
      </trkpt>
      <trkpt lat="45.17127" lon="0.39096">
        <ele>132</ele>
        <time>2016-03-29T14:17:22Z</time>
      </trkpt>
      <trkpt lat="45.1712" lon="0.39088">
        <ele>132</ele>
        <time>2016-03-29T14:17:27Z</time>
      </trkpt>
      <trkpt lat="45.17114" lon="0.39085">
        <ele>136</ele>
        <time>2016-03-29T14:17:32Z</time>
      </trkpt>
      <trkpt lat="45.17108" lon="0.39083">
        <ele>137</ele>
        <time>2016-03-29T14:17:36Z</time>
      </trkpt>
      <trkpt lat="45.17099" lon="0.39087">
        <ele>135</ele>
        <time>2016-03-29T14:17:41Z</time>
      </trkpt>
      <trkpt lat="45.17095" lon="0.3909">
        <ele>135</ele>
        <time>2016-03-29T14:17:45Z</time>
      </trkpt>
      <trkpt lat="45.17088" lon="0.391">
        <ele>131</ele>
        <time>2016-03-29T14:17:50Z</time>
      </trkpt>
      <trkpt lat="45.17082" lon="0.391">
        <ele>132</ele>
        <time>2016-03-29T14:17:55Z</time>
      </trkpt>
      <trkpt lat="45.17073" lon="0.39106">
        <ele>135</ele>
        <time>2016-03-29T14:17:59Z</time>
      </trkpt>
      <trkpt lat="45.17065" lon="0.39112">
        <ele>136</ele>
        <time>2016-03-29T14:18:03Z</time>
      </trkpt>
      <trkpt lat="45.1706" lon="0.39116">
        <ele>139</ele>
        <time>2016-03-29T14:18:08Z</time>
      </trkpt>
      <trkpt lat="45.17053" lon="0.39124">
        <ele>136</ele>
        <time>2016-03-29T14:18:13Z</time>
      </trkpt>
      <trkpt lat="45.17052" lon="0.39128">
        <ele>135</ele>
        <time>2016-03-29T14:18:17Z</time>
      </trkpt>
      <trkpt lat="45.17044" lon="0.39131">
        <ele>134</ele>
        <time>2016-03-29T14:18:22Z</time>
      </trkpt>
      <trkpt lat="45.17038" lon="0.39135">
        <ele>137</ele>
        <time>2016-03-29T14:18:27Z</time>
      </trkpt>
      <trkpt lat="45.17031" lon="0.39137">
        <ele>137</ele>
        <time>2016-03-29T14:18:32Z</time>
      </trkpt>
      <trkpt lat="45.17025" lon="0.39138">
        <ele>137</ele>
        <time>2016-03-29T14:18:36Z</time>
      </trkpt>
      <trkpt lat="45.17018" lon="0.39144">
        <ele>136</ele>
        <time>2016-03-29T14:18:41Z</time>
      </trkpt>
      <trkpt lat="45.17013" lon="0.39144">
        <ele>137</ele>
        <time>2016-03-29T14:18:45Z</time>
      </trkpt>
      <trkpt lat="45.17011" lon="0.39147">
        <ele>137</ele>
        <time>2016-03-29T14:18:49Z</time>
      </trkpt>
      <trkpt lat="45.17006" lon="0.39156">
        <ele>137</ele>
        <time>2016-03-29T14:18:54Z</time>
      </trkpt>
      <trkpt lat="45.17003" lon="0.39163">
        <ele>133</ele>
        <time>2016-03-29T14:18:58Z</time>
      </trkpt>
      <trkpt lat="45.17003" lon="0.39168">
        <ele>131</ele>
        <time>2016-03-29T14:19:25Z</time>
      </trkpt>
      <trkpt lat="45.17001" lon="0.39173">
        <ele>132</ele>
        <time>2016-03-29T14:19:30Z</time>
      </trkpt>
      <trkpt lat="45.16996" lon="0.39178">
        <ele>134</ele>
        <time>2016-03-29T14:19:34Z</time>
      </trkpt>
      <trkpt lat="45.16993" lon="0.39184">
        <ele>130</ele>
        <time>2016-03-29T14:19:38Z</time>
      </trkpt>
      <trkpt lat="45.1699" lon="0.39188">
        <ele>124</ele>
        <time>2016-03-29T14:19:57Z</time>
      </trkpt>
      <trkpt lat="45.16987" lon="0.3919">
        <ele>125</ele>
        <time>2016-03-29T14:20:04Z</time>
      </trkpt>
      <trkpt lat="45.16977" lon="0.39197">
        <ele>126</ele>
        <time>2016-03-29T14:20:09Z</time>
      </trkpt>
      <trkpt lat="45.1697" lon="0.39201">
        <ele>127</ele>
        <time>2016-03-29T14:20:14Z</time>
      </trkpt>
      <trkpt lat="45.16965" lon="0.39206">
        <ele>132</ele>
        <time>2016-03-29T14:20:19Z</time>
      </trkpt>
      <trkpt lat="45.1696" lon="0.39213">
        <ele>131</ele>
        <time>2016-03-29T14:20:23Z</time>
      </trkpt>
      <trkpt lat="45.16955" lon="0.39217">
        <ele>130</ele>
        <time>2016-03-29T14:20:28Z</time>
      </trkpt>
      <trkpt lat="45.1695" lon="0.39219">
        <ele>131</ele>
        <time>2016-03-29T14:20:32Z</time>
      </trkpt>
      <trkpt lat="45.16944" lon="0.3923">
        <ele>130</ele>
        <time>2016-03-29T14:20:36Z</time>
      </trkpt>
      <trkpt lat="45.1694" lon="0.39236">
        <ele>132</ele>
        <time>2016-03-29T14:20:40Z</time>
      </trkpt>
      <trkpt lat="45.16933" lon="0.39245">
        <ele>135</ele>
        <time>2016-03-29T14:20:44Z</time>
      </trkpt>
      <trkpt lat="45.16922" lon="0.39254">
        <ele>137</ele>
        <time>2016-03-29T14:20:49Z</time>
      </trkpt>
      <trkpt lat="45.16913" lon="0.39257">
        <ele>139</ele>
        <time>2016-03-29T14:20:54Z</time>
      </trkpt>
      <trkpt lat="45.16909" lon="0.39261">
        <ele>138</ele>
        <time>2016-03-29T14:20:58Z</time>
      </trkpt>
      <trkpt lat="45.16901" lon="0.39267">
        <ele>138</ele>
        <time>2016-03-29T14:21:03Z</time>
      </trkpt>
      <trkpt lat="45.16898" lon="0.3927">
        <ele>136</ele>
        <time>2016-03-29T14:21:07Z</time>
      </trkpt>
      <trkpt lat="45.16893" lon="0.39279">
        <ele>136</ele>
        <time>2016-03-29T14:21:12Z</time>
      </trkpt>
      <trkpt lat="45.1689" lon="0.39285">
        <ele>136</ele>
        <time>2016-03-29T14:21:16Z</time>
      </trkpt>
      <trkpt lat="45.16888" lon="0.39291">
        <ele>136</ele>
        <time>2016-03-29T14:21:24Z</time>
      </trkpt>
      <trkpt lat="45.16885" lon="0.39292">
        <ele>136</ele>
        <time>2016-03-29T14:21:45Z</time>
      </trkpt>
      <trkpt lat="45.16882" lon="0.39296">
        <ele>137</ele>
        <time>2016-03-29T14:21:50Z</time>
      </trkpt>
      <trkpt lat="45.16879" lon="0.39302">
        <ele>136</ele>
        <time>2016-03-29T14:21:54Z</time>
      </trkpt>
      <trkpt lat="45.16875" lon="0.39309">
        <ele>135</ele>
        <time>2016-03-29T14:21:58Z</time>
      </trkpt>
      <trkpt lat="45.16868" lon="0.39317">
        <ele>135</ele>
        <time>2016-03-29T14:22:02Z</time>
      </trkpt>
      <trkpt lat="45.16863" lon="0.39323">
        <ele>134</ele>
        <time>2016-03-29T14:22:06Z</time>
      </trkpt>
      <trkpt lat="45.1686" lon="0.39326">
        <ele>134</ele>
        <time>2016-03-29T14:22:11Z</time>
      </trkpt>
      <trkpt lat="45.16853" lon="0.3933">
        <ele>135</ele>
        <time>2016-03-29T14:22:15Z</time>
      </trkpt>
      <trkpt lat="45.16844" lon="0.39341">
        <ele>136</ele>
        <time>2016-03-29T14:22:20Z</time>
      </trkpt>
      <trkpt lat="45.16836" lon="0.39346">
        <ele>138</ele>
        <time>2016-03-29T14:22:24Z</time>
      </trkpt>
      <trkpt lat="45.16832" lon="0.39358">
        <ele>134</ele>
        <time>2016-03-29T14:22:29Z</time>
      </trkpt>
      <trkpt lat="45.16826" lon="0.39362">
        <ele>135</ele>
        <time>2016-03-29T14:22:33Z</time>
      </trkpt>
      <trkpt lat="45.16824" lon="0.39367">
        <ele>133</ele>
        <time>2016-03-29T14:22:37Z</time>
      </trkpt>
      <trkpt lat="45.1682" lon="0.39375">
        <ele>133</ele>
        <time>2016-03-29T14:22:41Z</time>
      </trkpt>
      <trkpt lat="45.16818" lon="0.39384">
        <ele>129</ele>
        <time>2016-03-29T14:22:46Z</time>
      </trkpt>
      <trkpt lat="45.16817" lon="0.39389">
        <ele>128</ele>
        <time>2016-03-29T14:22:52Z</time>
      </trkpt>
      <trkpt lat="45.16816" lon="0.39395">
        <ele>128</ele>
        <time>2016-03-29T14:22:56Z</time>
      </trkpt>
      <trkpt lat="45.16819" lon="0.394">
        <ele>124</ele>
        <time>2016-03-29T14:23:00Z</time>
      </trkpt>
      <trkpt lat="45.16817" lon="0.39406">
        <ele>119</ele>
        <time>2016-03-29T14:23:13Z</time>
      </trkpt>
      <trkpt lat="45.16816" lon="0.39412">
        <ele>120</ele>
        <time>2016-03-29T14:23:35Z</time>
      </trkpt>
      <trkpt lat="45.16817" lon="0.39407">
        <ele>119</ele>
        <time>2016-03-29T14:23:53Z</time>
      </trkpt>
      <trkpt lat="45.16814" lon="0.39404">
        <ele>124</ele>
        <time>2016-03-29T14:24:29Z</time>
      </trkpt>
      <trkpt lat="45.16812" lon="0.394">
        <ele>125</ele>
        <time>2016-03-29T14:24:41Z</time>
      </trkpt>
      <trkpt lat="45.16808" lon="0.39396">
        <ele>124</ele>
        <time>2016-03-29T14:24:46Z</time>
      </trkpt>
      <trkpt lat="45.16805" lon="0.39394">
        <ele>125</ele>
        <time>2016-03-29T14:25:02Z</time>
      </trkpt>
      <trkpt lat="45.16801" lon="0.39389">
        <ele>122</ele>
        <time>2016-03-29T14:25:06Z</time>
      </trkpt>
      <trkpt lat="45.168" lon="0.39383">
        <ele>119</ele>
        <time>2016-03-29T14:25:24Z</time>
      </trkpt>
      <trkpt lat="45.16798" lon="0.39377">
        <ele>128</ele>
        <time>2016-03-29T14:25:54Z</time>
      </trkpt>
      <trkpt lat="45.16799" lon="0.39373">
        <ele>129</ele>
        <time>2016-03-29T14:26:40Z</time>
      </trkpt>
      <trkpt lat="45.16796" lon="0.39363">
        <ele>130</ele>
        <time>2016-03-29T14:26:44Z</time>
      </trkpt>
      <trkpt lat="45.16795" lon="0.39357">
        <ele>128</ele>
        <time>2016-03-29T14:26:50Z</time>
      </trkpt>
      <trkpt lat="45.16793" lon="0.39352">
        <ele>122</ele>
        <time>2016-03-29T14:26:57Z</time>
      </trkpt>
      <trkpt lat="45.16791" lon="0.39347">
        <ele>121</ele>
        <time>2016-03-29T14:27:10Z</time>
      </trkpt>
      <trkpt lat="45.16788" lon="0.39338">
        <ele>124</ele>
        <time>2016-03-29T14:27:14Z</time>
      </trkpt>
      <trkpt lat="45.16785" lon="0.39328">
        <ele>125</ele>
        <time>2016-03-29T14:27:19Z</time>
      </trkpt>
      <trkpt lat="45.16786" lon="0.39319">
        <ele>126</ele>
        <time>2016-03-29T14:27:23Z</time>
      </trkpt>
      <trkpt lat="45.16784" lon="0.3931">
        <ele>125</ele>
        <time>2016-03-29T14:27:27Z</time>
      </trkpt>
      <trkpt lat="45.16784" lon="0.39301">
        <ele>126</ele>
        <time>2016-03-29T14:27:31Z</time>
      </trkpt>
      <trkpt lat="45.16781" lon="0.39295">
        <ele>126</ele>
        <time>2016-03-29T14:27:35Z</time>
      </trkpt>
      <trkpt lat="45.16781" lon="0.39288">
        <ele>126</ele>
        <time>2016-03-29T14:27:40Z</time>
      </trkpt>
      <trkpt lat="45.1678" lon="0.3928">
        <ele>129</ele>
        <time>2016-03-29T14:27:44Z</time>
      </trkpt>
      <trkpt lat="45.16776" lon="0.39275">
        <ele>130</ele>
        <time>2016-03-29T14:27:49Z</time>
      </trkpt>
      <trkpt lat="45.16776" lon="0.39265">
        <ele>131</ele>
        <time>2016-03-29T14:27:53Z</time>
      </trkpt>
      <trkpt lat="45.16778" lon="0.39255">
        <ele>134</ele>
        <time>2016-03-29T14:27:57Z</time>
      </trkpt>
      <trkpt lat="45.16777" lon="0.39246">
        <ele>136</ele>
        <time>2016-03-29T14:28:02Z</time>
      </trkpt>
      <trkpt lat="45.16773" lon="0.39238">
        <ele>135</ele>
        <time>2016-03-29T14:28:07Z</time>
      </trkpt>
      <trkpt lat="45.16769" lon="0.39231">
        <ele>135</ele>
        <time>2016-03-29T14:28:12Z</time>
      </trkpt>
      <trkpt lat="45.16764" lon="0.39221">
        <ele>133</ele>
        <time>2016-03-29T14:28:16Z</time>
      </trkpt>
      <trkpt lat="45.16761" lon="0.39215">
        <ele>134</ele>
        <time>2016-03-29T14:28:20Z</time>
      </trkpt>
      <trkpt lat="45.16758" lon="0.39209">
        <ele>134</ele>
        <time>2016-03-29T14:28:24Z</time>
      </trkpt>
      <trkpt lat="45.16756" lon="0.39198">
        <ele>134</ele>
        <time>2016-03-29T14:28:29Z</time>
      </trkpt>
      <trkpt lat="45.16751" lon="0.3919">
        <ele>133</ele>
        <time>2016-03-29T14:28:33Z</time>
      </trkpt>
      <trkpt lat="45.16746" lon="0.39183">
        <ele>131</ele>
        <time>2016-03-29T14:28:37Z</time>
      </trkpt>
      <trkpt lat="45.16742" lon="0.39179">
        <ele>133</ele>
        <time>2016-03-29T14:28:41Z</time>
      </trkpt>
      <trkpt lat="45.16739" lon="0.39172">
        <ele>132</ele>
        <time>2016-03-29T14:28:46Z</time>
      </trkpt>
      <trkpt lat="45.16738" lon="0.39168">
        <ele>134</ele>
        <time>2016-03-29T14:28:50Z</time>
      </trkpt>
      <trkpt lat="45.16729" lon="0.39163">
        <ele>131</ele>
        <time>2016-03-29T14:28:55Z</time>
      </trkpt>
      <trkpt lat="45.16728" lon="0.39157">
        <ele>132</ele>
        <time>2016-03-29T14:28:59Z</time>
      </trkpt>
      <trkpt lat="45.16725" lon="0.39152">
        <ele>133</ele>
        <time>2016-03-29T14:29:04Z</time>
      </trkpt>
      <trkpt lat="45.16727" lon="0.39143">
        <ele>134</ele>
        <time>2016-03-29T14:29:08Z</time>
      </trkpt>
      <trkpt lat="45.16726" lon="0.39137">
        <ele>137</ele>
        <time>2016-03-29T14:29:12Z</time>
      </trkpt>
      <trkpt lat="45.16722" lon="0.39126">
        <ele>136</ele>
        <time>2016-03-29T14:29:17Z</time>
      </trkpt>
      <trkpt lat="45.16719" lon="0.39118">
        <ele>136</ele>
        <time>2016-03-29T14:29:21Z</time>
      </trkpt>
      <trkpt lat="45.16709" lon="0.3911">
        <ele>134</ele>
        <time>2016-03-29T14:29:26Z</time>
      </trkpt>
      <trkpt lat="45.16702" lon="0.39103">
        <ele>132</ele>
        <time>2016-03-29T14:29:30Z</time>
      </trkpt>
      <trkpt lat="45.16701" lon="0.39092">
        <ele>131</ele>
        <time>2016-03-29T14:29:34Z</time>
      </trkpt>
      <trkpt lat="45.16697" lon="0.39086">
        <ele>133</ele>
        <time>2016-03-29T14:29:39Z</time>
      </trkpt>
      <trkpt lat="45.16696" lon="0.39074">
        <ele>135</ele>
        <time>2016-03-29T14:29:44Z</time>
      </trkpt>
      <trkpt lat="45.16692" lon="0.39068">
        <ele>139</ele>
        <time>2016-03-29T14:29:48Z</time>
      </trkpt>
      <trkpt lat="45.16691" lon="0.39062">
        <ele>141</ele>
        <time>2016-03-29T14:29:52Z</time>
      </trkpt>
      <trkpt lat="45.16686" lon="0.3906">
        <ele>142</ele>
        <time>2016-03-29T14:29:56Z</time>
      </trkpt>
      <trkpt lat="45.16683" lon="0.39052">
        <ele>142</ele>
        <time>2016-03-29T14:30:00Z</time>
      </trkpt>
      <trkpt lat="45.16672" lon="0.39043">
        <ele>134</ele>
        <time>2016-03-29T14:30:04Z</time>
      </trkpt>
      <trkpt lat="45.16665" lon="0.39038">
        <ele>134</ele>
        <time>2016-03-29T14:30:08Z</time>
      </trkpt>
      <trkpt lat="45.1666" lon="0.39043">
        <ele>133</ele>
        <time>2016-03-29T14:30:12Z</time>
      </trkpt>
      <trkpt lat="45.16656" lon="0.3905">
        <ele>135</ele>
        <time>2016-03-29T14:30:17Z</time>
      </trkpt>
      <trkpt lat="45.16654" lon="0.39057">
        <ele>137</ele>
        <time>2016-03-29T14:30:21Z</time>
      </trkpt>
      <trkpt lat="45.16651" lon="0.39066">
        <ele>137</ele>
        <time>2016-03-29T14:30:26Z</time>
      </trkpt>
      <trkpt lat="45.16648" lon="0.3907">
        <ele>138</ele>
        <time>2016-03-29T14:30:30Z</time>
      </trkpt>
      <trkpt lat="45.16641" lon="0.39069">
        <ele>140</ele>
        <time>2016-03-29T14:30:35Z</time>
      </trkpt>
      <trkpt lat="45.16637" lon="0.39071">
        <ele>144</ele>
        <time>2016-03-29T14:30:40Z</time>
      </trkpt>
      <trkpt lat="45.16638" lon="0.39081">
        <ele>142</ele>
        <time>2016-03-29T14:30:44Z</time>
      </trkpt>
      <trkpt lat="45.16637" lon="0.39087">
        <ele>136</ele>
        <time>2016-03-29T14:30:53Z</time>
      </trkpt>
      <trkpt lat="45.16634" lon="0.3909">
        <ele>140</ele>
        <time>2016-03-29T14:31:03Z</time>
      </trkpt>
      <trkpt lat="45.16631" lon="0.39095">
        <ele>140</ele>
        <time>2016-03-29T14:31:07Z</time>
      </trkpt>
      <trkpt lat="45.1663" lon="0.39099">
        <ele>142</ele>
        <time>2016-03-29T14:31:13Z</time>
      </trkpt>
      <trkpt lat="45.16625" lon="0.39106">
        <ele>143</ele>
        <time>2016-03-29T14:31:17Z</time>
      </trkpt>
      <trkpt lat="45.16622" lon="0.39115">
        <ele>144</ele>
        <time>2016-03-29T14:31:21Z</time>
      </trkpt>
      <trkpt lat="45.16619" lon="0.39125">
        <ele>144</ele>
        <time>2016-03-29T14:31:26Z</time>
      </trkpt>
      <trkpt lat="45.16618" lon="0.39131">
        <ele>145</ele>
        <time>2016-03-29T14:31:30Z</time>
      </trkpt>
      <trkpt lat="45.16615" lon="0.39139">
        <ele>145</ele>
        <time>2016-03-29T14:31:35Z</time>
      </trkpt>
      <trkpt lat="45.16613" lon="0.39148">
        <ele>146</ele>
        <time>2016-03-29T14:31:39Z</time>
      </trkpt>
      <trkpt lat="45.1661" lon="0.39153">
        <ele>146</ele>
        <time>2016-03-29T14:31:43Z</time>
      </trkpt>
      <trkpt lat="45.16607" lon="0.39165">
        <ele>146</ele>
        <time>2016-03-29T14:31:48Z</time>
      </trkpt>
      <trkpt lat="45.16607" lon="0.39175">
        <ele>144</ele>
        <time>2016-03-29T14:31:53Z</time>
      </trkpt>
      <trkpt lat="45.16609" lon="0.39183">
        <ele>142</ele>
        <time>2016-03-29T14:31:57Z</time>
      </trkpt>
      <trkpt lat="45.16612" lon="0.39194">
        <ele>142</ele>
        <time>2016-03-29T14:32:02Z</time>
      </trkpt>
      <trkpt lat="45.16615" lon="0.39204">
        <ele>142</ele>
        <time>2016-03-29T14:32:06Z</time>
      </trkpt>
      <trkpt lat="45.16616" lon="0.39211">
        <ele>143</ele>
        <time>2016-03-29T14:32:10Z</time>
      </trkpt>
      <trkpt lat="45.16618" lon="0.39221">
        <ele>142</ele>
        <time>2016-03-29T14:32:15Z</time>
      </trkpt>
      <trkpt lat="45.16622" lon="0.39228">
        <ele>142</ele>
        <time>2016-03-29T14:32:19Z</time>
      </trkpt>
      <trkpt lat="45.16625" lon="0.39236">
        <ele>142</ele>
        <time>2016-03-29T14:32:24Z</time>
      </trkpt>
      <trkpt lat="45.16627" lon="0.39243">
        <ele>142</ele>
        <time>2016-03-29T14:32:28Z</time>
      </trkpt>
      <trkpt lat="45.16629" lon="0.3925">
        <ele>142</ele>
        <time>2016-03-29T14:32:32Z</time>
      </trkpt>
      <trkpt lat="45.16632" lon="0.39255">
        <ele>141</ele>
        <time>2016-03-29T14:32:36Z</time>
      </trkpt>
      <trkpt lat="45.16636" lon="0.39264">
        <ele>141</ele>
        <time>2016-03-29T14:32:41Z</time>
      </trkpt>
      <trkpt lat="45.16637" lon="0.3927">
        <ele>143</ele>
        <time>2016-03-29T14:32:45Z</time>
      </trkpt>
      <trkpt lat="45.16639" lon="0.39276">
        <ele>143</ele>
        <time>2016-03-29T14:32:49Z</time>
      </trkpt>
      <trkpt lat="45.16637" lon="0.39281">
        <ele>145</ele>
        <time>2016-03-29T14:32:53Z</time>
      </trkpt>
      <trkpt lat="45.16634" lon="0.39285">
        <ele>146</ele>
        <time>2016-03-29T14:32:58Z</time>
      </trkpt>
      <trkpt lat="45.16631" lon="0.39288">
        <ele>146</ele>
        <time>2016-03-29T14:33:02Z</time>
      </trkpt>
      <trkpt lat="45.16625" lon="0.39292">
        <ele>146</ele>
        <time>2016-03-29T14:33:07Z</time>
      </trkpt>
      <trkpt lat="45.16621" lon="0.39295">
        <ele>147</ele>
        <time>2016-03-29T14:33:11Z</time>
      </trkpt>
      <trkpt lat="45.16618" lon="0.39299">
        <ele>146</ele>
        <time>2016-03-29T14:33:15Z</time>
      </trkpt>
      <trkpt lat="45.16613" lon="0.39303">
        <ele>146</ele>
        <time>2016-03-29T14:33:20Z</time>
      </trkpt>
      <trkpt lat="45.16609" lon="0.39307">
        <ele>146</ele>
        <time>2016-03-29T14:33:24Z</time>
      </trkpt>
      <trkpt lat="45.16604" lon="0.3931">
        <ele>145</ele>
        <time>2016-03-29T14:33:29Z</time>
      </trkpt>
      <trkpt lat="45.16599" lon="0.39312">
        <ele>145</ele>
        <time>2016-03-29T14:33:33Z</time>
      </trkpt>
      <trkpt lat="45.16593" lon="0.39315">
        <ele>145</ele>
        <time>2016-03-29T14:33:38Z</time>
      </trkpt>
      <trkpt lat="45.16589" lon="0.39318">
        <ele>146</ele>
        <time>2016-03-29T14:33:42Z</time>
      </trkpt>
      <trkpt lat="45.16584" lon="0.39322">
        <ele>146</ele>
        <time>2016-03-29T14:33:46Z</time>
      </trkpt>
      <trkpt lat="45.16578" lon="0.39324">
        <ele>145</ele>
        <time>2016-03-29T14:33:50Z</time>
      </trkpt>
      <trkpt lat="45.16572" lon="0.39329">
        <ele>145</ele>
        <time>2016-03-29T14:33:55Z</time>
      </trkpt>
      <trkpt lat="45.16567" lon="0.3933">
        <ele>145</ele>
        <time>2016-03-29T14:33:59Z</time>
      </trkpt>
      <trkpt lat="45.16561" lon="0.39334">
        <ele>145</ele>
        <time>2016-03-29T14:34:03Z</time>
      </trkpt>
      <trkpt lat="45.16557" lon="0.39338">
        <ele>145</ele>
        <time>2016-03-29T14:34:07Z</time>
      </trkpt>
      <trkpt lat="45.16551" lon="0.3934">
        <ele>145</ele>
        <time>2016-03-29T14:34:12Z</time>
      </trkpt>
      <trkpt lat="45.16546" lon="0.39342">
        <ele>145</ele>
        <time>2016-03-29T14:34:16Z</time>
      </trkpt>
      <trkpt lat="45.1654" lon="0.39345">
        <ele>144</ele>
        <time>2016-03-29T14:34:21Z</time>
      </trkpt>
      <trkpt lat="45.16534" lon="0.3935">
        <ele>144</ele>
        <time>2016-03-29T14:34:26Z</time>
      </trkpt>
      <trkpt lat="45.16528" lon="0.39354">
        <ele>143</ele>
        <time>2016-03-29T14:34:31Z</time>
      </trkpt>
      <trkpt lat="45.16523" lon="0.39356">
        <ele>143</ele>
        <time>2016-03-29T14:34:35Z</time>
      </trkpt>
      <trkpt lat="45.16518" lon="0.39358">
        <ele>143</ele>
        <time>2016-03-29T14:34:40Z</time>
      </trkpt>
      <trkpt lat="45.16513" lon="0.39359">
        <ele>142</ele>
        <time>2016-03-29T14:34:44Z</time>
      </trkpt>
      <trkpt lat="45.16508" lon="0.39361">
        <ele>140</ele>
        <time>2016-03-29T14:34:49Z</time>
      </trkpt>
      <trkpt lat="45.16503" lon="0.39362">
        <ele>139</ele>
        <time>2016-03-29T14:34:53Z</time>
      </trkpt>
      <trkpt lat="45.16498" lon="0.39364">
        <ele>137</ele>
        <time>2016-03-29T14:34:58Z</time>
      </trkpt>
      <trkpt lat="45.16494" lon="0.39367">
        <ele>136</ele>
        <time>2016-03-29T14:35:02Z</time>
      </trkpt>
      <trkpt lat="45.1649" lon="0.39368">
        <ele>136</ele>
        <time>2016-03-29T14:35:06Z</time>
      </trkpt>
      <trkpt lat="45.16486" lon="0.39371">
        <ele>135</ele>
        <time>2016-03-29T14:35:11Z</time>
      </trkpt>
      <trkpt lat="45.16482" lon="0.39373">
        <ele>135</ele>
        <time>2016-03-29T14:35:15Z</time>
      </trkpt>
      <trkpt lat="45.16477" lon="0.39376">
        <ele>134</ele>
        <time>2016-03-29T14:35:20Z</time>
      </trkpt>
      <trkpt lat="45.16473" lon="0.39377">
        <ele>133</ele>
        <time>2016-03-29T14:35:24Z</time>
      </trkpt>
      <trkpt lat="45.16469" lon="0.39376">
        <ele>134</ele>
        <time>2016-03-29T14:35:34Z</time>
      </trkpt>
      <trkpt lat="45.16464" lon="0.3938">
        <ele>133</ele>
        <time>2016-03-29T14:35:38Z</time>
      </trkpt>
      <trkpt lat="45.16459" lon="0.39384">
        <ele>133</ele>
        <time>2016-03-29T14:35:42Z</time>
      </trkpt>
      <trkpt lat="45.16454" lon="0.39391">
        <ele>131</ele>
        <time>2016-03-29T14:35:46Z</time>
      </trkpt>
      <trkpt lat="45.16452" lon="0.39399">
        <ele>131</ele>
        <time>2016-03-29T14:35:50Z</time>
      </trkpt>
      <trkpt lat="45.16452" lon="0.39406">
        <ele>130</ele>
        <time>2016-03-29T14:35:54Z</time>
      </trkpt>
      <trkpt lat="45.16453" lon="0.39412">
        <ele>130</ele>
        <time>2016-03-29T14:35:58Z</time>
      </trkpt>
      <trkpt lat="45.16455" lon="0.39422">
        <ele>129</ele>
        <time>2016-03-29T14:36:03Z</time>
      </trkpt>
      <trkpt lat="45.16455" lon="0.39426">
        <ele>129</ele>
        <time>2016-03-29T14:36:07Z</time>
      </trkpt>
      <trkpt lat="45.16457" lon="0.39434">
        <ele>130</ele>
        <time>2016-03-29T14:36:11Z</time>
      </trkpt>
      <trkpt lat="45.1646" lon="0.3944">
        <ele>129</ele>
        <time>2016-03-29T14:36:16Z</time>
      </trkpt>
      <trkpt lat="45.16462" lon="0.39451">
        <ele>128</ele>
        <time>2016-03-29T14:36:20Z</time>
      </trkpt>
      <trkpt lat="45.16466" lon="0.39457">
        <ele>128</ele>
        <time>2016-03-29T14:36:25Z</time>
      </trkpt>
      <trkpt lat="45.16467" lon="0.39466">
        <ele>127</ele>
        <time>2016-03-29T14:36:30Z</time>
      </trkpt>
      <trkpt lat="45.1647" lon="0.39473">
        <ele>126</ele>
        <time>2016-03-29T14:36:34Z</time>
      </trkpt>
      <trkpt lat="45.16471" lon="0.39479">
        <ele>125</ele>
        <time>2016-03-29T14:36:39Z</time>
      </trkpt>
      <trkpt lat="45.16471" lon="0.39486">
        <ele>125</ele>
        <time>2016-03-29T14:36:44Z</time>
      </trkpt>
      <trkpt lat="45.16473" lon="0.39491">
        <ele>125</ele>
        <time>2016-03-29T14:36:48Z</time>
      </trkpt>
      <trkpt lat="45.16478" lon="0.39499">
        <ele>125</ele>
        <time>2016-03-29T14:36:52Z</time>
      </trkpt>
      <trkpt lat="45.1648" lon="0.39505">
        <ele>125</ele>
        <time>2016-03-29T14:36:56Z</time>
      </trkpt>
      <trkpt lat="45.16482" lon="0.39514">
        <ele>122</ele>
        <time>2016-03-29T14:37:01Z</time>
      </trkpt>
      <trkpt lat="45.16484" lon="0.39521">
        <ele>122</ele>
        <time>2016-03-29T14:37:05Z</time>
      </trkpt>
      <trkpt lat="45.16486" lon="0.39529">
        <ele>122</ele>
        <time>2016-03-29T14:37:10Z</time>
      </trkpt>
      <trkpt lat="45.16489" lon="0.39532">
        <ele>126</ele>
        <time>2016-03-29T14:37:16Z</time>
      </trkpt>
      <trkpt lat="45.16491" lon="0.39538">
        <ele>127</ele>
        <time>2016-03-29T14:37:22Z</time>
      </trkpt>
      <trkpt lat="45.1649" lon="0.39544">
        <ele>128</ele>
        <time>2016-03-29T14:37:28Z</time>
      </trkpt>
      <trkpt lat="45.16489" lon="0.3955">
        <ele>125</ele>
        <time>2016-03-29T14:37:32Z</time>
      </trkpt>
      <trkpt lat="45.16492" lon="0.39556">
        <ele>125</ele>
        <time>2016-03-29T14:37:36Z</time>
      </trkpt>
      <trkpt lat="45.16495" lon="0.39561">
        <ele>126</ele>
        <time>2016-03-29T14:37:40Z</time>
      </trkpt>
      <trkpt lat="45.16498" lon="0.39569">
        <ele>124</ele>
        <time>2016-03-29T14:37:44Z</time>
      </trkpt>
      <trkpt lat="45.16495" lon="0.39573">
        <ele>125</ele>
        <time>2016-03-29T14:37:49Z</time>
      </trkpt>
      <trkpt lat="45.16496" lon="0.39579">
        <ele>126</ele>
        <time>2016-03-29T14:37:54Z</time>
      </trkpt>
      <trkpt lat="45.16504" lon="0.3959">
        <ele>125</ele>
        <time>2016-03-29T14:37:59Z</time>
      </trkpt>
      <trkpt lat="45.16509" lon="0.39596">
        <ele>127</ele>
        <time>2016-03-29T14:38:03Z</time>
      </trkpt>
      <trkpt lat="45.16511" lon="0.39603">
        <ele>125</ele>
        <time>2016-03-29T14:38:07Z</time>
      </trkpt>
      <trkpt lat="45.16514" lon="0.39612">
        <ele>124</ele>
        <time>2016-03-29T14:38:11Z</time>
      </trkpt>
      <trkpt lat="45.16514" lon="0.39618">
        <ele>124</ele>
        <time>2016-03-29T14:38:16Z</time>
      </trkpt>
      <trkpt lat="45.1651" lon="0.39624">
        <ele>124</ele>
        <time>2016-03-29T14:38:20Z</time>
      </trkpt>
      <trkpt lat="45.16508" lon="0.39632">
        <ele>124</ele>
        <time>2016-03-29T14:38:25Z</time>
      </trkpt>
      <trkpt lat="45.16506" lon="0.39634">
        <ele>124</ele>
        <time>2016-03-29T14:38:30Z</time>
      </trkpt>
      <trkpt lat="45.16497" lon="0.39641">
        <ele>119</ele>
        <time>2016-03-29T14:38:34Z</time>
      </trkpt>
      <trkpt lat="45.16493" lon="0.39642">
        <ele>121</ele>
        <time>2016-03-29T14:38:39Z</time>
      </trkpt>
      <trkpt lat="45.16489" lon="0.39642">
        <ele>121</ele>
        <time>2016-03-29T14:38:51Z</time>
      </trkpt>
      <trkpt lat="45.16484" lon="0.39642">
        <ele>117</ele>
        <time>2016-03-29T14:38:57Z</time>
      </trkpt>
      <trkpt lat="45.1648" lon="0.39645">
        <ele>118</ele>
        <time>2016-03-29T14:39:02Z</time>
      </trkpt>
      <trkpt lat="45.16476" lon="0.39646">
        <ele>120</ele>
        <time>2016-03-29T14:39:13Z</time>
      </trkpt>
      <trkpt lat="45.16472" lon="0.39645">
        <ele>120</ele>
        <time>2016-03-29T14:39:19Z</time>
      </trkpt>
      <trkpt lat="45.16468" lon="0.39644">
        <ele>120</ele>
        <time>2016-03-29T14:39:23Z</time>
      </trkpt>
      <trkpt lat="45.16461" lon="0.39643">
        <ele>119</ele>
        <time>2016-03-29T14:39:28Z</time>
      </trkpt>
      <trkpt lat="45.16456" lon="0.39646">
        <ele>120</ele>
        <time>2016-03-29T14:39:32Z</time>
      </trkpt>
      <trkpt lat="45.16451" lon="0.39644">
        <ele>120</ele>
        <time>2016-03-29T14:39:36Z</time>
      </trkpt>
      <trkpt lat="45.1645" lon="0.39643">
        <ele>120</ele>
        <time>2016-03-29T14:39:37Z</time>
      </trkpt>
      <trkpt lat="45.1645" lon="0.39643">
        <ele>120</ele>
        <time>2016-03-29T14:39:38Z</time>
      </trkpt>
    </trkseg>
  </trk>
</gpx>